<?xml version="1.0" encoding="UTF-8" standalone="no" ?>
<gpx xmlns="http://www.topografix.com/GPX/1/1" xmlns:xsi="http://www.w3.org/2001/XMLSchema-instance" xsi:schemaLocation="http://www.topografix.com/GPX/1/1 http://www.topografix.com/GPX/1/1/gpx.xsd" version="1.1" creator="VisuGPX - https://www.visugpx.com">
  <metadata>
    <name>Randonnée à Caunes Minervois</name>
    <desc><![CDATA[Randonnée pédestre au départ de Caunes Minervois]]></desc>
  </metadata>
  <trk>
    <name><![CDATA[2014-06-01 CAUNES]]></name>
    <trkseg>
      <trkpt lat="43.32378" lon="2.52698">
        <ele>188.56</ele>
        <time>2014-06-01T09:09:40Z</time>
      </trkpt>
      <trkpt lat="43.32378" lon="2.52698">
        <ele>187.11</ele>
        <time>2014-06-01T09:09:46Z</time>
      </trkpt>
      <trkpt lat="43.32382" lon="2.52621">
        <ele>191.44</ele>
        <time>2014-06-01T10:53:21Z</time>
      </trkpt>
      <trkpt lat="43.32384" lon="2.52611">
        <ele>192.4</ele>
        <time>2014-06-01T10:53:29Z</time>
      </trkpt>
      <trkpt lat="43.32379" lon="2.52611">
        <ele>192.4</ele>
        <time>2014-06-01T10:53:35Z</time>
      </trkpt>
      <trkpt lat="43.32375" lon="2.52605">
        <ele>192.88</ele>
        <time>2014-06-01T10:53:42Z</time>
      </trkpt>
      <trkpt lat="43.32385" lon="2.52585">
        <ele>190.96</ele>
        <time>2014-06-01T10:53:58Z</time>
      </trkpt>
      <trkpt lat="43.32394" lon="2.52565">
        <ele>191.44</ele>
        <time>2014-06-01T10:54:17Z</time>
      </trkpt>
      <trkpt lat="43.32403" lon="2.52546">
        <ele>193.36</ele>
        <time>2014-06-01T10:54:30Z</time>
      </trkpt>
      <trkpt lat="43.32404" lon="2.52545">
        <ele>192.88</ele>
        <time>2014-06-01T10:54:32Z</time>
      </trkpt>
      <trkpt lat="43.32414" lon="2.52535">
        <ele>192.88</ele>
        <time>2014-06-01T10:54:44Z</time>
      </trkpt>
      <trkpt lat="43.32419" lon="2.52531">
        <ele>192.4</ele>
        <time>2014-06-01T10:54:50Z</time>
      </trkpt>
      <trkpt lat="43.32425" lon="2.52523">
        <ele>192.88</ele>
        <time>2014-06-01T10:55:02Z</time>
      </trkpt>
      <trkpt lat="43.32436" lon="2.52513">
        <ele>193.36</ele>
        <time>2014-06-01T10:55:15Z</time>
      </trkpt>
      <trkpt lat="43.32442" lon="2.52507">
        <ele>193.36</ele>
        <time>2014-06-01T10:55:21Z</time>
      </trkpt>
      <trkpt lat="43.32456" lon="2.52501">
        <ele>191.92</ele>
        <time>2014-06-01T10:55:36Z</time>
      </trkpt>
      <trkpt lat="43.32468" lon="2.52491">
        <ele>190</ele>
        <time>2014-06-01T10:55:51Z</time>
      </trkpt>
      <trkpt lat="43.32477" lon="2.5249">
        <ele>190</ele>
        <time>2014-06-01T10:56:02Z</time>
      </trkpt>
      <trkpt lat="43.3248" lon="2.52493">
        <ele>190</ele>
        <time>2014-06-01T10:56:06Z</time>
      </trkpt>
      <trkpt lat="43.32492" lon="2.52506">
        <ele>188.08</ele>
        <time>2014-06-01T10:56:25Z</time>
      </trkpt>
      <trkpt lat="43.32508" lon="2.52501">
        <ele>187.59</ele>
        <time>2014-06-01T10:56:44Z</time>
      </trkpt>
      <trkpt lat="43.32509" lon="2.52499">
        <ele>187.59</ele>
        <time>2014-06-01T10:56:45Z</time>
      </trkpt>
      <trkpt lat="43.32521" lon="2.52495">
        <ele>188.08</ele>
        <time>2014-06-01T10:56:56Z</time>
      </trkpt>
      <trkpt lat="43.32523" lon="2.52494">
        <ele>187.11</ele>
        <time>2014-06-01T10:56:58Z</time>
      </trkpt>
      <trkpt lat="43.32527" lon="2.52492">
        <ele>188.08</ele>
        <time>2014-06-01T10:57:02Z</time>
      </trkpt>
      <trkpt lat="43.32541" lon="2.52488">
        <ele>188.08</ele>
        <time>2014-06-01T10:57:15Z</time>
      </trkpt>
      <trkpt lat="43.32551" lon="2.52485">
        <ele>188.08</ele>
        <time>2014-06-01T10:57:25Z</time>
      </trkpt>
      <trkpt lat="43.32562" lon="2.52484">
        <ele>188.56</ele>
        <time>2014-06-01T10:57:36Z</time>
      </trkpt>
      <trkpt lat="43.32567" lon="2.52483">
        <ele>188.56</ele>
        <time>2014-06-01T10:57:42Z</time>
      </trkpt>
      <trkpt lat="43.32571" lon="2.52482">
        <ele>188.56</ele>
        <time>2014-06-01T10:57:46Z</time>
      </trkpt>
      <trkpt lat="43.32585" lon="2.52487">
        <ele>189.04</ele>
        <time>2014-06-01T10:58:00Z</time>
      </trkpt>
      <trkpt lat="43.32596" lon="2.52484">
        <ele>189.52</ele>
        <time>2014-06-01T10:58:10Z</time>
      </trkpt>
      <trkpt lat="43.32605" lon="2.52487">
        <ele>190.48</ele>
        <time>2014-06-01T10:58:18Z</time>
      </trkpt>
      <trkpt lat="43.32607" lon="2.52493">
        <ele>190</ele>
        <time>2014-06-01T10:58:23Z</time>
      </trkpt>
      <trkpt lat="43.32611" lon="2.52507">
        <ele>189.52</ele>
        <time>2014-06-01T10:58:36Z</time>
      </trkpt>
      <trkpt lat="43.32616" lon="2.5252">
        <ele>190</ele>
        <time>2014-06-01T10:58:49Z</time>
      </trkpt>
      <trkpt lat="43.32621" lon="2.52535">
        <ele>190</ele>
        <time>2014-06-01T10:59:04Z</time>
      </trkpt>
      <trkpt lat="43.32623" lon="2.52539">
        <ele>189.52</ele>
        <time>2014-06-01T10:59:08Z</time>
      </trkpt>
      <trkpt lat="43.32632" lon="2.52548">
        <ele>190</ele>
        <time>2014-06-01T10:59:18Z</time>
      </trkpt>
      <trkpt lat="43.32635" lon="2.52552">
        <ele>190</ele>
        <time>2014-06-01T10:59:25Z</time>
      </trkpt>
      <trkpt lat="43.32637" lon="2.52569">
        <ele>190.48</ele>
        <time>2014-06-01T10:59:38Z</time>
      </trkpt>
      <trkpt lat="43.32635" lon="2.52585">
        <ele>190.96</ele>
        <time>2014-06-01T10:59:49Z</time>
      </trkpt>
      <trkpt lat="43.32636" lon="2.52601">
        <ele>189.52</ele>
        <time>2014-06-01T11:00:02Z</time>
      </trkpt>
      <trkpt lat="43.32641" lon="2.52612">
        <ele>189.04</ele>
        <time>2014-06-01T11:00:13Z</time>
      </trkpt>
      <trkpt lat="43.32641" lon="2.52615">
        <ele>188.56</ele>
        <time>2014-06-01T11:00:15Z</time>
      </trkpt>
      <trkpt lat="43.32646" lon="2.52629">
        <ele>188.56</ele>
        <time>2014-06-01T11:00:29Z</time>
      </trkpt>
      <trkpt lat="43.32651" lon="2.5264">
        <ele>189.04</ele>
        <time>2014-06-01T11:00:41Z</time>
      </trkpt>
      <trkpt lat="43.32677" lon="2.52658">
        <ele>190</ele>
        <time>2014-06-01T11:01:04Z</time>
      </trkpt>
      <trkpt lat="43.32678" lon="2.52677">
        <ele>190</ele>
        <time>2014-06-01T11:01:23Z</time>
      </trkpt>
      <trkpt lat="43.32682" lon="2.52681">
        <ele>190.96</ele>
        <time>2014-06-01T11:01:27Z</time>
      </trkpt>
      <trkpt lat="43.32696" lon="2.52685">
        <ele>192.88</ele>
        <time>2014-06-01T11:01:46Z</time>
      </trkpt>
      <trkpt lat="43.32698" lon="2.52686">
        <ele>194.32</ele>
        <time>2014-06-01T11:01:51Z</time>
      </trkpt>
      <trkpt lat="43.32714" lon="2.52698">
        <ele>196.73</ele>
        <time>2014-06-01T11:02:13Z</time>
      </trkpt>
      <trkpt lat="43.32719" lon="2.52723">
        <ele>198.17</ele>
        <time>2014-06-01T11:02:34Z</time>
      </trkpt>
      <trkpt lat="43.32726" lon="2.52734">
        <ele>198.65</ele>
        <time>2014-06-01T11:02:50Z</time>
      </trkpt>
      <trkpt lat="43.32729" lon="2.52759">
        <ele>197.21</ele>
        <time>2014-06-01T11:03:07Z</time>
      </trkpt>
      <trkpt lat="43.32728" lon="2.52775">
        <ele>196.25</ele>
        <time>2014-06-01T11:03:18Z</time>
      </trkpt>
      <trkpt lat="43.32723" lon="2.52789">
        <ele>197.69</ele>
        <time>2014-06-01T11:03:33Z</time>
      </trkpt>
      <trkpt lat="43.3272" lon="2.52797">
        <ele>199.61</ele>
        <time>2014-06-01T11:03:51Z</time>
      </trkpt>
      <trkpt lat="43.32711" lon="2.52814">
        <ele>201.05</ele>
        <time>2014-06-01T11:04:04Z</time>
      </trkpt>
      <trkpt lat="43.32706" lon="2.52819">
        <ele>201.53</ele>
        <time>2014-06-01T11:04:20Z</time>
      </trkpt>
      <trkpt lat="43.32706" lon="2.52827">
        <ele>202.49</ele>
        <time>2014-06-01T11:04:33Z</time>
      </trkpt>
      <trkpt lat="43.32707" lon="2.52853">
        <ele>203.46</ele>
        <time>2014-06-01T11:04:51Z</time>
      </trkpt>
      <trkpt lat="43.32711" lon="2.52862">
        <ele>203.94</ele>
        <time>2014-06-01T11:05:05Z</time>
      </trkpt>
      <trkpt lat="43.32716" lon="2.52881">
        <ele>204.9</ele>
        <time>2014-06-01T11:05:21Z</time>
      </trkpt>
      <trkpt lat="43.32721" lon="2.52893">
        <ele>207.78</ele>
        <time>2014-06-01T11:05:36Z</time>
      </trkpt>
      <trkpt lat="43.32725" lon="2.52905">
        <ele>211.15</ele>
        <time>2014-06-01T11:05:50Z</time>
      </trkpt>
      <trkpt lat="43.32725" lon="2.52906">
        <ele>211.15</ele>
        <time>2014-06-01T11:05:51Z</time>
      </trkpt>
      <trkpt lat="43.32732" lon="2.52926">
        <ele>212.59</ele>
        <time>2014-06-01T11:06:11Z</time>
      </trkpt>
      <trkpt lat="43.32737" lon="2.52941">
        <ele>213.07</ele>
        <time>2014-06-01T11:06:27Z</time>
      </trkpt>
      <trkpt lat="43.32739" lon="2.52945">
        <ele>214.03</ele>
        <time>2014-06-01T11:06:31Z</time>
      </trkpt>
      <trkpt lat="43.32755" lon="2.52959">
        <ele>213.55</ele>
        <time>2014-06-01T11:06:52Z</time>
      </trkpt>
      <trkpt lat="43.3276" lon="2.52966">
        <ele>215.47</ele>
        <time>2014-06-01T11:07:01Z</time>
      </trkpt>
      <trkpt lat="43.32766" lon="2.52978">
        <ele>214.99</ele>
        <time>2014-06-01T11:07:16Z</time>
      </trkpt>
      <trkpt lat="43.32767" lon="2.52982">
        <ele>214.99</ele>
        <time>2014-06-01T11:07:20Z</time>
      </trkpt>
      <trkpt lat="43.32763" lon="2.53005">
        <ele>213.55</ele>
        <time>2014-06-01T11:07:37Z</time>
      </trkpt>
      <trkpt lat="43.32763" lon="2.53019">
        <ele>213.07</ele>
        <time>2014-06-01T11:07:47Z</time>
      </trkpt>
      <trkpt lat="43.32762" lon="2.53037">
        <ele>211.15</ele>
        <time>2014-06-01T11:08:01Z</time>
      </trkpt>
      <trkpt lat="43.32764" lon="2.53053">
        <ele>211.15</ele>
        <time>2014-06-01T11:08:16Z</time>
      </trkpt>
      <trkpt lat="43.32774" lon="2.53072">
        <ele>211.15</ele>
        <time>2014-06-01T11:08:34Z</time>
      </trkpt>
      <trkpt lat="43.3278" lon="2.53083">
        <ele>210.67</ele>
        <time>2014-06-01T11:08:49Z</time>
      </trkpt>
      <trkpt lat="43.32777" lon="2.53088">
        <ele>212.11</ele>
        <time>2014-06-01T11:09:06Z</time>
      </trkpt>
      <trkpt lat="43.32777" lon="2.5309">
        <ele>211.63</ele>
        <time>2014-06-01T11:09:31Z</time>
      </trkpt>
      <trkpt lat="43.32779" lon="2.53088">
        <ele>211.63</ele>
        <time>2014-06-01T11:09:44Z</time>
      </trkpt>
      <trkpt lat="43.3278" lon="2.53086">
        <ele>211.63</ele>
        <time>2014-06-01T11:10:01Z</time>
      </trkpt>
      <trkpt lat="43.32779" lon="2.53088">
        <ele>211.15</ele>
        <time>2014-06-01T11:10:08Z</time>
      </trkpt>
      <trkpt lat="43.3278" lon="2.53092">
        <ele>212.11</ele>
        <time>2014-06-01T11:10:22Z</time>
      </trkpt>
      <trkpt lat="43.32783" lon="2.531">
        <ele>212.11</ele>
        <time>2014-06-01T11:10:38Z</time>
      </trkpt>
      <trkpt lat="43.32786" lon="2.53103">
        <ele>211.63</ele>
        <time>2014-06-01T11:10:56Z</time>
      </trkpt>
      <trkpt lat="43.32789" lon="2.5311">
        <ele>211.63</ele>
        <time>2014-06-01T11:11:11Z</time>
      </trkpt>
      <trkpt lat="43.32788" lon="2.53108">
        <ele>211.63</ele>
        <time>2014-06-01T11:11:29Z</time>
      </trkpt>
      <trkpt lat="43.32788" lon="2.53113">
        <ele>211.63</ele>
        <time>2014-06-01T11:11:56Z</time>
      </trkpt>
      <trkpt lat="43.32791" lon="2.53116">
        <ele>211.63</ele>
        <time>2014-06-01T11:12:20Z</time>
      </trkpt>
      <trkpt lat="43.32795" lon="2.53121">
        <ele>211.15</ele>
        <time>2014-06-01T11:12:25Z</time>
      </trkpt>
      <trkpt lat="43.32803" lon="2.53133">
        <ele>210.67</ele>
        <time>2014-06-01T11:12:37Z</time>
      </trkpt>
      <trkpt lat="43.32804" lon="2.53134">
        <ele>213.07</ele>
        <time>2014-06-01T11:12:39Z</time>
      </trkpt>
      <trkpt lat="43.32816" lon="2.53148">
        <ele>211.15</ele>
        <time>2014-06-01T11:12:56Z</time>
      </trkpt>
      <trkpt lat="43.32818" lon="2.53151">
        <ele>211.15</ele>
        <time>2014-06-01T11:13:00Z</time>
      </trkpt>
      <trkpt lat="43.32822" lon="2.53155">
        <ele>211.63</ele>
        <time>2014-06-01T11:13:05Z</time>
      </trkpt>
      <trkpt lat="43.3283" lon="2.53164">
        <ele>210.67</ele>
        <time>2014-06-01T11:13:16Z</time>
      </trkpt>
      <trkpt lat="43.32838" lon="2.53177">
        <ele>211.15</ele>
        <time>2014-06-01T11:13:28Z</time>
      </trkpt>
      <trkpt lat="43.32844" lon="2.53195">
        <ele>212.11</ele>
        <time>2014-06-01T11:13:42Z</time>
      </trkpt>
      <trkpt lat="43.32851" lon="2.53212">
        <ele>213.55</ele>
        <time>2014-06-01T11:13:58Z</time>
      </trkpt>
      <trkpt lat="43.32856" lon="2.53234">
        <ele>215.95</ele>
        <time>2014-06-01T11:14:14Z</time>
      </trkpt>
      <trkpt lat="43.32857" lon="2.53234">
        <ele>216.43</ele>
        <time>2014-06-01T11:14:15Z</time>
      </trkpt>
      <trkpt lat="43.32863" lon="2.53248">
        <ele>218.36</ele>
        <time>2014-06-01T11:14:30Z</time>
      </trkpt>
      <trkpt lat="43.32864" lon="2.53247">
        <ele>218.36</ele>
        <time>2014-06-01T11:14:47Z</time>
      </trkpt>
      <trkpt lat="43.32862" lon="2.53249">
        <ele>218.84</ele>
        <time>2014-06-01T11:15:16Z</time>
      </trkpt>
      <trkpt lat="43.32861" lon="2.5325">
        <ele>218.36</ele>
        <time>2014-06-01T11:15:33Z</time>
      </trkpt>
      <trkpt lat="43.32862" lon="2.53249">
        <ele>217.4</ele>
        <time>2014-06-01T11:15:43Z</time>
      </trkpt>
      <trkpt lat="43.32861" lon="2.53259">
        <ele>220.28</ele>
        <time>2014-06-01T11:15:58Z</time>
      </trkpt>
      <trkpt lat="43.32864" lon="2.53287">
        <ele>220.76</ele>
        <time>2014-06-01T11:16:16Z</time>
      </trkpt>
      <trkpt lat="43.32866" lon="2.53311">
        <ele>221.72</ele>
        <time>2014-06-01T11:16:32Z</time>
      </trkpt>
      <trkpt lat="43.3287" lon="2.53332">
        <ele>220.28</ele>
        <time>2014-06-01T11:16:49Z</time>
      </trkpt>
      <trkpt lat="43.3287" lon="2.53336">
        <ele>219.8</ele>
        <time>2014-06-01T11:16:52Z</time>
      </trkpt>
      <trkpt lat="43.32874" lon="2.53356">
        <ele>219.32</ele>
        <time>2014-06-01T11:17:08Z</time>
      </trkpt>
      <trkpt lat="43.32878" lon="2.53367">
        <ele>219.8</ele>
        <time>2014-06-01T11:17:23Z</time>
      </trkpt>
      <trkpt lat="43.32881" lon="2.53379">
        <ele>218.36</ele>
        <time>2014-06-01T11:17:38Z</time>
      </trkpt>
      <trkpt lat="43.32882" lon="2.53385">
        <ele>218.36</ele>
        <time>2014-06-01T11:17:42Z</time>
      </trkpt>
      <trkpt lat="43.32889" lon="2.53403">
        <ele>218.36</ele>
        <time>2014-06-01T11:17:57Z</time>
      </trkpt>
      <trkpt lat="43.32897" lon="2.53423">
        <ele>217.88</ele>
        <time>2014-06-01T11:18:14Z</time>
      </trkpt>
      <trkpt lat="43.32904" lon="2.53434">
        <ele>217.4</ele>
        <time>2014-06-01T11:18:26Z</time>
      </trkpt>
      <trkpt lat="43.32924" lon="2.53444">
        <ele>216.43</ele>
        <time>2014-06-01T11:18:46Z</time>
      </trkpt>
      <trkpt lat="43.32941" lon="2.53451">
        <ele>217.88</ele>
        <time>2014-06-01T11:19:03Z</time>
      </trkpt>
      <trkpt lat="43.32956" lon="2.53459">
        <ele>218.36</ele>
        <time>2014-06-01T11:19:20Z</time>
      </trkpt>
      <trkpt lat="43.32963" lon="2.53462">
        <ele>218.36</ele>
        <time>2014-06-01T11:19:33Z</time>
      </trkpt>
      <trkpt lat="43.32965" lon="2.53462">
        <ele>217.88</ele>
        <time>2014-06-01T11:19:46Z</time>
      </trkpt>
      <trkpt lat="43.32964" lon="2.53463">
        <ele>218.36</ele>
        <time>2014-06-01T11:20:02Z</time>
      </trkpt>
      <trkpt lat="43.32963" lon="2.53463">
        <ele>218.36</ele>
        <time>2014-06-01T11:20:20Z</time>
      </trkpt>
      <trkpt lat="43.32962" lon="2.53465">
        <ele>218.84</ele>
        <time>2014-06-01T11:20:47Z</time>
      </trkpt>
      <trkpt lat="43.32963" lon="2.53466">
        <ele>218.36</ele>
        <time>2014-06-01T11:21:10Z</time>
      </trkpt>
      <trkpt lat="43.32962" lon="2.53466">
        <ele>220.28</ele>
        <time>2014-06-01T11:21:15Z</time>
      </trkpt>
      <trkpt lat="43.32962" lon="2.53465">
        <ele>218.84</ele>
        <time>2014-06-01T11:21:17Z</time>
      </trkpt>
      <trkpt lat="43.32961" lon="2.53463">
        <ele>218.84</ele>
        <time>2014-06-01T11:21:32Z</time>
      </trkpt>
      <trkpt lat="43.32969" lon="2.53475">
        <ele>219.32</ele>
        <time>2014-06-01T11:21:44Z</time>
      </trkpt>
      <trkpt lat="43.32983" lon="2.53486">
        <ele>220.28</ele>
        <time>2014-06-01T11:21:59Z</time>
      </trkpt>
      <trkpt lat="43.32988" lon="2.53491">
        <ele>219.32</ele>
        <time>2014-06-01T11:22:05Z</time>
      </trkpt>
      <trkpt lat="43.33004" lon="2.53504">
        <ele>220.76</ele>
        <time>2014-06-01T11:22:23Z</time>
      </trkpt>
      <trkpt lat="43.33009" lon="2.53508">
        <ele>222.68</ele>
        <time>2014-06-01T11:22:30Z</time>
      </trkpt>
      <trkpt lat="43.33018" lon="2.53523">
        <ele>222.68</ele>
        <time>2014-06-01T11:22:44Z</time>
      </trkpt>
      <trkpt lat="43.33027" lon="2.53537">
        <ele>225.09</ele>
        <time>2014-06-01T11:23:00Z</time>
      </trkpt>
      <trkpt lat="43.3303" lon="2.53543">
        <ele>226.53</ele>
        <time>2014-06-01T11:23:08Z</time>
      </trkpt>
      <trkpt lat="43.33036" lon="2.53558">
        <ele>228.45</ele>
        <time>2014-06-01T11:23:23Z</time>
      </trkpt>
      <trkpt lat="43.33043" lon="2.53569">
        <ele>230.37</ele>
        <time>2014-06-01T11:23:38Z</time>
      </trkpt>
      <trkpt lat="43.33051" lon="2.53576">
        <ele>231.81</ele>
        <time>2014-06-01T11:23:52Z</time>
      </trkpt>
      <trkpt lat="43.33057" lon="2.53582">
        <ele>231.81</ele>
        <time>2014-06-01T11:24:04Z</time>
      </trkpt>
      <trkpt lat="43.33061" lon="2.53586">
        <ele>234.22</ele>
        <time>2014-06-01T11:24:10Z</time>
      </trkpt>
      <trkpt lat="43.33069" lon="2.53598">
        <ele>234.7</ele>
        <time>2014-06-01T11:24:27Z</time>
      </trkpt>
      <trkpt lat="43.33075" lon="2.53609">
        <ele>237.1</ele>
        <time>2014-06-01T11:24:43Z</time>
      </trkpt>
      <trkpt lat="43.3308" lon="2.53609">
        <ele>238.06</ele>
        <time>2014-06-01T11:24:55Z</time>
      </trkpt>
      <trkpt lat="43.3308" lon="2.53609">
        <ele>238.06</ele>
        <time>2014-06-01T11:25:07Z</time>
      </trkpt>
      <trkpt lat="43.33079" lon="2.53611">
        <ele>237.1</ele>
        <time>2014-06-01T11:25:24Z</time>
      </trkpt>
      <trkpt lat="43.3308" lon="2.5361">
        <ele>238.06</ele>
        <time>2014-06-01T11:25:36Z</time>
      </trkpt>
      <trkpt lat="43.3308" lon="2.53613">
        <ele>237.58</ele>
        <time>2014-06-01T11:25:53Z</time>
      </trkpt>
      <trkpt lat="43.33081" lon="2.53614">
        <ele>238.06</ele>
        <time>2014-06-01T11:26:05Z</time>
      </trkpt>
      <trkpt lat="43.33081" lon="2.53611">
        <ele>237.1</ele>
        <time>2014-06-01T11:26:20Z</time>
      </trkpt>
      <trkpt lat="43.33082" lon="2.53612">
        <ele>238.06</ele>
        <time>2014-06-01T11:26:36Z</time>
      </trkpt>
      <trkpt lat="43.33081" lon="2.53613">
        <ele>238.54</ele>
        <time>2014-06-01T11:26:50Z</time>
      </trkpt>
      <trkpt lat="43.33082" lon="2.53615">
        <ele>238.54</ele>
        <time>2014-06-01T11:27:15Z</time>
      </trkpt>
      <trkpt lat="43.33084" lon="2.53615">
        <ele>238.54</ele>
        <time>2014-06-01T11:27:28Z</time>
      </trkpt>
      <trkpt lat="43.3308" lon="2.53611">
        <ele>238.06</ele>
        <time>2014-06-01T11:27:44Z</time>
      </trkpt>
      <trkpt lat="43.33081" lon="2.53613">
        <ele>238.54</ele>
        <time>2014-06-01T11:27:57Z</time>
      </trkpt>
      <trkpt lat="43.33081" lon="2.53611">
        <ele>239.02</ele>
        <time>2014-06-01T11:28:11Z</time>
      </trkpt>
      <trkpt lat="43.33081" lon="2.53611">
        <ele>239.99</ele>
        <time>2014-06-01T11:28:36Z</time>
      </trkpt>
      <trkpt lat="43.33081" lon="2.53612">
        <ele>239.51</ele>
        <time>2014-06-01T11:28:54Z</time>
      </trkpt>
      <trkpt lat="43.33087" lon="2.53626">
        <ele>240.47</ele>
        <time>2014-06-01T11:29:08Z</time>
      </trkpt>
      <trkpt lat="43.33095" lon="2.53638">
        <ele>242.87</ele>
        <time>2014-06-01T11:29:22Z</time>
      </trkpt>
      <trkpt lat="43.33102" lon="2.53646">
        <ele>243.83</ele>
        <time>2014-06-01T11:29:33Z</time>
      </trkpt>
      <trkpt lat="43.33109" lon="2.53656">
        <ele>245.27</ele>
        <time>2014-06-01T11:29:47Z</time>
      </trkpt>
      <trkpt lat="43.33112" lon="2.5366">
        <ele>245.75</ele>
        <time>2014-06-01T11:29:58Z</time>
      </trkpt>
      <trkpt lat="43.33113" lon="2.5366">
        <ele>246.23</ele>
        <time>2014-06-01T11:30:00Z</time>
      </trkpt>
      <trkpt lat="43.33114" lon="2.53662">
        <ele>245.75</ele>
        <time>2014-06-01T11:30:02Z</time>
      </trkpt>
      <trkpt lat="43.33116" lon="2.53663">
        <ele>246.72</ele>
        <time>2014-06-01T11:30:05Z</time>
      </trkpt>
      <trkpt lat="43.33121" lon="2.5367">
        <ele>247.2</ele>
        <time>2014-06-01T11:30:19Z</time>
      </trkpt>
      <trkpt lat="43.33131" lon="2.53684">
        <ele>248.16</ele>
        <time>2014-06-01T11:30:34Z</time>
      </trkpt>
      <trkpt lat="43.33139" lon="2.53697">
        <ele>250.08</ele>
        <time>2014-06-01T11:30:48Z</time>
      </trkpt>
      <trkpt lat="43.33139" lon="2.53697">
        <ele>249.6</ele>
        <time>2014-06-01T11:30:49Z</time>
      </trkpt>
      <trkpt lat="43.3315" lon="2.53713">
        <ele>251.52</ele>
        <time>2014-06-01T11:31:06Z</time>
      </trkpt>
      <trkpt lat="43.33158" lon="2.53731">
        <ele>252.96</ele>
        <time>2014-06-01T11:31:22Z</time>
      </trkpt>
      <trkpt lat="43.33165" lon="2.5375">
        <ele>254.41</ele>
        <time>2014-06-01T11:31:39Z</time>
      </trkpt>
      <trkpt lat="43.33172" lon="2.53764">
        <ele>255.37</ele>
        <time>2014-06-01T11:31:54Z</time>
      </trkpt>
      <trkpt lat="43.33178" lon="2.53779">
        <ele>256.33</ele>
        <time>2014-06-01T11:32:08Z</time>
      </trkpt>
      <trkpt lat="43.33182" lon="2.53783">
        <ele>257.77</ele>
        <time>2014-06-01T11:32:22Z</time>
      </trkpt>
      <trkpt lat="43.33182" lon="2.5378">
        <ele>256.81</ele>
        <time>2014-06-01T11:32:35Z</time>
      </trkpt>
      <trkpt lat="43.33184" lon="2.53782">
        <ele>257.29</ele>
        <time>2014-06-01T11:32:48Z</time>
      </trkpt>
      <trkpt lat="43.33183" lon="2.53781">
        <ele>257.29</ele>
        <time>2014-06-01T11:33:06Z</time>
      </trkpt>
      <trkpt lat="43.33182" lon="2.5378">
        <ele>256.33</ele>
        <time>2014-06-01T11:33:23Z</time>
      </trkpt>
      <trkpt lat="43.33183" lon="2.53783">
        <ele>257.77</ele>
        <time>2014-06-01T11:33:42Z</time>
      </trkpt>
      <trkpt lat="43.33183" lon="2.53788">
        <ele>257.77</ele>
        <time>2014-06-01T11:34:01Z</time>
      </trkpt>
      <trkpt lat="43.33188" lon="2.53802">
        <ele>259.21</ele>
        <time>2014-06-01T11:34:14Z</time>
      </trkpt>
      <trkpt lat="43.33191" lon="2.53813">
        <ele>260.17</ele>
        <time>2014-06-01T11:34:24Z</time>
      </trkpt>
      <trkpt lat="43.332" lon="2.53833">
        <ele>263.06</ele>
        <time>2014-06-01T11:34:41Z</time>
      </trkpt>
      <trkpt lat="43.33201" lon="2.53836">
        <ele>262.58</ele>
        <time>2014-06-01T11:34:57Z</time>
      </trkpt>
      <trkpt lat="43.33202" lon="2.53841">
        <ele>263.06</ele>
        <time>2014-06-01T11:35:23Z</time>
      </trkpt>
      <trkpt lat="43.33206" lon="2.53851">
        <ele>261.62</ele>
        <time>2014-06-01T11:35:38Z</time>
      </trkpt>
      <trkpt lat="43.33211" lon="2.5387">
        <ele>260.17</ele>
        <time>2014-06-01T11:35:56Z</time>
      </trkpt>
      <trkpt lat="43.33216" lon="2.53886">
        <ele>258.73</ele>
        <time>2014-06-01T11:36:13Z</time>
      </trkpt>
      <trkpt lat="43.33219" lon="2.53894">
        <ele>257.77</ele>
        <time>2014-06-01T11:36:28Z</time>
      </trkpt>
      <trkpt lat="43.3323" lon="2.53911">
        <ele>255.37</ele>
        <time>2014-06-01T11:36:46Z</time>
      </trkpt>
      <trkpt lat="43.33239" lon="2.53921">
        <ele>254.89</ele>
        <time>2014-06-01T11:37:03Z</time>
      </trkpt>
      <trkpt lat="43.33248" lon="2.53936">
        <ele>253.44</ele>
        <time>2014-06-01T11:37:19Z</time>
      </trkpt>
      <trkpt lat="43.33257" lon="2.53954">
        <ele>252.48</ele>
        <time>2014-06-01T11:37:36Z</time>
      </trkpt>
      <trkpt lat="43.33264" lon="2.53973">
        <ele>252</ele>
        <time>2014-06-01T11:37:51Z</time>
      </trkpt>
      <trkpt lat="43.3327" lon="2.53995">
        <ele>252</ele>
        <time>2014-06-01T11:38:08Z</time>
      </trkpt>
      <trkpt lat="43.33277" lon="2.54015">
        <ele>253.44</ele>
        <time>2014-06-01T11:38:23Z</time>
      </trkpt>
      <trkpt lat="43.33283" lon="2.54033">
        <ele>253.93</ele>
        <time>2014-06-01T11:38:38Z</time>
      </trkpt>
      <trkpt lat="43.33286" lon="2.54047">
        <ele>253.44</ele>
        <time>2014-06-01T11:38:50Z</time>
      </trkpt>
      <trkpt lat="43.33289" lon="2.54052">
        <ele>253.93</ele>
        <time>2014-06-01T11:39:06Z</time>
      </trkpt>
      <trkpt lat="43.3329" lon="2.54053">
        <ele>253.44</ele>
        <time>2014-06-01T11:39:18Z</time>
      </trkpt>
      <trkpt lat="43.3329" lon="2.54054">
        <ele>253.93</ele>
        <time>2014-06-01T11:39:36Z</time>
      </trkpt>
      <trkpt lat="43.3329" lon="2.54057">
        <ele>253.93</ele>
        <time>2014-06-01T11:40:07Z</time>
      </trkpt>
      <trkpt lat="43.3329" lon="2.54054">
        <ele>253.44</ele>
        <time>2014-06-01T11:40:27Z</time>
      </trkpt>
      <trkpt lat="43.3329" lon="2.54066">
        <ele>254.41</ele>
        <time>2014-06-01T11:40:43Z</time>
      </trkpt>
      <trkpt lat="43.33291" lon="2.54077">
        <ele>254.89</ele>
        <time>2014-06-01T11:41:02Z</time>
      </trkpt>
      <trkpt lat="43.33292" lon="2.54091">
        <ele>253.93</ele>
        <time>2014-06-01T11:41:11Z</time>
      </trkpt>
      <trkpt lat="43.33293" lon="2.54099">
        <ele>254.89</ele>
        <time>2014-06-01T11:41:16Z</time>
      </trkpt>
      <trkpt lat="43.33295" lon="2.54123">
        <ele>255.37</ele>
        <time>2014-06-01T11:41:32Z</time>
      </trkpt>
      <trkpt lat="43.33299" lon="2.54143">
        <ele>256.81</ele>
        <time>2014-06-01T11:41:46Z</time>
      </trkpt>
      <trkpt lat="43.33301" lon="2.54151">
        <ele>257.77</ele>
        <time>2014-06-01T11:41:52Z</time>
      </trkpt>
      <trkpt lat="43.33301" lon="2.54157">
        <ele>257.77</ele>
        <time>2014-06-01T11:41:56Z</time>
      </trkpt>
      <trkpt lat="43.33302" lon="2.5416">
        <ele>257.77</ele>
        <time>2014-06-01T11:41:58Z</time>
      </trkpt>
      <trkpt lat="43.33309" lon="2.54181">
        <ele>257.77</ele>
        <time>2014-06-01T11:42:15Z</time>
      </trkpt>
      <trkpt lat="43.33316" lon="2.54191">
        <ele>257.29</ele>
        <time>2014-06-01T11:42:28Z</time>
      </trkpt>
      <trkpt lat="43.33325" lon="2.54202">
        <ele>256.33</ele>
        <time>2014-06-01T11:42:42Z</time>
      </trkpt>
      <trkpt lat="43.33333" lon="2.54215">
        <ele>254.41</ele>
        <time>2014-06-01T11:42:57Z</time>
      </trkpt>
      <trkpt lat="43.3334" lon="2.54226">
        <ele>252.96</ele>
        <time>2014-06-01T11:43:12Z</time>
      </trkpt>
      <trkpt lat="43.33347" lon="2.54236">
        <ele>252.48</ele>
        <time>2014-06-01T11:43:26Z</time>
      </trkpt>
      <trkpt lat="43.33352" lon="2.54245">
        <ele>251.52</ele>
        <time>2014-06-01T11:43:39Z</time>
      </trkpt>
      <trkpt lat="43.33357" lon="2.54255">
        <ele>250.08</ele>
        <time>2014-06-01T11:43:56Z</time>
      </trkpt>
      <trkpt lat="43.3336" lon="2.54265">
        <ele>248.64</ele>
        <time>2014-06-01T11:44:08Z</time>
      </trkpt>
      <trkpt lat="43.33364" lon="2.5428">
        <ele>246.72</ele>
        <time>2014-06-01T11:44:23Z</time>
      </trkpt>
      <trkpt lat="43.33368" lon="2.54289">
        <ele>244.31</ele>
        <time>2014-06-01T11:44:35Z</time>
      </trkpt>
      <trkpt lat="43.33371" lon="2.54303">
        <ele>242.87</ele>
        <time>2014-06-01T11:44:50Z</time>
      </trkpt>
      <trkpt lat="43.33374" lon="2.54306">
        <ele>241.91</ele>
        <time>2014-06-01T11:44:54Z</time>
      </trkpt>
      <trkpt lat="43.33375" lon="2.5432">
        <ele>239.99</ele>
        <time>2014-06-01T11:45:09Z</time>
      </trkpt>
      <trkpt lat="43.33379" lon="2.54327">
        <ele>239.51</ele>
        <time>2014-06-01T11:45:23Z</time>
      </trkpt>
      <trkpt lat="43.33383" lon="2.54336">
        <ele>237.58</ele>
        <time>2014-06-01T11:45:37Z</time>
      </trkpt>
      <trkpt lat="43.33386" lon="2.54345">
        <ele>236.62</ele>
        <time>2014-06-01T11:45:49Z</time>
      </trkpt>
      <trkpt lat="43.33389" lon="2.54352">
        <ele>234.7</ele>
        <time>2014-06-01T11:46:06Z</time>
      </trkpt>
      <trkpt lat="43.33393" lon="2.54365">
        <ele>233.26</ele>
        <time>2014-06-01T11:46:22Z</time>
      </trkpt>
      <trkpt lat="43.33397" lon="2.54375">
        <ele>233.26</ele>
        <time>2014-06-01T11:46:33Z</time>
      </trkpt>
      <trkpt lat="43.33402" lon="2.54383">
        <ele>231.81</ele>
        <time>2014-06-01T11:46:47Z</time>
      </trkpt>
      <trkpt lat="43.33405" lon="2.54394">
        <ele>230.85</ele>
        <time>2014-06-01T11:47:01Z</time>
      </trkpt>
      <trkpt lat="43.33405" lon="2.54407">
        <ele>228.93</ele>
        <time>2014-06-01T11:47:14Z</time>
      </trkpt>
      <trkpt lat="43.33406" lon="2.54415">
        <ele>227.97</ele>
        <time>2014-06-01T11:47:29Z</time>
      </trkpt>
      <trkpt lat="43.33407" lon="2.54414">
        <ele>227.01</ele>
        <time>2014-06-01T11:47:54Z</time>
      </trkpt>
      <trkpt lat="43.33407" lon="2.54414">
        <ele>227.97</ele>
        <time>2014-06-01T11:48:22Z</time>
      </trkpt>
      <trkpt lat="43.33408" lon="2.54427">
        <ele>227.49</ele>
        <time>2014-06-01T11:48:50Z</time>
      </trkpt>
      <trkpt lat="43.33412" lon="2.54445">
        <ele>226.05</ele>
        <time>2014-06-01T11:49:04Z</time>
      </trkpt>
      <trkpt lat="43.33412" lon="2.54445">
        <ele>226.05</ele>
        <time>2014-06-01T11:49:17Z</time>
      </trkpt>
      <trkpt lat="43.33411" lon="2.54448">
        <ele>226.05</ele>
        <time>2014-06-01T11:49:34Z</time>
      </trkpt>
      <trkpt lat="43.33416" lon="2.54457">
        <ele>224.61</ele>
        <time>2014-06-01T11:49:46Z</time>
      </trkpt>
      <trkpt lat="43.33416" lon="2.54463">
        <ele>223.64</ele>
        <time>2014-06-01T11:50:01Z</time>
      </trkpt>
      <trkpt lat="43.33414" lon="2.54466">
        <ele>223.64</ele>
        <time>2014-06-01T11:50:25Z</time>
      </trkpt>
      <trkpt lat="43.33416" lon="2.54475">
        <ele>221.72</ele>
        <time>2014-06-01T11:50:46Z</time>
      </trkpt>
      <trkpt lat="43.33413" lon="2.54473">
        <ele>222.68</ele>
        <time>2014-06-01T11:50:51Z</time>
      </trkpt>
      <trkpt lat="43.33413" lon="2.54467">
        <ele>224.12</ele>
        <time>2014-06-01T11:51:07Z</time>
      </trkpt>
      <trkpt lat="43.33415" lon="2.54476">
        <ele>222.2</ele>
        <time>2014-06-01T11:51:18Z</time>
      </trkpt>
      <trkpt lat="43.33416" lon="2.54489">
        <ele>220.28</ele>
        <time>2014-06-01T11:51:30Z</time>
      </trkpt>
      <trkpt lat="43.33417" lon="2.54492">
        <ele>220.76</ele>
        <time>2014-06-01T11:51:38Z</time>
      </trkpt>
      <trkpt lat="43.33411" lon="2.5449">
        <ele>220.76</ele>
        <time>2014-06-01T11:51:55Z</time>
      </trkpt>
      <trkpt lat="43.3342" lon="2.54491">
        <ele>220.76</ele>
        <time>2014-06-01T11:52:17Z</time>
      </trkpt>
      <trkpt lat="43.33426" lon="2.54503">
        <ele>221.24</ele>
        <time>2014-06-01T11:52:42Z</time>
      </trkpt>
      <trkpt lat="43.33433" lon="2.54502">
        <ele>220.76</ele>
        <time>2014-06-01T11:53:02Z</time>
      </trkpt>
      <trkpt lat="43.33433" lon="2.54493">
        <ele>220.76</ele>
        <time>2014-06-01T11:53:23Z</time>
      </trkpt>
      <trkpt lat="43.33429" lon="2.54512">
        <ele>220.28</ele>
        <time>2014-06-01T11:53:46Z</time>
      </trkpt>
      <trkpt lat="43.33429" lon="2.54518">
        <ele>221.24</ele>
        <time>2014-06-01T11:53:54Z</time>
      </trkpt>
      <trkpt lat="43.33414" lon="2.54551">
        <ele>221.24</ele>
        <time>2014-06-01T11:54:26Z</time>
      </trkpt>
      <trkpt lat="43.3341" lon="2.54529">
        <ele>220.76</ele>
        <time>2014-06-01T11:54:48Z</time>
      </trkpt>
      <trkpt lat="43.33414" lon="2.54525">
        <ele>220.76</ele>
        <time>2014-06-01T11:54:50Z</time>
      </trkpt>
      <trkpt lat="43.33416" lon="2.54512">
        <ele>220.76</ele>
        <time>2014-06-01T11:55:07Z</time>
      </trkpt>
      <trkpt lat="43.33423" lon="2.5451">
        <ele>220.76</ele>
        <time>2014-06-01T11:55:25Z</time>
      </trkpt>
      <trkpt lat="43.33425" lon="2.54506">
        <ele>220.76</ele>
        <time>2014-06-01T11:55:49Z</time>
      </trkpt>
      <trkpt lat="43.33424" lon="2.54501">
        <ele>220.28</ele>
        <time>2014-06-01T11:56:09Z</time>
      </trkpt>
      <trkpt lat="43.33411" lon="2.54495">
        <ele>220.28</ele>
        <time>2014-06-01T11:56:31Z</time>
      </trkpt>
      <trkpt lat="43.33414" lon="2.54497">
        <ele>220.76</ele>
        <time>2014-06-01T11:56:46Z</time>
      </trkpt>
      <trkpt lat="43.33418" lon="2.5451">
        <ele>219.32</ele>
        <time>2014-06-01T11:57:02Z</time>
      </trkpt>
      <trkpt lat="43.33423" lon="2.5452">
        <ele>216.91</ele>
        <time>2014-06-01T11:57:15Z</time>
      </trkpt>
      <trkpt lat="43.3343" lon="2.54525">
        <ele>216.43</ele>
        <time>2014-06-01T11:57:29Z</time>
      </trkpt>
      <trkpt lat="43.33434" lon="2.54525">
        <ele>216.43</ele>
        <time>2014-06-01T11:57:33Z</time>
      </trkpt>
      <trkpt lat="43.33444" lon="2.54525">
        <ele>214.51</ele>
        <time>2014-06-01T11:57:49Z</time>
      </trkpt>
      <trkpt lat="43.33434" lon="2.54534">
        <ele>215.95</ele>
        <time>2014-06-01T11:58:03Z</time>
      </trkpt>
      <trkpt lat="43.33441" lon="2.54527">
        <ele>213.55</ele>
        <time>2014-06-01T11:58:17Z</time>
      </trkpt>
      <trkpt lat="43.33455" lon="2.54522">
        <ele>212.59</ele>
        <time>2014-06-01T11:58:33Z</time>
      </trkpt>
      <trkpt lat="43.33464" lon="2.54512">
        <ele>215.47</ele>
        <time>2014-06-01T11:58:45Z</time>
      </trkpt>
      <trkpt lat="43.33467" lon="2.54511">
        <ele>213.55</ele>
        <time>2014-06-01T11:59:07Z</time>
      </trkpt>
      <trkpt lat="43.33468" lon="2.54523">
        <ele>214.03</ele>
        <time>2014-06-01T11:59:21Z</time>
      </trkpt>
      <trkpt lat="43.33475" lon="2.54527">
        <ele>214.99</ele>
        <time>2014-06-01T11:59:30Z</time>
      </trkpt>
      <trkpt lat="43.33486" lon="2.54533">
        <ele>217.4</ele>
        <time>2014-06-01T11:59:46Z</time>
      </trkpt>
      <trkpt lat="43.33496" lon="2.54539">
        <ele>218.84</ele>
        <time>2014-06-01T12:00:00Z</time>
      </trkpt>
      <trkpt lat="43.33497" lon="2.54545">
        <ele>218.36</ele>
        <time>2014-06-01T12:00:07Z</time>
      </trkpt>
      <trkpt lat="43.33496" lon="2.54558">
        <ele>219.32</ele>
        <time>2014-06-01T12:00:18Z</time>
      </trkpt>
      <trkpt lat="43.33491" lon="2.5458">
        <ele>220.76</ele>
        <time>2014-06-01T12:00:36Z</time>
      </trkpt>
      <trkpt lat="43.33493" lon="2.54596">
        <ele>222.2</ele>
        <time>2014-06-01T12:00:51Z</time>
      </trkpt>
      <trkpt lat="43.33494" lon="2.5461">
        <ele>223.16</ele>
        <time>2014-06-01T12:01:04Z</time>
      </trkpt>
      <trkpt lat="43.33498" lon="2.54625">
        <ele>225.57</ele>
        <time>2014-06-01T12:01:19Z</time>
      </trkpt>
      <trkpt lat="43.33503" lon="2.54636">
        <ele>227.01</ele>
        <time>2014-06-01T12:01:34Z</time>
      </trkpt>
      <trkpt lat="43.33509" lon="2.54654">
        <ele>227.97</ele>
        <time>2014-06-01T12:01:49Z</time>
      </trkpt>
      <trkpt lat="43.33509" lon="2.54663">
        <ele>228.93</ele>
        <time>2014-06-01T12:02:04Z</time>
      </trkpt>
      <trkpt lat="43.33512" lon="2.54666">
        <ele>229.41</ele>
        <time>2014-06-01T12:02:22Z</time>
      </trkpt>
      <trkpt lat="43.33514" lon="2.54669">
        <ele>230.85</ele>
        <time>2014-06-01T12:02:37Z</time>
      </trkpt>
      <trkpt lat="43.33515" lon="2.54673">
        <ele>231.81</ele>
        <time>2014-06-01T12:02:55Z</time>
      </trkpt>
      <trkpt lat="43.33514" lon="2.54673">
        <ele>231.33</ele>
        <time>2014-06-01T12:03:12Z</time>
      </trkpt>
      <trkpt lat="43.33511" lon="2.54669">
        <ele>232.3</ele>
        <time>2014-06-01T12:03:29Z</time>
      </trkpt>
      <trkpt lat="43.33511" lon="2.54666">
        <ele>231.81</ele>
        <time>2014-06-01T12:03:43Z</time>
      </trkpt>
      <trkpt lat="43.33518" lon="2.54672">
        <ele>233.74</ele>
        <time>2014-06-01T12:04:01Z</time>
      </trkpt>
      <trkpt lat="43.3352" lon="2.54676">
        <ele>233.26</ele>
        <time>2014-06-01T12:04:23Z</time>
      </trkpt>
      <trkpt lat="43.33513" lon="2.54671">
        <ele>230.37</ele>
        <time>2014-06-01T12:04:35Z</time>
      </trkpt>
      <trkpt lat="43.33513" lon="2.54674">
        <ele>229.89</ele>
        <time>2014-06-01T12:04:53Z</time>
      </trkpt>
      <trkpt lat="43.3351" lon="2.54672">
        <ele>228.93</ele>
        <time>2014-06-01T12:05:10Z</time>
      </trkpt>
      <trkpt lat="43.33507" lon="2.54676">
        <ele>231.33</ele>
        <time>2014-06-01T12:05:38Z</time>
      </trkpt>
      <trkpt lat="43.33507" lon="2.54677">
        <ele>231.33</ele>
        <time>2014-06-01T12:06:09Z</time>
      </trkpt>
      <trkpt lat="43.33507" lon="2.54672">
        <ele>230.37</ele>
        <time>2014-06-01T12:06:21Z</time>
      </trkpt>
      <trkpt lat="43.335" lon="2.54671">
        <ele>228.93</ele>
        <time>2014-06-01T12:06:31Z</time>
      </trkpt>
      <trkpt lat="43.33495" lon="2.54668">
        <ele>229.41</ele>
        <time>2014-06-01T12:06:46Z</time>
      </trkpt>
      <trkpt lat="43.3349" lon="2.54664">
        <ele>227.97</ele>
        <time>2014-06-01T12:06:59Z</time>
      </trkpt>
      <trkpt lat="43.33487" lon="2.54661">
        <ele>227.49</ele>
        <time>2014-06-01T12:07:02Z</time>
      </trkpt>
      <trkpt lat="43.33471" lon="2.54656">
        <ele>227.49</ele>
        <time>2014-06-01T12:07:16Z</time>
      </trkpt>
      <trkpt lat="43.33465" lon="2.54657">
        <ele>227.01</ele>
        <time>2014-06-01T12:07:20Z</time>
      </trkpt>
      <trkpt lat="43.33455" lon="2.54656">
        <ele>227.01</ele>
        <time>2014-06-01T12:07:27Z</time>
      </trkpt>
      <trkpt lat="43.33438" lon="2.54656">
        <ele>227.49</ele>
        <time>2014-06-01T12:07:42Z</time>
      </trkpt>
      <trkpt lat="43.33437" lon="2.54656">
        <ele>227.49</ele>
        <time>2014-06-01T12:07:43Z</time>
      </trkpt>
      <trkpt lat="43.33434" lon="2.54657">
        <ele>227.97</ele>
        <time>2014-06-01T12:07:46Z</time>
      </trkpt>
      <trkpt lat="43.33422" lon="2.54662">
        <ele>228.45</ele>
        <time>2014-06-01T12:07:57Z</time>
      </trkpt>
      <trkpt lat="43.33413" lon="2.54662">
        <ele>228.93</ele>
        <time>2014-06-01T12:08:06Z</time>
      </trkpt>
      <trkpt lat="43.3341" lon="2.54666">
        <ele>228.45</ele>
        <time>2014-06-01T12:08:20Z</time>
      </trkpt>
      <trkpt lat="43.33407" lon="2.54664">
        <ele>228.45</ele>
        <time>2014-06-01T12:08:30Z</time>
      </trkpt>
      <trkpt lat="43.33404" lon="2.54665">
        <ele>228.45</ele>
        <time>2014-06-01T12:08:33Z</time>
      </trkpt>
      <trkpt lat="43.33397" lon="2.54672">
        <ele>230.37</ele>
        <time>2014-06-01T12:08:44Z</time>
      </trkpt>
      <trkpt lat="43.33394" lon="2.54677">
        <ele>230.37</ele>
        <time>2014-06-01T12:08:50Z</time>
      </trkpt>
      <trkpt lat="43.33387" lon="2.54689">
        <ele>231.33</ele>
        <time>2014-06-01T12:09:03Z</time>
      </trkpt>
      <trkpt lat="43.33383" lon="2.54695">
        <ele>232.3</ele>
        <time>2014-06-01T12:09:10Z</time>
      </trkpt>
      <trkpt lat="43.33381" lon="2.54704">
        <ele>232.3</ele>
        <time>2014-06-01T12:09:18Z</time>
      </trkpt>
      <trkpt lat="43.33378" lon="2.54717">
        <ele>232.78</ele>
        <time>2014-06-01T12:09:27Z</time>
      </trkpt>
      <trkpt lat="43.33377" lon="2.54721">
        <ele>232.3</ele>
        <time>2014-06-01T12:09:30Z</time>
      </trkpt>
      <trkpt lat="43.33374" lon="2.54731">
        <ele>232.78</ele>
        <time>2014-06-01T12:09:38Z</time>
      </trkpt>
      <trkpt lat="43.33373" lon="2.54736">
        <ele>233.74</ele>
        <time>2014-06-01T12:09:42Z</time>
      </trkpt>
      <trkpt lat="43.33371" lon="2.5474">
        <ele>233.26</ele>
        <time>2014-06-01T12:09:47Z</time>
      </trkpt>
      <trkpt lat="43.33368" lon="2.5475">
        <ele>234.7</ele>
        <time>2014-06-01T12:09:54Z</time>
      </trkpt>
      <trkpt lat="43.33358" lon="2.5476">
        <ele>235.18</ele>
        <time>2014-06-01T12:10:06Z</time>
      </trkpt>
      <trkpt lat="43.33353" lon="2.54768">
        <ele>235.66</ele>
        <time>2014-06-01T12:10:13Z</time>
      </trkpt>
      <trkpt lat="43.33345" lon="2.54779">
        <ele>236.14</ele>
        <time>2014-06-01T12:10:25Z</time>
      </trkpt>
      <trkpt lat="43.33337" lon="2.54786">
        <ele>236.62</ele>
        <time>2014-06-01T12:10:36Z</time>
      </trkpt>
      <trkpt lat="43.33331" lon="2.5479">
        <ele>237.1</ele>
        <time>2014-06-01T12:10:48Z</time>
      </trkpt>
      <trkpt lat="43.33325" lon="2.54796">
        <ele>237.1</ele>
        <time>2014-06-01T12:10:56Z</time>
      </trkpt>
      <trkpt lat="43.33321" lon="2.54797">
        <ele>237.58</ele>
        <time>2014-06-01T12:11:00Z</time>
      </trkpt>
      <trkpt lat="43.33314" lon="2.54804">
        <ele>239.02</ele>
        <time>2014-06-01T12:11:10Z</time>
      </trkpt>
      <trkpt lat="43.33309" lon="2.54809">
        <ele>239.51</ele>
        <time>2014-06-01T12:11:16Z</time>
      </trkpt>
      <trkpt lat="43.33306" lon="2.54812">
        <ele>239.51</ele>
        <time>2014-06-01T12:11:19Z</time>
      </trkpt>
      <trkpt lat="43.33301" lon="2.54821">
        <ele>240.47</ele>
        <time>2014-06-01T12:11:27Z</time>
      </trkpt>
      <trkpt lat="43.33297" lon="2.54825">
        <ele>240.95</ele>
        <time>2014-06-01T12:11:34Z</time>
      </trkpt>
      <trkpt lat="43.33292" lon="2.54834">
        <ele>241.43</ele>
        <time>2014-06-01T12:11:41Z</time>
      </trkpt>
      <trkpt lat="43.33291" lon="2.54838">
        <ele>241.91</ele>
        <time>2014-06-01T12:11:45Z</time>
      </trkpt>
      <trkpt lat="43.33289" lon="2.54846">
        <ele>242.87</ele>
        <time>2014-06-01T12:11:52Z</time>
      </trkpt>
      <trkpt lat="43.33289" lon="2.54852">
        <ele>243.35</ele>
        <time>2014-06-01T12:11:56Z</time>
      </trkpt>
      <trkpt lat="43.33287" lon="2.54856">
        <ele>243.83</ele>
        <time>2014-06-01T12:12:00Z</time>
      </trkpt>
      <trkpt lat="43.33287" lon="2.54862">
        <ele>243.83</ele>
        <time>2014-06-01T12:12:06Z</time>
      </trkpt>
      <trkpt lat="43.33284" lon="2.54872">
        <ele>244.79</ele>
        <time>2014-06-01T12:12:16Z</time>
      </trkpt>
      <trkpt lat="43.33283" lon="2.54873">
        <ele>244.79</ele>
        <time>2014-06-01T12:12:17Z</time>
      </trkpt>
      <trkpt lat="43.33278" lon="2.5488">
        <ele>246.72</ele>
        <time>2014-06-01T12:12:27Z</time>
      </trkpt>
      <trkpt lat="43.33272" lon="2.54892">
        <ele>248.16</ele>
        <time>2014-06-01T12:12:41Z</time>
      </trkpt>
      <trkpt lat="43.3327" lon="2.54904">
        <ele>249.6</ele>
        <time>2014-06-01T12:12:52Z</time>
      </trkpt>
      <trkpt lat="43.33277" lon="2.54916">
        <ele>250.56</ele>
        <time>2014-06-01T12:13:07Z</time>
      </trkpt>
      <trkpt lat="43.33278" lon="2.54915">
        <ele>251.52</ele>
        <time>2014-06-01T12:13:22Z</time>
      </trkpt>
      <trkpt lat="43.33277" lon="2.54915">
        <ele>251.52</ele>
        <time>2014-06-01T12:13:38Z</time>
      </trkpt>
      <trkpt lat="43.33278" lon="2.54918">
        <ele>251.52</ele>
        <time>2014-06-01T12:13:47Z</time>
      </trkpt>
      <trkpt lat="43.33286" lon="2.54919">
        <ele>251.52</ele>
        <time>2014-06-01T12:13:56Z</time>
      </trkpt>
      <trkpt lat="43.33294" lon="2.54916">
        <ele>252.96</ele>
        <time>2014-06-01T12:14:08Z</time>
      </trkpt>
      <trkpt lat="43.33296" lon="2.54916">
        <ele>253.44</ele>
        <time>2014-06-01T12:14:12Z</time>
      </trkpt>
      <trkpt lat="43.33298" lon="2.54916">
        <ele>254.41</ele>
        <time>2014-06-01T12:14:14Z</time>
      </trkpt>
      <trkpt lat="43.33299" lon="2.54915">
        <ele>254.89</ele>
        <time>2014-06-01T12:14:16Z</time>
      </trkpt>
      <trkpt lat="43.33308" lon="2.54917">
        <ele>254.89</ele>
        <time>2014-06-01T12:14:25Z</time>
      </trkpt>
      <trkpt lat="43.33317" lon="2.54914">
        <ele>256.33</ele>
        <time>2014-06-01T12:14:38Z</time>
      </trkpt>
      <trkpt lat="43.33318" lon="2.54913">
        <ele>256.33</ele>
        <time>2014-06-01T12:14:40Z</time>
      </trkpt>
      <trkpt lat="43.33326" lon="2.5491">
        <ele>256.81</ele>
        <time>2014-06-01T12:14:49Z</time>
      </trkpt>
      <trkpt lat="43.33337" lon="2.5491">
        <ele>258.73</ele>
        <time>2014-06-01T12:15:04Z</time>
      </trkpt>
      <trkpt lat="43.33343" lon="2.5491">
        <ele>260.65</ele>
        <time>2014-06-01T12:15:13Z</time>
      </trkpt>
      <trkpt lat="43.3335" lon="2.54908">
        <ele>262.1</ele>
        <time>2014-06-01T12:15:25Z</time>
      </trkpt>
      <trkpt lat="43.33352" lon="2.54908">
        <ele>262.58</ele>
        <time>2014-06-01T12:15:30Z</time>
      </trkpt>
      <trkpt lat="43.33358" lon="2.54909">
        <ele>263.06</ele>
        <time>2014-06-01T12:15:36Z</time>
      </trkpt>
      <trkpt lat="43.33362" lon="2.54907">
        <ele>264.5</ele>
        <time>2014-06-01T12:15:41Z</time>
      </trkpt>
      <trkpt lat="43.3337" lon="2.54907">
        <ele>265.94</ele>
        <time>2014-06-01T12:15:52Z</time>
      </trkpt>
      <trkpt lat="43.33379" lon="2.54901">
        <ele>267.38</ele>
        <time>2014-06-01T12:16:04Z</time>
      </trkpt>
      <trkpt lat="43.33382" lon="2.54901">
        <ele>266.9</ele>
        <time>2014-06-01T12:16:07Z</time>
      </trkpt>
      <trkpt lat="43.33394" lon="2.54889">
        <ele>266.42</ele>
        <time>2014-06-01T12:16:21Z</time>
      </trkpt>
      <trkpt lat="43.33401" lon="2.54882">
        <ele>267.38</ele>
        <time>2014-06-01T12:16:31Z</time>
      </trkpt>
      <trkpt lat="43.33404" lon="2.54876">
        <ele>266.9</ele>
        <time>2014-06-01T12:16:42Z</time>
      </trkpt>
      <trkpt lat="43.33411" lon="2.54869">
        <ele>266.9</ele>
        <time>2014-06-01T12:16:53Z</time>
      </trkpt>
      <trkpt lat="43.33417" lon="2.54861">
        <ele>267.86</ele>
        <time>2014-06-01T12:17:03Z</time>
      </trkpt>
      <trkpt lat="43.33425" lon="2.54852">
        <ele>267.38</ele>
        <time>2014-06-01T12:17:17Z</time>
      </trkpt>
      <trkpt lat="43.33434" lon="2.54844">
        <ele>267.86</ele>
        <time>2014-06-01T12:17:28Z</time>
      </trkpt>
      <trkpt lat="43.3344" lon="2.5484">
        <ele>267.38</ele>
        <time>2014-06-01T12:17:34Z</time>
      </trkpt>
      <trkpt lat="43.33446" lon="2.54841">
        <ele>268.35</ele>
        <time>2014-06-01T12:17:41Z</time>
      </trkpt>
      <trkpt lat="43.33449" lon="2.54839">
        <ele>268.35</ele>
        <time>2014-06-01T12:17:45Z</time>
      </trkpt>
      <trkpt lat="43.33451" lon="2.54839">
        <ele>268.83</ele>
        <time>2014-06-01T12:17:48Z</time>
      </trkpt>
      <trkpt lat="43.3346" lon="2.54837">
        <ele>268.83</ele>
        <time>2014-06-01T12:18:01Z</time>
      </trkpt>
      <trkpt lat="43.33473" lon="2.54836">
        <ele>269.79</ele>
        <time>2014-06-01T12:18:12Z</time>
      </trkpt>
      <trkpt lat="43.33477" lon="2.54837">
        <ele>268.83</ele>
        <time>2014-06-01T12:18:22Z</time>
      </trkpt>
      <trkpt lat="43.3348" lon="2.54839">
        <ele>269.31</ele>
        <time>2014-06-01T12:18:26Z</time>
      </trkpt>
      <trkpt lat="43.33489" lon="2.54841">
        <ele>268.83</ele>
        <time>2014-06-01T12:18:35Z</time>
      </trkpt>
      <trkpt lat="43.3349" lon="2.54841">
        <ele>268.35</ele>
        <time>2014-06-01T12:18:36Z</time>
      </trkpt>
      <trkpt lat="43.33492" lon="2.54839">
        <ele>268.35</ele>
        <time>2014-06-01T12:18:41Z</time>
      </trkpt>
      <trkpt lat="43.33495" lon="2.54841">
        <ele>268.83</ele>
        <time>2014-06-01T12:18:45Z</time>
      </trkpt>
      <trkpt lat="43.33499" lon="2.54842">
        <ele>268.83</ele>
        <time>2014-06-01T12:18:49Z</time>
      </trkpt>
      <trkpt lat="43.3351" lon="2.54846">
        <ele>268.35</ele>
        <time>2014-06-01T12:19:01Z</time>
      </trkpt>
      <trkpt lat="43.33524" lon="2.54854">
        <ele>267.38</ele>
        <time>2014-06-01T12:19:15Z</time>
      </trkpt>
      <trkpt lat="43.33532" lon="2.54856">
        <ele>266.9</ele>
        <time>2014-06-01T12:19:22Z</time>
      </trkpt>
      <trkpt lat="43.33546" lon="2.54863">
        <ele>267.86</ele>
        <time>2014-06-01T12:19:38Z</time>
      </trkpt>
      <trkpt lat="43.33556" lon="2.54871">
        <ele>268.35</ele>
        <time>2014-06-01T12:19:54Z</time>
      </trkpt>
      <trkpt lat="43.33566" lon="2.5488">
        <ele>270.27</ele>
        <time>2014-06-01T12:20:09Z</time>
      </trkpt>
      <trkpt lat="43.33575" lon="2.54884">
        <ele>270.27</ele>
        <time>2014-06-01T12:20:25Z</time>
      </trkpt>
      <trkpt lat="43.33581" lon="2.54879">
        <ele>269.79</ele>
        <time>2014-06-01T12:20:40Z</time>
      </trkpt>
      <trkpt lat="43.33585" lon="2.54876">
        <ele>269.31</ele>
        <time>2014-06-01T12:20:53Z</time>
      </trkpt>
      <trkpt lat="43.33587" lon="2.5488">
        <ele>269.31</ele>
        <time>2014-06-01T12:21:07Z</time>
      </trkpt>
      <trkpt lat="43.33588" lon="2.54877">
        <ele>268.83</ele>
        <time>2014-06-01T12:21:17Z</time>
      </trkpt>
      <trkpt lat="43.33588" lon="2.54878">
        <ele>269.79</ele>
        <time>2014-06-01T12:21:33Z</time>
      </trkpt>
      <trkpt lat="43.33587" lon="2.54875">
        <ele>269.79</ele>
        <time>2014-06-01T12:21:57Z</time>
      </trkpt>
      <trkpt lat="43.33586" lon="2.54877">
        <ele>269.31</ele>
        <time>2014-06-01T12:22:16Z</time>
      </trkpt>
      <trkpt lat="43.33584" lon="2.54882">
        <ele>269.31</ele>
        <time>2014-06-01T12:22:28Z</time>
      </trkpt>
      <trkpt lat="43.33585" lon="2.54884">
        <ele>269.79</ele>
        <time>2014-06-01T12:22:46Z</time>
      </trkpt>
      <trkpt lat="43.33585" lon="2.54884">
        <ele>268.83</ele>
        <time>2014-06-01T12:23:04Z</time>
      </trkpt>
      <trkpt lat="43.33585" lon="2.54885">
        <ele>268.35</ele>
        <time>2014-06-01T12:23:24Z</time>
      </trkpt>
      <trkpt lat="43.33585" lon="2.54886">
        <ele>269.31</ele>
        <time>2014-06-01T12:23:57Z</time>
      </trkpt>
      <trkpt lat="43.33585" lon="2.54886">
        <ele>270.75</ele>
        <time>2014-06-01T12:24:28Z</time>
      </trkpt>
      <trkpt lat="43.33588" lon="2.5489">
        <ele>270.75</ele>
        <time>2014-06-01T12:24:34Z</time>
      </trkpt>
      <trkpt lat="43.33595" lon="2.549">
        <ele>270.75</ele>
        <time>2014-06-01T12:24:46Z</time>
      </trkpt>
      <trkpt lat="43.33597" lon="2.54905">
        <ele>270.27</ele>
        <time>2014-06-01T12:24:58Z</time>
      </trkpt>
      <trkpt lat="43.33608" lon="2.54916">
        <ele>271.71</ele>
        <time>2014-06-01T12:25:14Z</time>
      </trkpt>
      <trkpt lat="43.33612" lon="2.54923">
        <ele>273.63</ele>
        <time>2014-06-01T12:25:22Z</time>
      </trkpt>
      <trkpt lat="43.33616" lon="2.54927">
        <ele>273.15</ele>
        <time>2014-06-01T12:25:27Z</time>
      </trkpt>
      <trkpt lat="43.33618" lon="2.54931">
        <ele>273.15</ele>
        <time>2014-06-01T12:25:31Z</time>
      </trkpt>
      <trkpt lat="43.33622" lon="2.54935">
        <ele>272.19</ele>
        <time>2014-06-01T12:25:36Z</time>
      </trkpt>
      <trkpt lat="43.33624" lon="2.5494">
        <ele>271.71</ele>
        <time>2014-06-01T12:25:40Z</time>
      </trkpt>
      <trkpt lat="43.33631" lon="2.54949">
        <ele>272.67</ele>
        <time>2014-06-01T12:25:50Z</time>
      </trkpt>
      <trkpt lat="43.33632" lon="2.54951">
        <ele>271.23</ele>
        <time>2014-06-01T12:25:52Z</time>
      </trkpt>
      <trkpt lat="43.33642" lon="2.54953">
        <ele>270.75</ele>
        <time>2014-06-01T12:26:03Z</time>
      </trkpt>
      <trkpt lat="43.33643" lon="2.54954">
        <ele>271.23</ele>
        <time>2014-06-01T12:26:05Z</time>
      </trkpt>
      <trkpt lat="43.33649" lon="2.54953">
        <ele>270.75</ele>
        <time>2014-06-01T12:26:13Z</time>
      </trkpt>
      <trkpt lat="43.33658" lon="2.54952">
        <ele>270.27</ele>
        <time>2014-06-01T12:26:24Z</time>
      </trkpt>
      <trkpt lat="43.33668" lon="2.54952">
        <ele>270.27</ele>
        <time>2014-06-01T12:26:38Z</time>
      </trkpt>
      <trkpt lat="43.3368" lon="2.54955">
        <ele>268.35</ele>
        <time>2014-06-01T12:26:51Z</time>
      </trkpt>
      <trkpt lat="43.33689" lon="2.54961">
        <ele>268.35</ele>
        <time>2014-06-01T12:27:01Z</time>
      </trkpt>
      <trkpt lat="43.33695" lon="2.54968">
        <ele>267.86</ele>
        <time>2014-06-01T12:27:11Z</time>
      </trkpt>
      <trkpt lat="43.33696" lon="2.5497">
        <ele>267.86</ele>
        <time>2014-06-01T12:27:13Z</time>
      </trkpt>
      <trkpt lat="43.33699" lon="2.54975">
        <ele>267.86</ele>
        <time>2014-06-01T12:27:18Z</time>
      </trkpt>
      <trkpt lat="43.337" lon="2.54978">
        <ele>268.83</ele>
        <time>2014-06-01T12:27:21Z</time>
      </trkpt>
      <trkpt lat="43.33703" lon="2.54989">
        <ele>268.35</ele>
        <time>2014-06-01T12:27:30Z</time>
      </trkpt>
      <trkpt lat="43.33706" lon="2.55003">
        <ele>268.35</ele>
        <time>2014-06-01T12:27:40Z</time>
      </trkpt>
      <trkpt lat="43.33706" lon="2.55007">
        <ele>269.31</ele>
        <time>2014-06-01T12:27:44Z</time>
      </trkpt>
      <trkpt lat="43.33706" lon="2.55012">
        <ele>268.83</ele>
        <time>2014-06-01T12:27:48Z</time>
      </trkpt>
      <trkpt lat="43.33706" lon="2.55019">
        <ele>268.35</ele>
        <time>2014-06-01T12:27:53Z</time>
      </trkpt>
      <trkpt lat="43.33707" lon="2.55026">
        <ele>267.86</ele>
        <time>2014-06-01T12:27:58Z</time>
      </trkpt>
      <trkpt lat="43.33708" lon="2.55038">
        <ele>268.35</ele>
        <time>2014-06-01T12:28:07Z</time>
      </trkpt>
      <trkpt lat="43.33709" lon="2.55044">
        <ele>267.86</ele>
        <time>2014-06-01T12:28:12Z</time>
      </trkpt>
      <trkpt lat="43.33709" lon="2.55051">
        <ele>268.35</ele>
        <time>2014-06-01T12:28:17Z</time>
      </trkpt>
      <trkpt lat="43.33709" lon="2.55064">
        <ele>267.86</ele>
        <time>2014-06-01T12:28:26Z</time>
      </trkpt>
      <trkpt lat="43.33711" lon="2.5508">
        <ele>266.42</ele>
        <time>2014-06-01T12:28:38Z</time>
      </trkpt>
      <trkpt lat="43.33713" lon="2.55088">
        <ele>266.42</ele>
        <time>2014-06-01T12:28:45Z</time>
      </trkpt>
      <trkpt lat="43.33715" lon="2.55094">
        <ele>266.42</ele>
        <time>2014-06-01T12:28:50Z</time>
      </trkpt>
      <trkpt lat="43.33719" lon="2.55104">
        <ele>267.38</ele>
        <time>2014-06-01T12:28:58Z</time>
      </trkpt>
      <trkpt lat="43.33733" lon="2.55119">
        <ele>265.94</ele>
        <time>2014-06-01T12:29:16Z</time>
      </trkpt>
      <trkpt lat="43.33748" lon="2.55127">
        <ele>264.02</ele>
        <time>2014-06-01T12:29:33Z</time>
      </trkpt>
      <trkpt lat="43.33763" lon="2.55136">
        <ele>263.06</ele>
        <time>2014-06-01T12:29:49Z</time>
      </trkpt>
      <trkpt lat="43.33781" lon="2.55147">
        <ele>263.54</ele>
        <time>2014-06-01T12:30:09Z</time>
      </trkpt>
      <trkpt lat="43.33784" lon="2.55149">
        <ele>263.54</ele>
        <time>2014-06-01T12:30:13Z</time>
      </trkpt>
      <trkpt lat="43.33787" lon="2.55151">
        <ele>263.54</ele>
        <time>2014-06-01T12:30:30Z</time>
      </trkpt>
      <trkpt lat="43.33782" lon="2.55149">
        <ele>263.06</ele>
        <time>2014-06-01T12:30:34Z</time>
      </trkpt>
      <trkpt lat="43.33763" lon="2.55139">
        <ele>263.06</ele>
        <time>2014-06-01T12:30:52Z</time>
      </trkpt>
      <trkpt lat="43.33761" lon="2.55138">
        <ele>263.06</ele>
        <time>2014-06-01T12:31:04Z</time>
      </trkpt>
      <trkpt lat="43.33756" lon="2.55135">
        <ele>263.54</ele>
        <time>2014-06-01T12:31:20Z</time>
      </trkpt>
      <trkpt lat="43.33756" lon="2.55128">
        <ele>264.5</ele>
        <time>2014-06-01T12:31:35Z</time>
      </trkpt>
      <trkpt lat="43.33759" lon="2.5512">
        <ele>265.94</ele>
        <time>2014-06-01T12:31:48Z</time>
      </trkpt>
      <trkpt lat="43.33762" lon="2.55117">
        <ele>268.35</ele>
        <time>2014-06-01T12:32:03Z</time>
      </trkpt>
      <trkpt lat="43.33767" lon="2.55116">
        <ele>269.31</ele>
        <time>2014-06-01T12:32:19Z</time>
      </trkpt>
      <trkpt lat="43.33768" lon="2.55114">
        <ele>269.79</ele>
        <time>2014-06-01T12:32:24Z</time>
      </trkpt>
      <trkpt lat="43.33773" lon="2.55116">
        <ele>269.31</ele>
        <time>2014-06-01T12:32:37Z</time>
      </trkpt>
      <trkpt lat="43.33769" lon="2.55115">
        <ele>270.27</ele>
        <time>2014-06-01T12:32:52Z</time>
      </trkpt>
      <trkpt lat="43.3377" lon="2.55114">
        <ele>271.23</ele>
        <time>2014-06-01T12:33:09Z</time>
      </trkpt>
      <trkpt lat="43.33769" lon="2.55102">
        <ele>273.63</ele>
        <time>2014-06-01T12:33:27Z</time>
      </trkpt>
      <trkpt lat="43.33769" lon="2.55101">
        <ele>273.63</ele>
        <time>2014-06-01T12:33:45Z</time>
      </trkpt>
      <trkpt lat="43.33768" lon="2.55104">
        <ele>273.63</ele>
        <time>2014-06-01T12:34:05Z</time>
      </trkpt>
      <trkpt lat="43.33768" lon="2.55105">
        <ele>275.07</ele>
        <time>2014-06-01T12:34:29Z</time>
      </trkpt>
      <trkpt lat="43.33766" lon="2.55103">
        <ele>273.63</ele>
        <time>2014-06-01T12:34:49Z</time>
      </trkpt>
      <trkpt lat="43.33766" lon="2.55113">
        <ele>270.75</ele>
        <time>2014-06-01T12:35:11Z</time>
      </trkpt>
      <trkpt lat="43.33767" lon="2.55118">
        <ele>269.79</ele>
        <time>2014-06-01T12:35:31Z</time>
      </trkpt>
      <trkpt lat="43.33768" lon="2.55115">
        <ele>269.79</ele>
        <time>2014-06-01T12:35:52Z</time>
      </trkpt>
      <trkpt lat="43.33772" lon="2.55112">
        <ele>269.79</ele>
        <time>2014-06-01T12:36:13Z</time>
      </trkpt>
      <trkpt lat="43.33775" lon="2.55114">
        <ele>269.79</ele>
        <time>2014-06-01T12:36:30Z</time>
      </trkpt>
      <trkpt lat="43.33777" lon="2.55111">
        <ele>271.23</ele>
        <time>2014-06-01T12:36:45Z</time>
      </trkpt>
      <trkpt lat="43.33771" lon="2.55114">
        <ele>270.75</ele>
        <time>2014-06-01T12:37:04Z</time>
      </trkpt>
      <trkpt lat="43.33766" lon="2.55118">
        <ele>269.79</ele>
        <time>2014-06-01T12:37:20Z</time>
      </trkpt>
      <trkpt lat="43.33763" lon="2.55122">
        <ele>268.35</ele>
        <time>2014-06-01T12:37:41Z</time>
      </trkpt>
      <trkpt lat="43.33762" lon="2.55133">
        <ele>265.94</ele>
        <time>2014-06-01T12:37:56Z</time>
      </trkpt>
      <trkpt lat="43.33763" lon="2.55133">
        <ele>264.98</ele>
        <time>2014-06-01T12:38:13Z</time>
      </trkpt>
      <trkpt lat="43.33765" lon="2.5513">
        <ele>265.46</ele>
        <time>2014-06-01T12:38:29Z</time>
      </trkpt>
      <trkpt lat="43.33759" lon="2.55125">
        <ele>266.9</ele>
        <time>2014-06-01T12:38:45Z</time>
      </trkpt>
      <trkpt lat="43.33756" lon="2.55127">
        <ele>266.9</ele>
        <time>2014-06-01T12:39:02Z</time>
      </trkpt>
      <trkpt lat="43.3376" lon="2.55122">
        <ele>267.38</ele>
        <time>2014-06-01T12:39:19Z</time>
      </trkpt>
      <trkpt lat="43.33765" lon="2.55117">
        <ele>268.83</ele>
        <time>2014-06-01T12:39:36Z</time>
      </trkpt>
      <trkpt lat="43.33766" lon="2.55116">
        <ele>269.31</ele>
        <time>2014-06-01T12:39:53Z</time>
      </trkpt>
      <trkpt lat="43.33767" lon="2.55117">
        <ele>270.27</ele>
        <time>2014-06-01T12:40:10Z</time>
      </trkpt>
      <trkpt lat="43.33768" lon="2.55113">
        <ele>271.23</ele>
        <time>2014-06-01T12:40:27Z</time>
      </trkpt>
      <trkpt lat="43.33767" lon="2.55114">
        <ele>270.75</ele>
        <time>2014-06-01T12:40:48Z</time>
      </trkpt>
      <trkpt lat="43.33772" lon="2.55115">
        <ele>268.35</ele>
        <time>2014-06-01T12:41:21Z</time>
      </trkpt>
      <trkpt lat="43.33767" lon="2.55115">
        <ele>268.83</ele>
        <time>2014-06-01T12:41:43Z</time>
      </trkpt>
      <trkpt lat="43.33764" lon="2.55116">
        <ele>268.35</ele>
        <time>2014-06-01T12:42:01Z</time>
      </trkpt>
      <trkpt lat="43.33767" lon="2.55112">
        <ele>268.83</ele>
        <time>2014-06-01T12:42:16Z</time>
      </trkpt>
      <trkpt lat="43.33771" lon="2.55113">
        <ele>269.79</ele>
        <time>2014-06-01T12:42:29Z</time>
      </trkpt>
      <trkpt lat="43.33771" lon="2.55116">
        <ele>268.83</ele>
        <time>2014-06-01T12:42:43Z</time>
      </trkpt>
      <trkpt lat="43.33772" lon="2.55117">
        <ele>269.31</ele>
        <time>2014-06-01T12:43:06Z</time>
      </trkpt>
      <trkpt lat="43.33773" lon="2.55119">
        <ele>269.79</ele>
        <time>2014-06-01T12:43:22Z</time>
      </trkpt>
      <trkpt lat="43.33774" lon="2.55117">
        <ele>271.23</ele>
        <time>2014-06-01T12:43:38Z</time>
      </trkpt>
      <trkpt lat="43.33773" lon="2.55116">
        <ele>272.19</ele>
        <time>2014-06-01T12:44:02Z</time>
      </trkpt>
      <trkpt lat="43.3377" lon="2.55116">
        <ele>273.15</ele>
        <time>2014-06-01T12:44:18Z</time>
      </trkpt>
      <trkpt lat="43.3377" lon="2.55115">
        <ele>272.67</ele>
        <time>2014-06-01T12:44:39Z</time>
      </trkpt>
      <trkpt lat="43.33768" lon="2.5512">
        <ele>273.15</ele>
        <time>2014-06-01T12:44:56Z</time>
      </trkpt>
      <trkpt lat="43.33774" lon="2.55123">
        <ele>272.67</ele>
        <time>2014-06-01T12:45:13Z</time>
      </trkpt>
      <trkpt lat="43.33776" lon="2.5512">
        <ele>272.67</ele>
        <time>2014-06-01T12:45:29Z</time>
      </trkpt>
      <trkpt lat="43.3378" lon="2.5512">
        <ele>272.19</ele>
        <time>2014-06-01T12:45:54Z</time>
      </trkpt>
      <trkpt lat="43.33782" lon="2.5512">
        <ele>271.71</ele>
        <time>2014-06-01T12:46:12Z</time>
      </trkpt>
      <trkpt lat="43.3378" lon="2.55116">
        <ele>273.63</ele>
        <time>2014-06-01T12:46:28Z</time>
      </trkpt>
      <trkpt lat="43.3377" lon="2.55116">
        <ele>272.19</ele>
        <time>2014-06-01T12:46:40Z</time>
      </trkpt>
      <trkpt lat="43.33767" lon="2.55123">
        <ele>269.31</ele>
        <time>2014-06-01T12:46:55Z</time>
      </trkpt>
      <trkpt lat="43.33762" lon="2.55128">
        <ele>266.9</ele>
        <time>2014-06-01T12:47:08Z</time>
      </trkpt>
      <trkpt lat="43.33757" lon="2.55133">
        <ele>266.42</ele>
        <time>2014-06-01T12:47:21Z</time>
      </trkpt>
      <trkpt lat="43.33764" lon="2.55136">
        <ele>265.46</ele>
        <time>2014-06-01T12:47:34Z</time>
      </trkpt>
      <trkpt lat="43.33778" lon="2.55144">
        <ele>264.02</ele>
        <time>2014-06-01T12:47:51Z</time>
      </trkpt>
      <trkpt lat="43.3378" lon="2.55146">
        <ele>264.02</ele>
        <time>2014-06-01T12:47:53Z</time>
      </trkpt>
      <trkpt lat="43.33788" lon="2.5515">
        <ele>264.5</ele>
        <time>2014-06-01T12:48:00Z</time>
      </trkpt>
      <trkpt lat="43.33802" lon="2.55158">
        <ele>264.98</ele>
        <time>2014-06-01T12:48:17Z</time>
      </trkpt>
      <trkpt lat="43.33804" lon="2.55158">
        <ele>264.98</ele>
        <time>2014-06-01T12:48:20Z</time>
      </trkpt>
      <trkpt lat="43.3381" lon="2.55166">
        <ele>264.02</ele>
        <time>2014-06-01T12:48:32Z</time>
      </trkpt>
      <trkpt lat="43.33812" lon="2.55171">
        <ele>263.54</ele>
        <time>2014-06-01T12:48:36Z</time>
      </trkpt>
      <trkpt lat="43.33815" lon="2.55189">
        <ele>263.54</ele>
        <time>2014-06-01T12:48:50Z</time>
      </trkpt>
      <trkpt lat="43.33815" lon="2.55205">
        <ele>263.54</ele>
        <time>2014-06-01T12:49:02Z</time>
      </trkpt>
      <trkpt lat="43.33817" lon="2.55214">
        <ele>263.54</ele>
        <time>2014-06-01T12:49:10Z</time>
      </trkpt>
      <trkpt lat="43.33817" lon="2.5522">
        <ele>264.02</ele>
        <time>2014-06-01T12:49:15Z</time>
      </trkpt>
      <trkpt lat="43.33818" lon="2.55224">
        <ele>264.02</ele>
        <time>2014-06-01T12:49:19Z</time>
      </trkpt>
      <trkpt lat="43.33823" lon="2.55237">
        <ele>264.5</ele>
        <time>2014-06-01T12:49:30Z</time>
      </trkpt>
      <trkpt lat="43.33824" lon="2.55242">
        <ele>264.5</ele>
        <time>2014-06-01T12:49:34Z</time>
      </trkpt>
      <trkpt lat="43.33826" lon="2.55257">
        <ele>265.46</ele>
        <time>2014-06-01T12:49:46Z</time>
      </trkpt>
      <trkpt lat="43.33827" lon="2.55263">
        <ele>265.94</ele>
        <time>2014-06-01T12:49:50Z</time>
      </trkpt>
      <trkpt lat="43.33826" lon="2.55275">
        <ele>266.42</ele>
        <time>2014-06-01T12:49:58Z</time>
      </trkpt>
      <trkpt lat="43.33826" lon="2.55288">
        <ele>266.42</ele>
        <time>2014-06-01T12:50:08Z</time>
      </trkpt>
      <trkpt lat="43.33826" lon="2.55293">
        <ele>267.38</ele>
        <time>2014-06-01T12:50:12Z</time>
      </trkpt>
      <trkpt lat="43.33825" lon="2.55304">
        <ele>268.83</ele>
        <time>2014-06-01T12:50:20Z</time>
      </trkpt>
      <trkpt lat="43.33826" lon="2.5531">
        <ele>268.83</ele>
        <time>2014-06-01T12:50:24Z</time>
      </trkpt>
      <trkpt lat="43.33827" lon="2.55314">
        <ele>268.83</ele>
        <time>2014-06-01T12:50:28Z</time>
      </trkpt>
      <trkpt lat="43.33827" lon="2.55319">
        <ele>268.83</ele>
        <time>2014-06-01T12:50:32Z</time>
      </trkpt>
      <trkpt lat="43.33828" lon="2.55323">
        <ele>268.83</ele>
        <time>2014-06-01T12:50:35Z</time>
      </trkpt>
      <trkpt lat="43.33835" lon="2.55337">
        <ele>270.75</ele>
        <time>2014-06-01T12:50:46Z</time>
      </trkpt>
      <trkpt lat="43.33835" lon="2.55338">
        <ele>270.75</ele>
        <time>2014-06-01T12:50:48Z</time>
      </trkpt>
      <trkpt lat="43.33838" lon="2.55344">
        <ele>271.23</ele>
        <time>2014-06-01T12:50:53Z</time>
      </trkpt>
      <trkpt lat="43.3385" lon="2.55351">
        <ele>271.71</ele>
        <time>2014-06-01T12:51:04Z</time>
      </trkpt>
      <trkpt lat="43.33862" lon="2.55355">
        <ele>272.67</ele>
        <time>2014-06-01T12:51:16Z</time>
      </trkpt>
      <trkpt lat="43.33873" lon="2.55358">
        <ele>274.11</ele>
        <time>2014-06-01T12:51:28Z</time>
      </trkpt>
      <trkpt lat="43.33875" lon="2.55359">
        <ele>274.11</ele>
        <time>2014-06-01T12:51:30Z</time>
      </trkpt>
      <trkpt lat="43.33887" lon="2.55362">
        <ele>274.11</ele>
        <time>2014-06-01T12:51:42Z</time>
      </trkpt>
      <trkpt lat="43.33888" lon="2.55363">
        <ele>273.63</ele>
        <time>2014-06-01T12:51:44Z</time>
      </trkpt>
      <trkpt lat="43.33901" lon="2.55368">
        <ele>274.11</ele>
        <time>2014-06-01T12:51:57Z</time>
      </trkpt>
      <trkpt lat="43.33906" lon="2.5537">
        <ele>274.11</ele>
        <time>2014-06-01T12:52:11Z</time>
      </trkpt>
      <trkpt lat="43.33917" lon="2.5538">
        <ele>273.63</ele>
        <time>2014-06-01T12:52:25Z</time>
      </trkpt>
      <trkpt lat="43.33922" lon="2.55384">
        <ele>273.15</ele>
        <time>2014-06-01T12:52:30Z</time>
      </trkpt>
      <trkpt lat="43.33922" lon="2.55385">
        <ele>273.63</ele>
        <time>2014-06-01T12:52:31Z</time>
      </trkpt>
      <trkpt lat="43.33928" lon="2.55388">
        <ele>273.15</ele>
        <time>2014-06-01T12:52:37Z</time>
      </trkpt>
      <trkpt lat="43.33935" lon="2.55394">
        <ele>273.15</ele>
        <time>2014-06-01T12:52:51Z</time>
      </trkpt>
      <trkpt lat="43.33935" lon="2.55393">
        <ele>273.15</ele>
        <time>2014-06-01T12:52:55Z</time>
      </trkpt>
      <trkpt lat="43.33944" lon="2.55395">
        <ele>273.63</ele>
        <time>2014-06-01T12:53:10Z</time>
      </trkpt>
      <trkpt lat="43.33949" lon="2.55394">
        <ele>275.07</ele>
        <time>2014-06-01T12:53:29Z</time>
      </trkpt>
      <trkpt lat="43.33948" lon="2.55394">
        <ele>274.59</ele>
        <time>2014-06-01T12:53:47Z</time>
      </trkpt>
      <trkpt lat="43.33946" lon="2.55394">
        <ele>274.11</ele>
        <time>2014-06-01T12:53:58Z</time>
      </trkpt>
      <trkpt lat="43.33946" lon="2.55394">
        <ele>274.59</ele>
        <time>2014-06-01T12:54:11Z</time>
      </trkpt>
      <trkpt lat="43.33945" lon="2.554">
        <ele>273.63</ele>
        <time>2014-06-01T12:54:40Z</time>
      </trkpt>
      <trkpt lat="43.33951" lon="2.55402">
        <ele>273.63</ele>
        <time>2014-06-01T12:55:03Z</time>
      </trkpt>
      <trkpt lat="43.33943" lon="2.55397">
        <ele>272.67</ele>
        <time>2014-06-01T12:55:16Z</time>
      </trkpt>
      <trkpt lat="43.3394" lon="2.55395">
        <ele>272.19</ele>
        <time>2014-06-01T12:55:19Z</time>
      </trkpt>
      <trkpt lat="43.33939" lon="2.55398">
        <ele>271.23</ele>
        <time>2014-06-01T12:55:22Z</time>
      </trkpt>
      <trkpt lat="43.33934" lon="2.55423">
        <ele>272.19</ele>
        <time>2014-06-01T12:55:37Z</time>
      </trkpt>
      <trkpt lat="43.33932" lon="2.55429">
        <ele>272.19</ele>
        <time>2014-06-01T12:55:41Z</time>
      </trkpt>
      <trkpt lat="43.33922" lon="2.5545">
        <ele>273.15</ele>
        <time>2014-06-01T12:55:57Z</time>
      </trkpt>
      <trkpt lat="43.33902" lon="2.5546">
        <ele>274.11</ele>
        <time>2014-06-01T12:56:13Z</time>
      </trkpt>
      <trkpt lat="43.339" lon="2.55461">
        <ele>274.11</ele>
        <time>2014-06-01T12:56:24Z</time>
      </trkpt>
      <trkpt lat="43.33895" lon="2.55481">
        <ele>275.07</ele>
        <time>2014-06-01T12:56:38Z</time>
      </trkpt>
      <trkpt lat="43.33897" lon="2.55492">
        <ele>276.04</ele>
        <time>2014-06-01T12:56:46Z</time>
      </trkpt>
      <trkpt lat="43.33904" lon="2.55507">
        <ele>276.04</ele>
        <time>2014-06-01T12:57:00Z</time>
      </trkpt>
      <trkpt lat="43.33914" lon="2.55522">
        <ele>277</ele>
        <time>2014-06-01T12:57:14Z</time>
      </trkpt>
      <trkpt lat="43.33921" lon="2.55535">
        <ele>277.96</ele>
        <time>2014-06-01T12:57:25Z</time>
      </trkpt>
      <trkpt lat="43.33926" lon="2.5555">
        <ele>278.92</ele>
        <time>2014-06-01T12:57:37Z</time>
      </trkpt>
      <trkpt lat="43.3393" lon="2.55563">
        <ele>279.4</ele>
        <time>2014-06-01T12:57:48Z</time>
      </trkpt>
      <trkpt lat="43.33935" lon="2.55584">
        <ele>279.88</ele>
        <time>2014-06-01T12:58:03Z</time>
      </trkpt>
      <trkpt lat="43.33939" lon="2.55605">
        <ele>282.28</ele>
        <time>2014-06-01T12:58:19Z</time>
      </trkpt>
      <trkpt lat="43.33941" lon="2.5562">
        <ele>283.25</ele>
        <time>2014-06-01T12:58:32Z</time>
      </trkpt>
      <trkpt lat="43.33946" lon="2.55638">
        <ele>285.17</ele>
        <time>2014-06-01T12:58:48Z</time>
      </trkpt>
      <trkpt lat="43.33948" lon="2.55656">
        <ele>285.65</ele>
        <time>2014-06-01T12:59:04Z</time>
      </trkpt>
      <trkpt lat="43.3395" lon="2.55677">
        <ele>286.61</ele>
        <time>2014-06-01T12:59:21Z</time>
      </trkpt>
      <trkpt lat="43.33952" lon="2.5569">
        <ele>285.65</ele>
        <time>2014-06-01T12:59:34Z</time>
      </trkpt>
      <trkpt lat="43.33951" lon="2.55711">
        <ele>285.65</ele>
        <time>2014-06-01T12:59:49Z</time>
      </trkpt>
      <trkpt lat="43.33947" lon="2.5573">
        <ele>285.65</ele>
        <time>2014-06-01T13:00:06Z</time>
      </trkpt>
      <trkpt lat="43.33949" lon="2.55726">
        <ele>285.65</ele>
        <time>2014-06-01T13:00:21Z</time>
      </trkpt>
      <trkpt lat="43.3395" lon="2.5572">
        <ele>285.65</ele>
        <time>2014-06-01T13:00:36Z</time>
      </trkpt>
      <trkpt lat="43.33952" lon="2.55727">
        <ele>285.17</ele>
        <time>2014-06-01T13:00:53Z</time>
      </trkpt>
      <trkpt lat="43.33954" lon="2.5573">
        <ele>286.13</ele>
        <time>2014-06-01T13:01:05Z</time>
      </trkpt>
      <trkpt lat="43.33954" lon="2.55727">
        <ele>286.61</ele>
        <time>2014-06-01T13:01:34Z</time>
      </trkpt>
      <trkpt lat="43.33954" lon="2.55726">
        <ele>286.61</ele>
        <time>2014-06-01T13:02:05Z</time>
      </trkpt>
      <trkpt lat="43.33956" lon="2.55726">
        <ele>286.61</ele>
        <time>2014-06-01T13:02:12Z</time>
      </trkpt>
      <trkpt lat="43.33951" lon="2.55727">
        <ele>285.17</ele>
        <time>2014-06-01T13:02:16Z</time>
      </trkpt>
      <trkpt lat="43.33946" lon="2.55756">
        <ele>285.17</ele>
        <time>2014-06-01T13:02:34Z</time>
      </trkpt>
      <trkpt lat="43.33949" lon="2.55782">
        <ele>284.69</ele>
        <time>2014-06-01T13:02:49Z</time>
      </trkpt>
      <trkpt lat="43.3396" lon="2.55803">
        <ele>284.21</ele>
        <time>2014-06-01T13:03:04Z</time>
      </trkpt>
      <trkpt lat="43.33963" lon="2.55809">
        <ele>283.25</ele>
        <time>2014-06-01T13:03:08Z</time>
      </trkpt>
      <trkpt lat="43.3396" lon="2.55826">
        <ele>284.21</ele>
        <time>2014-06-01T13:03:18Z</time>
      </trkpt>
      <trkpt lat="43.33958" lon="2.55827">
        <ele>284.69</ele>
        <time>2014-06-01T13:03:20Z</time>
      </trkpt>
      <trkpt lat="43.3394" lon="2.55844">
        <ele>286.13</ele>
        <time>2014-06-01T13:03:36Z</time>
      </trkpt>
      <trkpt lat="43.33932" lon="2.55865">
        <ele>287.57</ele>
        <time>2014-06-01T13:03:50Z</time>
      </trkpt>
      <trkpt lat="43.33929" lon="2.5588">
        <ele>288.05</ele>
        <time>2014-06-01T13:03:59Z</time>
      </trkpt>
      <trkpt lat="43.3393" lon="2.55903">
        <ele>289.01</ele>
        <time>2014-06-01T13:04:17Z</time>
      </trkpt>
      <trkpt lat="43.33931" lon="2.55922">
        <ele>290.94</ele>
        <time>2014-06-01T13:04:33Z</time>
      </trkpt>
      <trkpt lat="43.33933" lon="2.55933">
        <ele>292.86</ele>
        <time>2014-06-01T13:04:45Z</time>
      </trkpt>
      <trkpt lat="43.33936" lon="2.5594">
        <ele>292.86</ele>
        <time>2014-06-01T13:04:52Z</time>
      </trkpt>
      <trkpt lat="43.33939" lon="2.55947">
        <ele>293.34</ele>
        <time>2014-06-01T13:04:58Z</time>
      </trkpt>
      <trkpt lat="43.33945" lon="2.55964">
        <ele>295.74</ele>
        <time>2014-06-01T13:05:13Z</time>
      </trkpt>
      <trkpt lat="43.33948" lon="2.55969">
        <ele>295.26</ele>
        <time>2014-06-01T13:05:18Z</time>
      </trkpt>
      <trkpt lat="43.33955" lon="2.5598">
        <ele>295.74</ele>
        <time>2014-06-01T13:05:28Z</time>
      </trkpt>
      <trkpt lat="43.33957" lon="2.55981">
        <ele>296.22</ele>
        <time>2014-06-01T13:05:30Z</time>
      </trkpt>
      <trkpt lat="43.3396" lon="2.55984">
        <ele>296.22</ele>
        <time>2014-06-01T13:05:34Z</time>
      </trkpt>
      <trkpt lat="43.33963" lon="2.55985">
        <ele>296.22</ele>
        <time>2014-06-01T13:05:37Z</time>
      </trkpt>
      <trkpt lat="43.33978" lon="2.55987">
        <ele>298.63</ele>
        <time>2014-06-01T13:05:52Z</time>
      </trkpt>
      <trkpt lat="43.33992" lon="2.5598">
        <ele>298.63</ele>
        <time>2014-06-01T13:06:09Z</time>
      </trkpt>
      <trkpt lat="43.34006" lon="2.55975">
        <ele>300.55</ele>
        <time>2014-06-01T13:06:23Z</time>
      </trkpt>
      <trkpt lat="43.34022" lon="2.55968">
        <ele>301.03</ele>
        <time>2014-06-01T13:06:39Z</time>
      </trkpt>
      <trkpt lat="43.34034" lon="2.55968">
        <ele>301.99</ele>
        <time>2014-06-01T13:06:55Z</time>
      </trkpt>
      <trkpt lat="43.34047" lon="2.55971">
        <ele>303.91</ele>
        <time>2014-06-01T13:07:10Z</time>
      </trkpt>
      <trkpt lat="43.34048" lon="2.55973">
        <ele>302.47</ele>
        <time>2014-06-01T13:07:26Z</time>
      </trkpt>
      <trkpt lat="43.34049" lon="2.55973">
        <ele>301.03</ele>
        <time>2014-06-01T13:07:46Z</time>
      </trkpt>
      <trkpt lat="43.34052" lon="2.55972">
        <ele>301.99</ele>
        <time>2014-06-01T13:08:22Z</time>
      </trkpt>
      <trkpt lat="43.34045" lon="2.55978">
        <ele>301.51</ele>
        <time>2014-06-01T13:08:58Z</time>
      </trkpt>
      <trkpt lat="43.34047" lon="2.55971">
        <ele>303.43</ele>
        <time>2014-06-01T13:09:19Z</time>
      </trkpt>
      <trkpt lat="43.34043" lon="2.55965">
        <ele>302.95</ele>
        <time>2014-06-01T13:09:34Z</time>
      </trkpt>
      <trkpt lat="43.34043" lon="2.55967">
        <ele>303.43</ele>
        <time>2014-06-01T13:09:42Z</time>
      </trkpt>
      <trkpt lat="43.34049" lon="2.55969">
        <ele>303.43</ele>
        <time>2014-06-01T13:10:02Z</time>
      </trkpt>
      <trkpt lat="43.34049" lon="2.55964">
        <ele>303.43</ele>
        <time>2014-06-01T13:10:21Z</time>
      </trkpt>
      <trkpt lat="43.34046" lon="2.55963">
        <ele>303.91</ele>
        <time>2014-06-01T13:10:40Z</time>
      </trkpt>
      <trkpt lat="43.34043" lon="2.55963">
        <ele>303.91</ele>
        <time>2014-06-01T13:11:02Z</time>
      </trkpt>
      <trkpt lat="43.34042" lon="2.55963">
        <ele>303.91</ele>
        <time>2014-06-01T13:11:19Z</time>
      </trkpt>
      <trkpt lat="43.34039" lon="2.55958">
        <ele>304.88</ele>
        <time>2014-06-01T13:11:48Z</time>
      </trkpt>
      <trkpt lat="43.34073" lon="2.55974">
        <ele>306.32</ele>
        <time>2014-06-01T13:12:08Z</time>
      </trkpt>
      <trkpt lat="43.34093" lon="2.55975">
        <ele>308.24</ele>
        <time>2014-06-01T13:12:23Z</time>
      </trkpt>
      <trkpt lat="43.34099" lon="2.55972">
        <ele>308.24</ele>
        <time>2014-06-01T13:12:27Z</time>
      </trkpt>
      <trkpt lat="43.34118" lon="2.55959">
        <ele>309.2</ele>
        <time>2014-06-01T13:12:44Z</time>
      </trkpt>
      <trkpt lat="43.34119" lon="2.55958">
        <ele>309.2</ele>
        <time>2014-06-01T13:12:48Z</time>
      </trkpt>
      <trkpt lat="43.34126" lon="2.55951">
        <ele>309.2</ele>
        <time>2014-06-01T13:12:56Z</time>
      </trkpt>
      <trkpt lat="43.34131" lon="2.55943">
        <ele>308.72</ele>
        <time>2014-06-01T13:13:05Z</time>
      </trkpt>
      <trkpt lat="43.34142" lon="2.55947">
        <ele>309.2</ele>
        <time>2014-06-01T13:13:19Z</time>
      </trkpt>
      <trkpt lat="43.34147" lon="2.55964">
        <ele>310.16</ele>
        <time>2014-06-01T13:13:34Z</time>
      </trkpt>
      <trkpt lat="43.34149" lon="2.55987">
        <ele>311.6</ele>
        <time>2014-06-01T13:13:51Z</time>
      </trkpt>
      <trkpt lat="43.34152" lon="2.56004">
        <ele>311.12</ele>
        <time>2014-06-01T13:14:08Z</time>
      </trkpt>
      <trkpt lat="43.34146" lon="2.56015">
        <ele>312.57</ele>
        <time>2014-06-01T13:14:25Z</time>
      </trkpt>
      <trkpt lat="43.34144" lon="2.56016">
        <ele>313.05</ele>
        <time>2014-06-01T13:14:44Z</time>
      </trkpt>
      <trkpt lat="43.34143" lon="2.56019">
        <ele>313.53</ele>
        <time>2014-06-01T13:14:53Z</time>
      </trkpt>
      <trkpt lat="43.34139" lon="2.56025">
        <ele>313.05</ele>
        <time>2014-06-01T13:14:58Z</time>
      </trkpt>
      <trkpt lat="43.34131" lon="2.56046">
        <ele>313.53</ele>
        <time>2014-06-01T13:15:16Z</time>
      </trkpt>
      <trkpt lat="43.34126" lon="2.5606">
        <ele>316.89</ele>
        <time>2014-06-01T13:15:30Z</time>
      </trkpt>
      <trkpt lat="43.34119" lon="2.56078">
        <ele>317.37</ele>
        <time>2014-06-01T13:15:45Z</time>
      </trkpt>
      <trkpt lat="43.34119" lon="2.561">
        <ele>318.81</ele>
        <time>2014-06-01T13:16:04Z</time>
      </trkpt>
      <trkpt lat="43.34124" lon="2.56101">
        <ele>319.78</ele>
        <time>2014-06-01T13:16:09Z</time>
      </trkpt>
      <trkpt lat="43.34137" lon="2.56095">
        <ele>320.74</ele>
        <time>2014-06-01T13:16:25Z</time>
      </trkpt>
      <trkpt lat="43.34157" lon="2.56092">
        <ele>323.14</ele>
        <time>2014-06-01T13:16:43Z</time>
      </trkpt>
      <trkpt lat="43.34174" lon="2.56094">
        <ele>324.1</ele>
        <time>2014-06-01T13:16:59Z</time>
      </trkpt>
      <trkpt lat="43.34191" lon="2.56097">
        <ele>324.1</ele>
        <time>2014-06-01T13:17:16Z</time>
      </trkpt>
      <trkpt lat="43.34195" lon="2.56094">
        <ele>325.54</ele>
        <time>2014-06-01T13:17:28Z</time>
      </trkpt>
      <trkpt lat="43.34196" lon="2.5609">
        <ele>327.47</ele>
        <time>2014-06-01T13:17:45Z</time>
      </trkpt>
      <trkpt lat="43.34195" lon="2.56094">
        <ele>326.5</ele>
        <time>2014-06-01T13:18:01Z</time>
      </trkpt>
      <trkpt lat="43.34194" lon="2.56094">
        <ele>325.54</ele>
        <time>2014-06-01T13:18:29Z</time>
      </trkpt>
      <trkpt lat="43.34192" lon="2.56096">
        <ele>326.5</ele>
        <time>2014-06-01T13:18:41Z</time>
      </trkpt>
      <trkpt lat="43.34191" lon="2.56098">
        <ele>326.99</ele>
        <time>2014-06-01T13:18:44Z</time>
      </trkpt>
      <trkpt lat="43.34191" lon="2.56104">
        <ele>325.54</ele>
        <time>2014-06-01T13:18:47Z</time>
      </trkpt>
      <trkpt lat="43.34207" lon="2.56118">
        <ele>326.02</ele>
        <time>2014-06-01T13:19:07Z</time>
      </trkpt>
      <trkpt lat="43.34211" lon="2.56124">
        <ele>327.47</ele>
        <time>2014-06-01T13:19:25Z</time>
      </trkpt>
      <trkpt lat="43.34209" lon="2.56125">
        <ele>326.02</ele>
        <time>2014-06-01T13:19:55Z</time>
      </trkpt>
      <trkpt lat="43.34204" lon="2.56126">
        <ele>326.5</ele>
        <time>2014-06-01T13:20:27Z</time>
      </trkpt>
      <trkpt lat="43.34203" lon="2.56119">
        <ele>326.02</ele>
        <time>2014-06-01T13:20:49Z</time>
      </trkpt>
      <trkpt lat="43.34202" lon="2.56113">
        <ele>326.02</ele>
        <time>2014-06-01T13:20:52Z</time>
      </trkpt>
      <trkpt lat="43.34194" lon="2.56098">
        <ele>325.06</ele>
        <time>2014-06-01T13:21:06Z</time>
      </trkpt>
      <trkpt lat="43.34196" lon="2.56089">
        <ele>327.95</ele>
        <time>2014-06-01T13:21:20Z</time>
      </trkpt>
      <trkpt lat="43.34199" lon="2.56091">
        <ele>329.87</ele>
        <time>2014-06-01T13:21:26Z</time>
      </trkpt>
      <trkpt lat="43.34202" lon="2.56083">
        <ele>330.83</ele>
        <time>2014-06-01T13:21:39Z</time>
      </trkpt>
      <trkpt lat="43.34207" lon="2.56083">
        <ele>333.23</ele>
        <time>2014-06-01T13:21:54Z</time>
      </trkpt>
      <trkpt lat="43.34212" lon="2.56083">
        <ele>334.68</ele>
        <time>2014-06-01T13:22:08Z</time>
      </trkpt>
      <trkpt lat="43.34222" lon="2.56083">
        <ele>335.64</ele>
        <time>2014-06-01T13:22:27Z</time>
      </trkpt>
      <trkpt lat="43.34226" lon="2.56082">
        <ele>338.52</ele>
        <time>2014-06-01T13:22:39Z</time>
      </trkpt>
      <trkpt lat="43.34231" lon="2.5608">
        <ele>341.89</ele>
        <time>2014-06-01T13:22:51Z</time>
      </trkpt>
      <trkpt lat="43.34229" lon="2.56082">
        <ele>341.41</ele>
        <time>2014-06-01T13:23:04Z</time>
      </trkpt>
      <trkpt lat="43.34229" lon="2.56072">
        <ele>342.37</ele>
        <time>2014-06-01T13:23:20Z</time>
      </trkpt>
      <trkpt lat="43.34229" lon="2.56057">
        <ele>341.89</ele>
        <time>2014-06-01T13:23:34Z</time>
      </trkpt>
      <trkpt lat="43.3423" lon="2.56041">
        <ele>342.37</ele>
        <time>2014-06-01T13:23:48Z</time>
      </trkpt>
      <trkpt lat="43.34228" lon="2.56019">
        <ele>340.44</ele>
        <time>2014-06-01T13:24:06Z</time>
      </trkpt>
      <trkpt lat="43.34227" lon="2.56009">
        <ele>343.33</ele>
        <time>2014-06-01T13:24:22Z</time>
      </trkpt>
      <trkpt lat="43.34226" lon="2.56001">
        <ele>343.81</ele>
        <time>2014-06-01T13:24:29Z</time>
      </trkpt>
      <trkpt lat="43.34223" lon="2.55983">
        <ele>346.69</ele>
        <time>2014-06-01T13:24:46Z</time>
      </trkpt>
      <trkpt lat="43.34223" lon="2.55975">
        <ele>347.17</ele>
        <time>2014-06-01T13:24:55Z</time>
      </trkpt>
      <trkpt lat="43.34225" lon="2.5596">
        <ele>350.06</ele>
        <time>2014-06-01T13:25:08Z</time>
      </trkpt>
      <trkpt lat="43.34225" lon="2.55959">
        <ele>348.13</ele>
        <time>2014-06-01T13:25:20Z</time>
      </trkpt>
      <trkpt lat="43.34226" lon="2.55954">
        <ele>349.1</ele>
        <time>2014-06-01T13:25:35Z</time>
      </trkpt>
      <trkpt lat="43.34235" lon="2.55944">
        <ele>351.5</ele>
        <time>2014-06-01T13:25:49Z</time>
      </trkpt>
      <trkpt lat="43.34239" lon="2.55934">
        <ele>352.94</ele>
        <time>2014-06-01T13:26:00Z</time>
      </trkpt>
      <trkpt lat="43.34247" lon="2.55923">
        <ele>354.86</ele>
        <time>2014-06-01T13:26:14Z</time>
      </trkpt>
      <trkpt lat="43.34252" lon="2.55911">
        <ele>355.83</ele>
        <time>2014-06-01T13:26:28Z</time>
      </trkpt>
      <trkpt lat="43.34254" lon="2.55903">
        <ele>356.31</ele>
        <time>2014-06-01T13:26:41Z</time>
      </trkpt>
      <trkpt lat="43.34258" lon="2.55894">
        <ele>357.75</ele>
        <time>2014-06-01T13:26:58Z</time>
      </trkpt>
      <trkpt lat="43.34262" lon="2.55884">
        <ele>359.67</ele>
        <time>2014-06-01T13:27:11Z</time>
      </trkpt>
      <trkpt lat="43.34265" lon="2.55879">
        <ele>360.15</ele>
        <time>2014-06-01T13:27:16Z</time>
      </trkpt>
      <trkpt lat="43.34269" lon="2.55872">
        <ele>362.55</ele>
        <time>2014-06-01T13:27:29Z</time>
      </trkpt>
      <trkpt lat="43.34272" lon="2.55864">
        <ele>363.52</ele>
        <time>2014-06-01T13:27:41Z</time>
      </trkpt>
      <trkpt lat="43.34278" lon="2.55861">
        <ele>365.44</ele>
        <time>2014-06-01T13:27:53Z</time>
      </trkpt>
      <trkpt lat="43.34277" lon="2.55859">
        <ele>366.4</ele>
        <time>2014-06-01T13:28:06Z</time>
      </trkpt>
      <trkpt lat="43.3428" lon="2.55854">
        <ele>366.88</ele>
        <time>2014-06-01T13:28:21Z</time>
      </trkpt>
      <trkpt lat="43.34286" lon="2.55845">
        <ele>369.76</ele>
        <time>2014-06-01T13:28:38Z</time>
      </trkpt>
      <trkpt lat="43.3429" lon="2.55838">
        <ele>370.73</ele>
        <time>2014-06-01T13:28:53Z</time>
      </trkpt>
      <trkpt lat="43.34297" lon="2.55829">
        <ele>373.13</ele>
        <time>2014-06-01T13:29:08Z</time>
      </trkpt>
      <trkpt lat="43.343" lon="2.55817">
        <ele>375.05</ele>
        <time>2014-06-01T13:29:22Z</time>
      </trkpt>
      <trkpt lat="43.34306" lon="2.5581">
        <ele>375.53</ele>
        <time>2014-06-01T13:29:34Z</time>
      </trkpt>
      <trkpt lat="43.34315" lon="2.55811">
        <ele>377.45</ele>
        <time>2014-06-01T13:29:48Z</time>
      </trkpt>
      <trkpt lat="43.34325" lon="2.55815">
        <ele>378.9</ele>
        <time>2014-06-01T13:30:03Z</time>
      </trkpt>
      <trkpt lat="43.3433" lon="2.5582">
        <ele>379.86</ele>
        <time>2014-06-01T13:30:20Z</time>
      </trkpt>
      <trkpt lat="43.34342" lon="2.55822">
        <ele>382.26</ele>
        <time>2014-06-01T13:30:37Z</time>
      </trkpt>
      <trkpt lat="43.34344" lon="2.55824">
        <ele>383.22</ele>
        <time>2014-06-01T13:30:40Z</time>
      </trkpt>
      <trkpt lat="43.34352" lon="2.55824">
        <ele>385.63</ele>
        <time>2014-06-01T13:30:54Z</time>
      </trkpt>
      <trkpt lat="43.34361" lon="2.55826">
        <ele>386.11</ele>
        <time>2014-06-01T13:31:10Z</time>
      </trkpt>
      <trkpt lat="43.34367" lon="2.55828">
        <ele>386.11</ele>
        <time>2014-06-01T13:31:25Z</time>
      </trkpt>
      <trkpt lat="43.34372" lon="2.55832">
        <ele>387.07</ele>
        <time>2014-06-01T13:31:39Z</time>
      </trkpt>
      <trkpt lat="43.34374" lon="2.55836">
        <ele>387.07</ele>
        <time>2014-06-01T13:31:54Z</time>
      </trkpt>
      <trkpt lat="43.34371" lon="2.55834">
        <ele>384.66</ele>
        <time>2014-06-01T13:32:15Z</time>
      </trkpt>
      <trkpt lat="43.3437" lon="2.55835">
        <ele>384.66</ele>
        <time>2014-06-01T13:32:33Z</time>
      </trkpt>
      <trkpt lat="43.34365" lon="2.55832">
        <ele>383.22</ele>
        <time>2014-06-01T13:32:52Z</time>
      </trkpt>
      <trkpt lat="43.34364" lon="2.5583">
        <ele>383.22</ele>
        <time>2014-06-01T13:33:10Z</time>
      </trkpt>
      <trkpt lat="43.34366" lon="2.55832">
        <ele>383.22</ele>
        <time>2014-06-01T13:33:27Z</time>
      </trkpt>
      <trkpt lat="43.34368" lon="2.55835">
        <ele>383.22</ele>
        <time>2014-06-01T13:33:46Z</time>
      </trkpt>
      <trkpt lat="43.34367" lon="2.55837">
        <ele>383.22</ele>
        <time>2014-06-01T13:34:05Z</time>
      </trkpt>
      <trkpt lat="43.34366" lon="2.55835">
        <ele>382.74</ele>
        <time>2014-06-01T13:34:19Z</time>
      </trkpt>
      <trkpt lat="43.34366" lon="2.55837">
        <ele>382.74</ele>
        <time>2014-06-01T13:34:36Z</time>
      </trkpt>
      <trkpt lat="43.34365" lon="2.55832">
        <ele>382.26</ele>
        <time>2014-06-01T13:34:59Z</time>
      </trkpt>
      <trkpt lat="43.34371" lon="2.55833">
        <ele>383.7</ele>
        <time>2014-06-01T13:35:13Z</time>
      </trkpt>
      <trkpt lat="43.34373" lon="2.55834">
        <ele>383.7</ele>
        <time>2014-06-01T13:35:30Z</time>
      </trkpt>
      <trkpt lat="43.34374" lon="2.55836">
        <ele>383.22</ele>
        <time>2014-06-01T13:35:49Z</time>
      </trkpt>
      <trkpt lat="43.34373" lon="2.55832">
        <ele>383.22</ele>
        <time>2014-06-01T13:36:08Z</time>
      </trkpt>
      <trkpt lat="43.34375" lon="2.55836">
        <ele>382.74</ele>
        <time>2014-06-01T13:36:40Z</time>
      </trkpt>
      <trkpt lat="43.34369" lon="2.55834">
        <ele>383.7</ele>
        <time>2014-06-01T13:37:00Z</time>
      </trkpt>
      <trkpt lat="43.34367" lon="2.55831">
        <ele>382.26</ele>
        <time>2014-06-01T13:37:20Z</time>
      </trkpt>
      <trkpt lat="43.34369" lon="2.55835">
        <ele>383.22</ele>
        <time>2014-06-01T13:37:49Z</time>
      </trkpt>
      <trkpt lat="43.34368" lon="2.55834">
        <ele>383.7</ele>
        <time>2014-06-01T13:38:22Z</time>
      </trkpt>
      <trkpt lat="43.34369" lon="2.55835">
        <ele>382.26</ele>
        <time>2014-06-01T13:38:25Z</time>
      </trkpt>
      <trkpt lat="43.34369" lon="2.55837">
        <ele>382.26</ele>
        <time>2014-06-01T13:38:57Z</time>
      </trkpt>
      <trkpt lat="43.34369" lon="2.55835">
        <ele>382.26</ele>
        <time>2014-06-01T13:39:24Z</time>
      </trkpt>
      <trkpt lat="43.3437" lon="2.55832">
        <ele>382.74</ele>
        <time>2014-06-01T13:39:42Z</time>
      </trkpt>
      <trkpt lat="43.34374" lon="2.5583">
        <ele>383.22</ele>
        <time>2014-06-01T13:39:58Z</time>
      </trkpt>
      <trkpt lat="43.34376" lon="2.55832">
        <ele>384.18</ele>
        <time>2014-06-01T13:40:01Z</time>
      </trkpt>
      <trkpt lat="43.34384" lon="2.55835">
        <ele>384.66</ele>
        <time>2014-06-01T13:40:08Z</time>
      </trkpt>
      <trkpt lat="43.34398" lon="2.5584">
        <ele>386.59</ele>
        <time>2014-06-01T13:40:22Z</time>
      </trkpt>
      <trkpt lat="43.34403" lon="2.55842">
        <ele>388.99</ele>
        <time>2014-06-01T13:40:27Z</time>
      </trkpt>
      <trkpt lat="43.34407" lon="2.55846">
        <ele>390.91</ele>
        <time>2014-06-01T13:40:34Z</time>
      </trkpt>
      <trkpt lat="43.34415" lon="2.5585">
        <ele>390.43</ele>
        <time>2014-06-01T13:40:46Z</time>
      </trkpt>
      <trkpt lat="43.34422" lon="2.55858">
        <ele>392.36</ele>
        <time>2014-06-01T13:40:59Z</time>
      </trkpt>
      <trkpt lat="43.34428" lon="2.55864">
        <ele>394.76</ele>
        <time>2014-06-01T13:41:12Z</time>
      </trkpt>
      <trkpt lat="43.34433" lon="2.55869">
        <ele>396.2</ele>
        <time>2014-06-01T13:41:26Z</time>
      </trkpt>
      <trkpt lat="43.34432" lon="2.5587">
        <ele>396.68</ele>
        <time>2014-06-01T13:41:47Z</time>
      </trkpt>
      <trkpt lat="43.34436" lon="2.55878">
        <ele>398.6</ele>
        <time>2014-06-01T13:42:03Z</time>
      </trkpt>
      <trkpt lat="43.34436" lon="2.55879">
        <ele>399.57</ele>
        <time>2014-06-01T13:42:05Z</time>
      </trkpt>
      <trkpt lat="43.34444" lon="2.55885">
        <ele>401.97</ele>
        <time>2014-06-01T13:42:20Z</time>
      </trkpt>
      <trkpt lat="43.34449" lon="2.55896">
        <ele>403.89</ele>
        <time>2014-06-01T13:42:35Z</time>
      </trkpt>
      <trkpt lat="43.34452" lon="2.55899">
        <ele>404.37</ele>
        <time>2014-06-01T13:42:49Z</time>
      </trkpt>
      <trkpt lat="43.34457" lon="2.55906">
        <ele>405.81</ele>
        <time>2014-06-01T13:43:09Z</time>
      </trkpt>
      <trkpt lat="43.34459" lon="2.55914">
        <ele>408.22</ele>
        <time>2014-06-01T13:43:24Z</time>
      </trkpt>
      <trkpt lat="43.34464" lon="2.55921">
        <ele>409.18</ele>
        <time>2014-06-01T13:43:39Z</time>
      </trkpt>
      <trkpt lat="43.34462" lon="2.55923">
        <ele>408.22</ele>
        <time>2014-06-01T13:43:57Z</time>
      </trkpt>
      <trkpt lat="43.34465" lon="2.55923">
        <ele>408.7</ele>
        <time>2014-06-01T13:44:20Z</time>
      </trkpt>
      <trkpt lat="43.34471" lon="2.55928">
        <ele>408.7</ele>
        <time>2014-06-01T13:44:35Z</time>
      </trkpt>
      <trkpt lat="43.34471" lon="2.55935">
        <ele>407.74</ele>
        <time>2014-06-01T13:44:52Z</time>
      </trkpt>
      <trkpt lat="43.34476" lon="2.55943">
        <ele>408.7</ele>
        <time>2014-06-01T13:45:11Z</time>
      </trkpt>
      <trkpt lat="43.34479" lon="2.55946">
        <ele>409.18</ele>
        <time>2014-06-01T13:45:15Z</time>
      </trkpt>
      <trkpt lat="43.34483" lon="2.55956">
        <ele>410.62</ele>
        <time>2014-06-01T13:45:30Z</time>
      </trkpt>
      <trkpt lat="43.34483" lon="2.55957">
        <ele>410.62</ele>
        <time>2014-06-01T13:45:31Z</time>
      </trkpt>
      <trkpt lat="43.34482" lon="2.55965">
        <ele>412.54</ele>
        <time>2014-06-01T13:45:45Z</time>
      </trkpt>
      <trkpt lat="43.34475" lon="2.55964">
        <ele>413.02</ele>
        <time>2014-06-01T13:45:58Z</time>
      </trkpt>
      <trkpt lat="43.3448" lon="2.55963">
        <ele>412.54</ele>
        <time>2014-06-01T13:46:11Z</time>
      </trkpt>
      <trkpt lat="43.34483" lon="2.55963">
        <ele>411.58</ele>
        <time>2014-06-01T13:46:20Z</time>
      </trkpt>
      <trkpt lat="43.34485" lon="2.55963">
        <ele>411.58</ele>
        <time>2014-06-01T13:46:23Z</time>
      </trkpt>
      <trkpt lat="43.34489" lon="2.55967">
        <ele>411.1</ele>
        <time>2014-06-01T13:46:36Z</time>
      </trkpt>
      <trkpt lat="43.3449" lon="2.55973">
        <ele>412.06</ele>
        <time>2014-06-01T13:46:50Z</time>
      </trkpt>
      <trkpt lat="43.34492" lon="2.55974">
        <ele>412.06</ele>
        <time>2014-06-01T13:47:05Z</time>
      </trkpt>
      <trkpt lat="43.34493" lon="2.55975">
        <ele>413.02</ele>
        <time>2014-06-01T13:47:26Z</time>
      </trkpt>
      <trkpt lat="43.34495" lon="2.55981">
        <ele>413.5</ele>
        <time>2014-06-01T13:47:38Z</time>
      </trkpt>
      <trkpt lat="43.34494" lon="2.55987">
        <ele>412.54</ele>
        <time>2014-06-01T13:47:50Z</time>
      </trkpt>
      <trkpt lat="43.34497" lon="2.55984">
        <ele>412.54</ele>
        <time>2014-06-01T13:48:03Z</time>
      </trkpt>
      <trkpt lat="43.34501" lon="2.5599">
        <ele>412.06</ele>
        <time>2014-06-01T13:48:17Z</time>
      </trkpt>
      <trkpt lat="43.34503" lon="2.55989">
        <ele>412.06</ele>
        <time>2014-06-01T13:48:41Z</time>
      </trkpt>
      <trkpt lat="43.34508" lon="2.56">
        <ele>411.58</ele>
        <time>2014-06-01T13:48:54Z</time>
      </trkpt>
      <trkpt lat="43.34513" lon="2.56012">
        <ele>412.06</ele>
        <time>2014-06-01T13:49:07Z</time>
      </trkpt>
      <trkpt lat="43.34516" lon="2.56018">
        <ele>413.02</ele>
        <time>2014-06-01T13:49:19Z</time>
      </trkpt>
      <trkpt lat="43.34526" lon="2.56024">
        <ele>413.98</ele>
        <time>2014-06-01T13:49:34Z</time>
      </trkpt>
      <trkpt lat="43.34531" lon="2.56029">
        <ele>413.5</ele>
        <time>2014-06-01T13:49:50Z</time>
      </trkpt>
      <trkpt lat="43.34528" lon="2.5603">
        <ele>413.5</ele>
        <time>2014-06-01T13:50:14Z</time>
      </trkpt>
      <trkpt lat="43.34528" lon="2.56033">
        <ele>414.47</ele>
        <time>2014-06-01T13:50:27Z</time>
      </trkpt>
      <trkpt lat="43.34527" lon="2.56033">
        <ele>413.98</ele>
        <time>2014-06-01T13:50:51Z</time>
      </trkpt>
      <trkpt lat="43.34527" lon="2.56033">
        <ele>412.54</ele>
        <time>2014-06-01T13:51:16Z</time>
      </trkpt>
      <trkpt lat="43.34528" lon="2.56033">
        <ele>413.02</ele>
        <time>2014-06-01T13:51:34Z</time>
      </trkpt>
      <trkpt lat="43.34526" lon="2.56031">
        <ele>413.98</ele>
        <time>2014-06-01T13:51:39Z</time>
      </trkpt>
      <trkpt lat="43.34515" lon="2.56032">
        <ele>414.47</ele>
        <time>2014-06-01T13:51:50Z</time>
      </trkpt>
      <trkpt lat="43.34511" lon="2.56037">
        <ele>414.95</ele>
        <time>2014-06-01T13:52:06Z</time>
      </trkpt>
      <trkpt lat="43.3451" lon="2.56044">
        <ele>413.98</ele>
        <time>2014-06-01T13:52:19Z</time>
      </trkpt>
      <trkpt lat="43.34509" lon="2.5604">
        <ele>414.95</ele>
        <time>2014-06-01T13:52:34Z</time>
      </trkpt>
      <trkpt lat="43.34512" lon="2.56019">
        <ele>413.98</ele>
        <time>2014-06-01T13:52:53Z</time>
      </trkpt>
      <trkpt lat="43.34512" lon="2.56012">
        <ele>413.5</ele>
        <time>2014-06-01T13:53:07Z</time>
      </trkpt>
      <trkpt lat="43.34508" lon="2.56003">
        <ele>412.06</ele>
        <time>2014-06-01T13:53:23Z</time>
      </trkpt>
      <trkpt lat="43.34504" lon="2.56">
        <ele>412.54</ele>
        <time>2014-06-01T13:53:38Z</time>
      </trkpt>
      <trkpt lat="43.345" lon="2.55992">
        <ele>412.06</ele>
        <time>2014-06-01T13:53:54Z</time>
      </trkpt>
      <trkpt lat="43.34497" lon="2.55988">
        <ele>413.5</ele>
        <time>2014-06-01T13:54:10Z</time>
      </trkpt>
      <trkpt lat="43.34495" lon="2.55984">
        <ele>413.98</ele>
        <time>2014-06-01T13:54:15Z</time>
      </trkpt>
      <trkpt lat="43.34493" lon="2.55978">
        <ele>413.5</ele>
        <time>2014-06-01T13:54:20Z</time>
      </trkpt>
      <trkpt lat="43.34486" lon="2.55962">
        <ele>412.06</ele>
        <time>2014-06-01T13:54:38Z</time>
      </trkpt>
      <trkpt lat="43.34482" lon="2.55954">
        <ele>410.62</ele>
        <time>2014-06-01T13:54:52Z</time>
      </trkpt>
      <trkpt lat="43.34485" lon="2.55956">
        <ele>412.06</ele>
        <time>2014-06-01T13:55:00Z</time>
      </trkpt>
      <trkpt lat="43.34493" lon="2.55974">
        <ele>413.98</ele>
        <time>2014-06-01T13:55:16Z</time>
      </trkpt>
      <trkpt lat="43.345" lon="2.55988">
        <ele>413.5</ele>
        <time>2014-06-01T13:55:30Z</time>
      </trkpt>
      <trkpt lat="43.34503" lon="2.55991">
        <ele>413.02</ele>
        <time>2014-06-01T13:55:34Z</time>
      </trkpt>
      <trkpt lat="43.34508" lon="2.55997">
        <ele>413.02</ele>
        <time>2014-06-01T13:55:41Z</time>
      </trkpt>
      <trkpt lat="43.3451" lon="2.56">
        <ele>414.47</ele>
        <time>2014-06-01T13:55:45Z</time>
      </trkpt>
      <trkpt lat="43.34514" lon="2.56009">
        <ele>414.47</ele>
        <time>2014-06-01T13:55:54Z</time>
      </trkpt>
      <trkpt lat="43.34516" lon="2.56017">
        <ele>413.98</ele>
        <time>2014-06-01T13:56:12Z</time>
      </trkpt>
      <trkpt lat="43.3452" lon="2.5602">
        <ele>413.98</ele>
        <time>2014-06-01T13:56:17Z</time>
      </trkpt>
      <trkpt lat="43.34531" lon="2.56026">
        <ele>414.95</ele>
        <time>2014-06-01T13:56:31Z</time>
      </trkpt>
      <trkpt lat="43.34538" lon="2.56029">
        <ele>415.43</ele>
        <time>2014-06-01T13:56:47Z</time>
      </trkpt>
      <trkpt lat="43.34548" lon="2.56022">
        <ele>414.47</ele>
        <time>2014-06-01T13:57:02Z</time>
      </trkpt>
      <trkpt lat="43.34557" lon="2.56019">
        <ele>413.98</ele>
        <time>2014-06-01T13:57:16Z</time>
      </trkpt>
      <trkpt lat="43.34562" lon="2.56031">
        <ele>414.95</ele>
        <time>2014-06-01T13:57:30Z</time>
      </trkpt>
      <trkpt lat="43.3456" lon="2.56032">
        <ele>414.47</ele>
        <time>2014-06-01T13:57:56Z</time>
      </trkpt>
      <trkpt lat="43.34562" lon="2.56026">
        <ele>414.95</ele>
        <time>2014-06-01T13:58:14Z</time>
      </trkpt>
      <trkpt lat="43.34562" lon="2.56029">
        <ele>414.95</ele>
        <time>2014-06-01T13:58:34Z</time>
      </trkpt>
      <trkpt lat="43.34562" lon="2.56029">
        <ele>414.47</ele>
        <time>2014-06-01T13:58:54Z</time>
      </trkpt>
      <trkpt lat="43.34564" lon="2.56027">
        <ele>414.95</ele>
        <time>2014-06-01T13:59:08Z</time>
      </trkpt>
      <trkpt lat="43.34566" lon="2.56027">
        <ele>417.35</ele>
        <time>2014-06-01T13:59:20Z</time>
      </trkpt>
      <trkpt lat="43.34562" lon="2.5603">
        <ele>415.91</ele>
        <time>2014-06-01T13:59:33Z</time>
      </trkpt>
      <trkpt lat="43.3456" lon="2.5603">
        <ele>414.95</ele>
        <time>2014-06-01T13:59:35Z</time>
      </trkpt>
      <trkpt lat="43.34557" lon="2.56023">
        <ele>413.02</ele>
        <time>2014-06-01T13:59:41Z</time>
      </trkpt>
      <trkpt lat="43.3455" lon="2.56009">
        <ele>413.5</ele>
        <time>2014-06-01T13:59:56Z</time>
      </trkpt>
      <trkpt lat="43.34543" lon="2.55992">
        <ele>413.5</ele>
        <time>2014-06-01T14:00:13Z</time>
      </trkpt>
      <trkpt lat="43.34542" lon="2.55974">
        <ele>413.5</ele>
        <time>2014-06-01T14:00:31Z</time>
      </trkpt>
      <trkpt lat="43.34539" lon="2.55958">
        <ele>413.98</ele>
        <time>2014-06-01T14:00:48Z</time>
      </trkpt>
      <trkpt lat="43.3454" lon="2.55946">
        <ele>415.43</ele>
        <time>2014-06-01T14:01:03Z</time>
      </trkpt>
      <trkpt lat="43.34543" lon="2.55937">
        <ele>415.91</ele>
        <time>2014-06-01T14:01:18Z</time>
      </trkpt>
      <trkpt lat="43.34546" lon="2.55927">
        <ele>417.35</ele>
        <time>2014-06-01T14:01:35Z</time>
      </trkpt>
      <trkpt lat="43.34549" lon="2.55912">
        <ele>418.31</ele>
        <time>2014-06-01T14:01:52Z</time>
      </trkpt>
      <trkpt lat="43.34557" lon="2.55901">
        <ele>419.75</ele>
        <time>2014-06-01T14:02:09Z</time>
      </trkpt>
      <trkpt lat="43.3456" lon="2.559">
        <ele>420.71</ele>
        <time>2014-06-01T14:02:14Z</time>
      </trkpt>
      <trkpt lat="43.34571" lon="2.55895">
        <ele>422.16</ele>
        <time>2014-06-01T14:02:28Z</time>
      </trkpt>
      <trkpt lat="43.34583" lon="2.5589">
        <ele>422.64</ele>
        <time>2014-06-01T14:02:44Z</time>
      </trkpt>
      <trkpt lat="43.34588" lon="2.55886">
        <ele>424.08</ele>
        <time>2014-06-01T14:02:57Z</time>
      </trkpt>
      <trkpt lat="43.34599" lon="2.55882">
        <ele>425.52</ele>
        <time>2014-06-01T14:03:11Z</time>
      </trkpt>
      <trkpt lat="43.34606" lon="2.55877">
        <ele>425.52</ele>
        <time>2014-06-01T14:03:25Z</time>
      </trkpt>
      <trkpt lat="43.34616" lon="2.55873">
        <ele>426.48</ele>
        <time>2014-06-01T14:03:40Z</time>
      </trkpt>
      <trkpt lat="43.34625" lon="2.55867">
        <ele>426.96</ele>
        <time>2014-06-01T14:03:53Z</time>
      </trkpt>
      <trkpt lat="43.3463" lon="2.55864">
        <ele>428.89</ele>
        <time>2014-06-01T14:04:00Z</time>
      </trkpt>
      <trkpt lat="43.34631" lon="2.5586">
        <ele>427.92</ele>
        <time>2014-06-01T14:04:20Z</time>
      </trkpt>
      <trkpt lat="43.3464" lon="2.55859">
        <ele>428.89</ele>
        <time>2014-06-01T14:04:37Z</time>
      </trkpt>
      <trkpt lat="43.34648" lon="2.55854">
        <ele>429.37</ele>
        <time>2014-06-01T14:04:52Z</time>
      </trkpt>
      <trkpt lat="43.34651" lon="2.55858">
        <ele>429.85</ele>
        <time>2014-06-01T14:05:07Z</time>
      </trkpt>
      <trkpt lat="43.34654" lon="2.55859">
        <ele>429.85</ele>
        <time>2014-06-01T14:05:23Z</time>
      </trkpt>
      <trkpt lat="43.34656" lon="2.55857">
        <ele>429.85</ele>
        <time>2014-06-01T14:05:43Z</time>
      </trkpt>
      <trkpt lat="43.34656" lon="2.55857">
        <ele>430.33</ele>
        <time>2014-06-01T14:05:57Z</time>
      </trkpt>
      <trkpt lat="43.34655" lon="2.55857">
        <ele>431.29</ele>
        <time>2014-06-01T14:06:17Z</time>
      </trkpt>
      <trkpt lat="43.34656" lon="2.55858">
        <ele>430.33</ele>
        <time>2014-06-01T14:06:32Z</time>
      </trkpt>
      <trkpt lat="43.34657" lon="2.55852">
        <ele>429.85</ele>
        <time>2014-06-01T14:06:55Z</time>
      </trkpt>
      <trkpt lat="43.3466" lon="2.55853">
        <ele>430.33</ele>
        <time>2014-06-01T14:07:21Z</time>
      </trkpt>
      <trkpt lat="43.34658" lon="2.55855">
        <ele>430.81</ele>
        <time>2014-06-01T14:07:46Z</time>
      </trkpt>
      <trkpt lat="43.34656" lon="2.55856">
        <ele>431.77</ele>
        <time>2014-06-01T14:08:04Z</time>
      </trkpt>
      <trkpt lat="43.34655" lon="2.5586">
        <ele>430.81</ele>
        <time>2014-06-01T14:08:20Z</time>
      </trkpt>
      <trkpt lat="43.3465" lon="2.55858">
        <ele>431.29</ele>
        <time>2014-06-01T14:08:31Z</time>
      </trkpt>
      <trkpt lat="43.34651" lon="2.55852">
        <ele>430.33</ele>
        <time>2014-06-01T14:08:49Z</time>
      </trkpt>
      <trkpt lat="43.34657" lon="2.55851">
        <ele>431.29</ele>
        <time>2014-06-01T14:09:07Z</time>
      </trkpt>
      <trkpt lat="43.34661" lon="2.55847">
        <ele>431.29</ele>
        <time>2014-06-01T14:09:25Z</time>
      </trkpt>
      <trkpt lat="43.3467" lon="2.55844">
        <ele>432.73</ele>
        <time>2014-06-01T14:09:38Z</time>
      </trkpt>
      <trkpt lat="43.34676" lon="2.55838">
        <ele>432.73</ele>
        <time>2014-06-01T14:09:46Z</time>
      </trkpt>
      <trkpt lat="43.34685" lon="2.55828">
        <ele>434.65</ele>
        <time>2014-06-01T14:09:59Z</time>
      </trkpt>
      <trkpt lat="43.34696" lon="2.5582">
        <ele>436.1</ele>
        <time>2014-06-01T14:10:14Z</time>
      </trkpt>
      <trkpt lat="43.34698" lon="2.5582">
        <ele>436.1</ele>
        <time>2014-06-01T14:10:16Z</time>
      </trkpt>
      <trkpt lat="43.34712" lon="2.5582">
        <ele>437.54</ele>
        <time>2014-06-01T14:10:32Z</time>
      </trkpt>
      <trkpt lat="43.34722" lon="2.5583">
        <ele>438.5</ele>
        <time>2014-06-01T14:10:47Z</time>
      </trkpt>
      <trkpt lat="43.3473" lon="2.55836">
        <ele>438.98</ele>
        <time>2014-06-01T14:10:57Z</time>
      </trkpt>
      <trkpt lat="43.34744" lon="2.55846">
        <ele>439.46</ele>
        <time>2014-06-01T14:11:13Z</time>
      </trkpt>
      <trkpt lat="43.34748" lon="2.55845">
        <ele>439.94</ele>
        <time>2014-06-01T14:11:18Z</time>
      </trkpt>
      <trkpt lat="43.34747" lon="2.55825">
        <ele>441.38</ele>
        <time>2014-06-01T14:11:36Z</time>
      </trkpt>
      <trkpt lat="43.34747" lon="2.55818">
        <ele>441.86</ele>
        <time>2014-06-01T14:11:47Z</time>
      </trkpt>
      <trkpt lat="43.34749" lon="2.55811">
        <ele>441.86</ele>
        <time>2014-06-01T14:11:52Z</time>
      </trkpt>
      <trkpt lat="43.34748" lon="2.55787">
        <ele>443.31</ele>
        <time>2014-06-01T14:12:09Z</time>
      </trkpt>
      <trkpt lat="43.34751" lon="2.55767">
        <ele>444.27</ele>
        <time>2014-06-01T14:12:26Z</time>
      </trkpt>
      <trkpt lat="43.34756" lon="2.55751">
        <ele>444.75</ele>
        <time>2014-06-01T14:12:41Z</time>
      </trkpt>
      <trkpt lat="43.34763" lon="2.55738">
        <ele>446.19</ele>
        <time>2014-06-01T14:12:58Z</time>
      </trkpt>
      <trkpt lat="43.34774" lon="2.55723">
        <ele>446.67</ele>
        <time>2014-06-01T14:13:15Z</time>
      </trkpt>
      <trkpt lat="43.34784" lon="2.55713">
        <ele>447.63</ele>
        <time>2014-06-01T14:13:33Z</time>
      </trkpt>
      <trkpt lat="43.34783" lon="2.55714">
        <ele>447.15</ele>
        <time>2014-06-01T14:13:57Z</time>
      </trkpt>
      <trkpt lat="43.34782" lon="2.5572">
        <ele>446.67</ele>
        <time>2014-06-01T14:14:19Z</time>
      </trkpt>
      <trkpt lat="43.34783" lon="2.55719">
        <ele>447.15</ele>
        <time>2014-06-01T14:14:51Z</time>
      </trkpt>
      <trkpt lat="43.34781" lon="2.55715">
        <ele>447.15</ele>
        <time>2014-06-01T14:15:11Z</time>
      </trkpt>
      <trkpt lat="43.34789" lon="2.55705">
        <ele>447.15</ele>
        <time>2014-06-01T14:15:20Z</time>
      </trkpt>
      <trkpt lat="43.34803" lon="2.55689">
        <ele>449.55</ele>
        <time>2014-06-01T14:15:35Z</time>
      </trkpt>
      <trkpt lat="43.34809" lon="2.55683">
        <ele>448.59</ele>
        <time>2014-06-01T14:15:40Z</time>
      </trkpt>
      <trkpt lat="43.34811" lon="2.5568">
        <ele>449.55</ele>
        <time>2014-06-01T14:15:42Z</time>
      </trkpt>
      <trkpt lat="43.34818" lon="2.55665">
        <ele>449.07</ele>
        <time>2014-06-01T14:15:53Z</time>
      </trkpt>
      <trkpt lat="43.34825" lon="2.55654">
        <ele>448.59</ele>
        <time>2014-06-01T14:16:02Z</time>
      </trkpt>
      <trkpt lat="43.34834" lon="2.5563">
        <ele>448.59</ele>
        <time>2014-06-01T14:16:16Z</time>
      </trkpt>
      <trkpt lat="43.34838" lon="2.55614">
        <ele>450.52</ele>
        <time>2014-06-01T14:16:27Z</time>
      </trkpt>
      <trkpt lat="43.34842" lon="2.55607">
        <ele>450.52</ele>
        <time>2014-06-01T14:16:33Z</time>
      </trkpt>
      <trkpt lat="43.34843" lon="2.55604">
        <ele>450.03</ele>
        <time>2014-06-01T14:16:36Z</time>
      </trkpt>
      <trkpt lat="43.34846" lon="2.55602">
        <ele>450.52</ele>
        <time>2014-06-01T14:16:49Z</time>
      </trkpt>
      <trkpt lat="43.3485" lon="2.55607">
        <ele>450.03</ele>
        <time>2014-06-01T14:17:00Z</time>
      </trkpt>
      <trkpt lat="43.34849" lon="2.55606">
        <ele>450.03</ele>
        <time>2014-06-01T14:17:01Z</time>
      </trkpt>
      <trkpt lat="43.34844" lon="2.55594">
        <ele>449.55</ele>
        <time>2014-06-01T14:17:11Z</time>
      </trkpt>
      <trkpt lat="43.34843" lon="2.55591">
        <ele>450.03</ele>
        <time>2014-06-01T14:17:23Z</time>
      </trkpt>
      <trkpt lat="43.34843" lon="2.55593">
        <ele>449.55</ele>
        <time>2014-06-01T14:17:42Z</time>
      </trkpt>
      <trkpt lat="43.34844" lon="2.55593">
        <ele>450.03</ele>
        <time>2014-06-01T14:18:18Z</time>
      </trkpt>
      <trkpt lat="43.34844" lon="2.55592">
        <ele>449.55</ele>
        <time>2014-06-01T14:18:44Z</time>
      </trkpt>
      <trkpt lat="43.34843" lon="2.55593">
        <ele>449.07</ele>
        <time>2014-06-01T14:19:28Z</time>
      </trkpt>
      <trkpt lat="43.34845" lon="2.55589">
        <ele>449.07</ele>
        <time>2014-06-01T14:20:04Z</time>
      </trkpt>
      <trkpt lat="43.34844" lon="2.55589">
        <ele>448.59</ele>
        <time>2014-06-01T14:20:39Z</time>
      </trkpt>
      <trkpt lat="43.34844" lon="2.55591">
        <ele>448.59</ele>
        <time>2014-06-01T14:21:18Z</time>
      </trkpt>
      <trkpt lat="43.34846" lon="2.55595">
        <ele>450.03</ele>
        <time>2014-06-01T14:21:51Z</time>
      </trkpt>
      <trkpt lat="43.34848" lon="2.55598">
        <ele>449.07</ele>
        <time>2014-06-01T14:21:54Z</time>
      </trkpt>
      <trkpt lat="43.34851" lon="2.55602">
        <ele>449.07</ele>
        <time>2014-06-01T14:21:59Z</time>
      </trkpt>
      <trkpt lat="43.34863" lon="2.55604">
        <ele>451.48</ele>
        <time>2014-06-01T14:22:12Z</time>
      </trkpt>
      <trkpt lat="43.34863" lon="2.55604">
        <ele>451.48</ele>
        <time>2014-06-01T14:22:15Z</time>
      </trkpt>
      <trkpt lat="43.34858" lon="2.55601">
        <ele>450.03</ele>
        <time>2014-06-01T14:22:22Z</time>
      </trkpt>
      <trkpt lat="43.34852" lon="2.55597">
        <ele>450.03</ele>
        <time>2014-06-01T14:22:33Z</time>
      </trkpt>
      <trkpt lat="43.34849" lon="2.55589">
        <ele>449.07</ele>
        <time>2014-06-01T14:22:45Z</time>
      </trkpt>
      <trkpt lat="43.34849" lon="2.55586">
        <ele>449.07</ele>
        <time>2014-06-01T14:22:58Z</time>
      </trkpt>
      <trkpt lat="43.34851" lon="2.55581">
        <ele>449.07</ele>
        <time>2014-06-01T14:23:09Z</time>
      </trkpt>
      <trkpt lat="43.34852" lon="2.55577">
        <ele>449.07</ele>
        <time>2014-06-01T14:23:18Z</time>
      </trkpt>
      <trkpt lat="43.34854" lon="2.55568">
        <ele>449.07</ele>
        <time>2014-06-01T14:23:31Z</time>
      </trkpt>
      <trkpt lat="43.34854" lon="2.55566">
        <ele>449.07</ele>
        <time>2014-06-01T14:23:38Z</time>
      </trkpt>
      <trkpt lat="43.34853" lon="2.55562">
        <ele>449.55</ele>
        <time>2014-06-01T14:23:41Z</time>
      </trkpt>
      <trkpt lat="43.34853" lon="2.55558">
        <ele>449.55</ele>
        <time>2014-06-01T14:23:46Z</time>
      </trkpt>
      <trkpt lat="43.34854" lon="2.5555">
        <ele>449.55</ele>
        <time>2014-06-01T14:23:50Z</time>
      </trkpt>
      <trkpt lat="43.34855" lon="2.55543">
        <ele>449.07</ele>
        <time>2014-06-01T14:23:55Z</time>
      </trkpt>
      <trkpt lat="43.34855" lon="2.55539">
        <ele>450.03</ele>
        <time>2014-06-01T14:24:02Z</time>
      </trkpt>
      <trkpt lat="43.34855" lon="2.55533">
        <ele>450.03</ele>
        <time>2014-06-01T14:24:06Z</time>
      </trkpt>
      <trkpt lat="43.34856" lon="2.55528">
        <ele>450.03</ele>
        <time>2014-06-01T14:24:13Z</time>
      </trkpt>
      <trkpt lat="43.34859" lon="2.55515">
        <ele>451.48</ele>
        <time>2014-06-01T14:24:24Z</time>
      </trkpt>
      <trkpt lat="43.3486" lon="2.55509">
        <ele>451.48</ele>
        <time>2014-06-01T14:24:30Z</time>
      </trkpt>
      <trkpt lat="43.3486" lon="2.55504">
        <ele>451.48</ele>
        <time>2014-06-01T14:24:35Z</time>
      </trkpt>
      <trkpt lat="43.34862" lon="2.55498">
        <ele>451.96</ele>
        <time>2014-06-01T14:24:41Z</time>
      </trkpt>
      <trkpt lat="43.34864" lon="2.55483">
        <ele>451.48</ele>
        <time>2014-06-01T14:24:52Z</time>
      </trkpt>
      <trkpt lat="43.34864" lon="2.55479">
        <ele>451</ele>
        <time>2014-06-01T14:24:59Z</time>
      </trkpt>
      <trkpt lat="43.34864" lon="2.55474">
        <ele>451</ele>
        <time>2014-06-01T14:25:04Z</time>
      </trkpt>
      <trkpt lat="43.34864" lon="2.55462">
        <ele>451</ele>
        <time>2014-06-01T14:25:13Z</time>
      </trkpt>
      <trkpt lat="43.34864" lon="2.55454">
        <ele>450.03</ele>
        <time>2014-06-01T14:25:20Z</time>
      </trkpt>
      <trkpt lat="43.34859" lon="2.55444">
        <ele>450.03</ele>
        <time>2014-06-01T14:25:33Z</time>
      </trkpt>
      <trkpt lat="43.34858" lon="2.55442">
        <ele>450.03</ele>
        <time>2014-06-01T14:25:36Z</time>
      </trkpt>
      <trkpt lat="43.34853" lon="2.55433">
        <ele>449.55</ele>
        <time>2014-06-01T14:25:44Z</time>
      </trkpt>
      <trkpt lat="43.34852" lon="2.55427">
        <ele>449.55</ele>
        <time>2014-06-01T14:25:50Z</time>
      </trkpt>
      <trkpt lat="43.3485" lon="2.55423">
        <ele>450.03</ele>
        <time>2014-06-01T14:25:54Z</time>
      </trkpt>
      <trkpt lat="43.34849" lon="2.55409">
        <ele>448.59</ele>
        <time>2014-06-01T14:26:08Z</time>
      </trkpt>
      <trkpt lat="43.34849" lon="2.55389">
        <ele>448.59</ele>
        <time>2014-06-01T14:26:25Z</time>
      </trkpt>
      <trkpt lat="43.34847" lon="2.55373">
        <ele>449.55</ele>
        <time>2014-06-01T14:26:39Z</time>
      </trkpt>
      <trkpt lat="43.34844" lon="2.55353">
        <ele>448.11</ele>
        <time>2014-06-01T14:26:55Z</time>
      </trkpt>
      <trkpt lat="43.34842" lon="2.55344">
        <ele>447.63</ele>
        <time>2014-06-01T14:27:07Z</time>
      </trkpt>
      <trkpt lat="43.34837" lon="2.55336">
        <ele>447.15</ele>
        <time>2014-06-01T14:27:20Z</time>
      </trkpt>
      <trkpt lat="43.3483" lon="2.5533">
        <ele>448.11</ele>
        <time>2014-06-01T14:27:33Z</time>
      </trkpt>
      <trkpt lat="43.3482" lon="2.55323">
        <ele>449.07</ele>
        <time>2014-06-01T14:27:47Z</time>
      </trkpt>
      <trkpt lat="43.34815" lon="2.55325">
        <ele>448.59</ele>
        <time>2014-06-01T14:27:58Z</time>
      </trkpt>
      <trkpt lat="43.34804" lon="2.55321">
        <ele>448.11</ele>
        <time>2014-06-01T14:28:12Z</time>
      </trkpt>
      <trkpt lat="43.34794" lon="2.55312">
        <ele>448.59</ele>
        <time>2014-06-01T14:28:27Z</time>
      </trkpt>
      <trkpt lat="43.34791" lon="2.55308">
        <ele>449.07</ele>
        <time>2014-06-01T14:28:36Z</time>
      </trkpt>
      <trkpt lat="43.34785" lon="2.55305">
        <ele>448.59</ele>
        <time>2014-06-01T14:28:44Z</time>
      </trkpt>
      <trkpt lat="43.34776" lon="2.55296">
        <ele>448.11</ele>
        <time>2014-06-01T14:28:59Z</time>
      </trkpt>
      <trkpt lat="43.34769" lon="2.55286">
        <ele>447.63</ele>
        <time>2014-06-01T14:29:12Z</time>
      </trkpt>
      <trkpt lat="43.34762" lon="2.55274">
        <ele>447.63</ele>
        <time>2014-06-01T14:29:26Z</time>
      </trkpt>
      <trkpt lat="43.34759" lon="2.5527">
        <ele>448.11</ele>
        <time>2014-06-01T14:29:41Z</time>
      </trkpt>
      <trkpt lat="43.34759" lon="2.55267">
        <ele>447.63</ele>
        <time>2014-06-01T14:29:57Z</time>
      </trkpt>
      <trkpt lat="43.34758" lon="2.55269">
        <ele>447.15</ele>
        <time>2014-06-01T14:30:14Z</time>
      </trkpt>
      <trkpt lat="43.34758" lon="2.55266">
        <ele>447.15</ele>
        <time>2014-06-01T14:30:41Z</time>
      </trkpt>
      <trkpt lat="43.34759" lon="2.55266">
        <ele>447.15</ele>
        <time>2014-06-01T14:31:14Z</time>
      </trkpt>
      <trkpt lat="43.34758" lon="2.55266">
        <ele>447.15</ele>
        <time>2014-06-01T14:31:41Z</time>
      </trkpt>
      <trkpt lat="43.34758" lon="2.55264">
        <ele>447.63</ele>
        <time>2014-06-01T14:32:00Z</time>
      </trkpt>
      <trkpt lat="43.34757" lon="2.55263">
        <ele>447.63</ele>
        <time>2014-06-01T14:32:01Z</time>
      </trkpt>
      <trkpt lat="43.34753" lon="2.55256">
        <ele>447.63</ele>
        <time>2014-06-01T14:32:11Z</time>
      </trkpt>
      <trkpt lat="43.34738" lon="2.55238">
        <ele>446.67</ele>
        <time>2014-06-01T14:32:32Z</time>
      </trkpt>
      <trkpt lat="43.34728" lon="2.55235">
        <ele>446.19</ele>
        <time>2014-06-01T14:32:46Z</time>
      </trkpt>
      <trkpt lat="43.34718" lon="2.55232">
        <ele>442.82</ele>
        <time>2014-06-01T14:33:01Z</time>
      </trkpt>
      <trkpt lat="43.34706" lon="2.55228">
        <ele>442.82</ele>
        <time>2014-06-01T14:33:16Z</time>
      </trkpt>
      <trkpt lat="43.34702" lon="2.55227">
        <ele>441.38</ele>
        <time>2014-06-01T14:33:22Z</time>
      </trkpt>
      <trkpt lat="43.34694" lon="2.55228">
        <ele>439.46</ele>
        <time>2014-06-01T14:33:33Z</time>
      </trkpt>
      <trkpt lat="43.34681" lon="2.55225">
        <ele>439.46</ele>
        <time>2014-06-01T14:33:47Z</time>
      </trkpt>
      <trkpt lat="43.34673" lon="2.55224">
        <ele>438.02</ele>
        <time>2014-06-01T14:33:57Z</time>
      </trkpt>
      <trkpt lat="43.34667" lon="2.55223">
        <ele>437.54</ele>
        <time>2014-06-01T14:34:03Z</time>
      </trkpt>
      <trkpt lat="43.34664" lon="2.55221">
        <ele>437.06</ele>
        <time>2014-06-01T14:34:09Z</time>
      </trkpt>
      <trkpt lat="43.34658" lon="2.5522">
        <ele>436.1</ele>
        <time>2014-06-01T14:34:15Z</time>
      </trkpt>
      <trkpt lat="43.34655" lon="2.55219">
        <ele>437.54</ele>
        <time>2014-06-01T14:34:18Z</time>
      </trkpt>
      <trkpt lat="43.34654" lon="2.55218">
        <ele>436.58</ele>
        <time>2014-06-01T14:34:20Z</time>
      </trkpt>
      <trkpt lat="43.3465" lon="2.55214">
        <ele>435.13</ele>
        <time>2014-06-01T14:34:26Z</time>
      </trkpt>
      <trkpt lat="43.34643" lon="2.55208">
        <ele>434.65</ele>
        <time>2014-06-01T14:34:36Z</time>
      </trkpt>
      <trkpt lat="43.34637" lon="2.55204">
        <ele>434.17</ele>
        <time>2014-06-01T14:34:45Z</time>
      </trkpt>
      <trkpt lat="43.34636" lon="2.55203">
        <ele>434.17</ele>
        <time>2014-06-01T14:34:46Z</time>
      </trkpt>
      <trkpt lat="43.34632" lon="2.552">
        <ele>434.17</ele>
        <time>2014-06-01T14:34:51Z</time>
      </trkpt>
      <trkpt lat="43.34622" lon="2.55196">
        <ele>432.25</ele>
        <time>2014-06-01T14:35:03Z</time>
      </trkpt>
      <trkpt lat="43.3462" lon="2.55193">
        <ele>431.77</ele>
        <time>2014-06-01T14:35:07Z</time>
      </trkpt>
      <trkpt lat="43.34615" lon="2.55188">
        <ele>430.81</ele>
        <time>2014-06-01T14:35:13Z</time>
      </trkpt>
      <trkpt lat="43.34607" lon="2.55182">
        <ele>430.33</ele>
        <time>2014-06-01T14:35:23Z</time>
      </trkpt>
      <trkpt lat="43.346" lon="2.55174">
        <ele>428.89</ele>
        <time>2014-06-01T14:35:33Z</time>
      </trkpt>
      <trkpt lat="43.34597" lon="2.55171">
        <ele>429.85</ele>
        <time>2014-06-01T14:35:38Z</time>
      </trkpt>
      <trkpt lat="43.34594" lon="2.55167">
        <ele>429.85</ele>
        <time>2014-06-01T14:35:43Z</time>
      </trkpt>
      <trkpt lat="43.34589" lon="2.55164">
        <ele>429.37</ele>
        <time>2014-06-01T14:35:48Z</time>
      </trkpt>
      <trkpt lat="43.34586" lon="2.5516">
        <ele>428.89</ele>
        <time>2014-06-01T14:35:53Z</time>
      </trkpt>
      <trkpt lat="43.34582" lon="2.55156">
        <ele>429.37</ele>
        <time>2014-06-01T14:35:58Z</time>
      </trkpt>
      <trkpt lat="43.34577" lon="2.55148">
        <ele>427.44</ele>
        <time>2014-06-01T14:36:08Z</time>
      </trkpt>
      <trkpt lat="43.34574" lon="2.55145">
        <ele>427.44</ele>
        <time>2014-06-01T14:36:13Z</time>
      </trkpt>
      <trkpt lat="43.3457" lon="2.55132">
        <ele>426.48</ele>
        <time>2014-06-01T14:36:23Z</time>
      </trkpt>
      <trkpt lat="43.34564" lon="2.55117">
        <ele>426.48</ele>
        <time>2014-06-01T14:36:38Z</time>
      </trkpt>
      <trkpt lat="43.34564" lon="2.55116">
        <ele>426</ele>
        <time>2014-06-01T14:36:39Z</time>
      </trkpt>
      <trkpt lat="43.34563" lon="2.5511">
        <ele>426.96</ele>
        <time>2014-06-01T14:36:43Z</time>
      </trkpt>
      <trkpt lat="43.34562" lon="2.55105">
        <ele>425.52</ele>
        <time>2014-06-01T14:36:47Z</time>
      </trkpt>
      <trkpt lat="43.34557" lon="2.55091">
        <ele>426.96</ele>
        <time>2014-06-01T14:36:58Z</time>
      </trkpt>
      <trkpt lat="43.34556" lon="2.55087">
        <ele>425.52</ele>
        <time>2014-06-01T14:37:01Z</time>
      </trkpt>
      <trkpt lat="43.34555" lon="2.55085">
        <ele>425.52</ele>
        <time>2014-06-01T14:37:02Z</time>
      </trkpt>
      <trkpt lat="43.34552" lon="2.55073">
        <ele>426</ele>
        <time>2014-06-01T14:37:12Z</time>
      </trkpt>
      <trkpt lat="43.34551" lon="2.5507">
        <ele>425.04</ele>
        <time>2014-06-01T14:37:14Z</time>
      </trkpt>
      <trkpt lat="43.34545" lon="2.55054">
        <ele>425.52</ele>
        <time>2014-06-01T14:37:31Z</time>
      </trkpt>
      <trkpt lat="43.34544" lon="2.55047">
        <ele>425.04</ele>
        <time>2014-06-01T14:37:51Z</time>
      </trkpt>
      <trkpt lat="43.34545" lon="2.55045">
        <ele>425.52</ele>
        <time>2014-06-01T14:38:12Z</time>
      </trkpt>
      <trkpt lat="43.34543" lon="2.55042">
        <ele>426</ele>
        <time>2014-06-01T14:38:37Z</time>
      </trkpt>
      <trkpt lat="43.34543" lon="2.55054">
        <ele>424.56</ele>
        <time>2014-06-01T14:39:03Z</time>
      </trkpt>
      <trkpt lat="43.34543" lon="2.55051">
        <ele>425.04</ele>
        <time>2014-06-01T14:39:18Z</time>
      </trkpt>
      <trkpt lat="43.34536" lon="2.5502">
        <ele>425.52</ele>
        <time>2014-06-01T14:39:37Z</time>
      </trkpt>
      <trkpt lat="43.34533" lon="2.55007">
        <ele>426</ele>
        <time>2014-06-01T14:39:44Z</time>
      </trkpt>
      <trkpt lat="43.34518" lon="2.54979">
        <ele>425.04</ele>
        <time>2014-06-01T14:40:01Z</time>
      </trkpt>
      <trkpt lat="43.34503" lon="2.54969">
        <ele>423.12</ele>
        <time>2014-06-01T14:40:15Z</time>
      </trkpt>
      <trkpt lat="43.34498" lon="2.54966">
        <ele>423.12</ele>
        <time>2014-06-01T14:40:19Z</time>
      </trkpt>
      <trkpt lat="43.3448" lon="2.54952">
        <ele>420.71</ele>
        <time>2014-06-01T14:40:34Z</time>
      </trkpt>
      <trkpt lat="43.34465" lon="2.54941">
        <ele>419.75</ele>
        <time>2014-06-01T14:40:45Z</time>
      </trkpt>
      <trkpt lat="43.34449" lon="2.54938">
        <ele>419.27</ele>
        <time>2014-06-01T14:40:58Z</time>
      </trkpt>
      <trkpt lat="43.34432" lon="2.54946">
        <ele>418.79</ele>
        <time>2014-06-01T14:41:11Z</time>
      </trkpt>
      <trkpt lat="43.34421" lon="2.54947">
        <ele>418.31</ele>
        <time>2014-06-01T14:41:22Z</time>
      </trkpt>
      <trkpt lat="43.34415" lon="2.54948">
        <ele>418.31</ele>
        <time>2014-06-01T14:41:29Z</time>
      </trkpt>
      <trkpt lat="43.3441" lon="2.54948">
        <ele>417.35</ele>
        <time>2014-06-01T14:41:34Z</time>
      </trkpt>
      <trkpt lat="43.34407" lon="2.54949">
        <ele>416.87</ele>
        <time>2014-06-01T14:41:38Z</time>
      </trkpt>
      <trkpt lat="43.34402" lon="2.54951">
        <ele>416.87</ele>
        <time>2014-06-01T14:41:45Z</time>
      </trkpt>
      <trkpt lat="43.34395" lon="2.54955">
        <ele>416.39</ele>
        <time>2014-06-01T14:41:54Z</time>
      </trkpt>
      <trkpt lat="43.34391" lon="2.54956">
        <ele>416.87</ele>
        <time>2014-06-01T14:41:59Z</time>
      </trkpt>
      <trkpt lat="43.34385" lon="2.54961">
        <ele>414.95</ele>
        <time>2014-06-01T14:42:09Z</time>
      </trkpt>
      <trkpt lat="43.34381" lon="2.54964">
        <ele>414.95</ele>
        <time>2014-06-01T14:42:17Z</time>
      </trkpt>
      <trkpt lat="43.34374" lon="2.5497">
        <ele>413.98</ele>
        <time>2014-06-01T14:42:27Z</time>
      </trkpt>
      <trkpt lat="43.34371" lon="2.54973">
        <ele>413.5</ele>
        <time>2014-06-01T14:42:32Z</time>
      </trkpt>
      <trkpt lat="43.34367" lon="2.54978">
        <ele>413.5</ele>
        <time>2014-06-01T14:42:42Z</time>
      </trkpt>
      <trkpt lat="43.34362" lon="2.54977">
        <ele>411.58</ele>
        <time>2014-06-01T14:42:56Z</time>
      </trkpt>
      <trkpt lat="43.34357" lon="2.54972">
        <ele>412.06</ele>
        <time>2014-06-01T14:43:14Z</time>
      </trkpt>
      <trkpt lat="43.34355" lon="2.54966">
        <ele>411.58</ele>
        <time>2014-06-01T14:43:23Z</time>
      </trkpt>
      <trkpt lat="43.34351" lon="2.54957">
        <ele>409.66</ele>
        <time>2014-06-01T14:43:33Z</time>
      </trkpt>
      <trkpt lat="43.34347" lon="2.54952">
        <ele>409.66</ele>
        <time>2014-06-01T14:43:39Z</time>
      </trkpt>
      <trkpt lat="43.34344" lon="2.54944">
        <ele>409.18</ele>
        <time>2014-06-01T14:43:48Z</time>
      </trkpt>
      <trkpt lat="43.34341" lon="2.54941">
        <ele>408.22</ele>
        <time>2014-06-01T14:43:53Z</time>
      </trkpt>
      <trkpt lat="43.34341" lon="2.54937">
        <ele>407.74</ele>
        <time>2014-06-01T14:43:57Z</time>
      </trkpt>
      <trkpt lat="43.34333" lon="2.54928">
        <ele>407.26</ele>
        <time>2014-06-01T14:44:08Z</time>
      </trkpt>
      <trkpt lat="43.34326" lon="2.5491">
        <ele>404.85</ele>
        <time>2014-06-01T14:44:26Z</time>
      </trkpt>
      <trkpt lat="43.34318" lon="2.54893">
        <ele>402.93</ele>
        <time>2014-06-01T14:44:40Z</time>
      </trkpt>
      <trkpt lat="43.34307" lon="2.54875">
        <ele>401.01</ele>
        <time>2014-06-01T14:44:56Z</time>
      </trkpt>
      <trkpt lat="43.34298" lon="2.54864">
        <ele>400.05</ele>
        <time>2014-06-01T14:45:10Z</time>
      </trkpt>
      <trkpt lat="43.34298" lon="2.54864">
        <ele>398.6</ele>
        <time>2014-06-01T14:45:13Z</time>
      </trkpt>
      <trkpt lat="43.34297" lon="2.54865">
        <ele>400.53</ele>
        <time>2014-06-01T14:45:18Z</time>
      </trkpt>
      <trkpt lat="43.34299" lon="2.54863">
        <ele>399.57</ele>
        <time>2014-06-01T14:45:54Z</time>
      </trkpt>
      <trkpt lat="43.34299" lon="2.54858">
        <ele>400.05</ele>
        <time>2014-06-01T14:46:18Z</time>
      </trkpt>
      <trkpt lat="43.34297" lon="2.54852">
        <ele>399.08</ele>
        <time>2014-06-01T14:46:34Z</time>
      </trkpt>
      <trkpt lat="43.34288" lon="2.54835">
        <ele>397.16</ele>
        <time>2014-06-01T14:46:49Z</time>
      </trkpt>
      <trkpt lat="43.34281" lon="2.54825">
        <ele>396.68</ele>
        <time>2014-06-01T14:46:58Z</time>
      </trkpt>
      <trkpt lat="43.34273" lon="2.54795">
        <ele>395.24</ele>
        <time>2014-06-01T14:47:16Z</time>
      </trkpt>
      <trkpt lat="43.34268" lon="2.5477">
        <ele>395.24</ele>
        <time>2014-06-01T14:47:31Z</time>
      </trkpt>
      <trkpt lat="43.34266" lon="2.5476">
        <ele>395.72</ele>
        <time>2014-06-01T14:47:48Z</time>
      </trkpt>
      <trkpt lat="43.34257" lon="2.5475">
        <ele>394.28</ele>
        <time>2014-06-01T14:48:06Z</time>
      </trkpt>
      <trkpt lat="43.34256" lon="2.54743">
        <ele>393.8</ele>
        <time>2014-06-01T14:48:25Z</time>
      </trkpt>
      <trkpt lat="43.34254" lon="2.54736">
        <ele>393.8</ele>
        <time>2014-06-01T14:48:45Z</time>
      </trkpt>
      <trkpt lat="43.34248" lon="2.54732">
        <ele>393.32</ele>
        <time>2014-06-01T14:49:04Z</time>
      </trkpt>
      <trkpt lat="43.3424" lon="2.54722">
        <ele>392.36</ele>
        <time>2014-06-01T14:49:17Z</time>
      </trkpt>
      <trkpt lat="43.34232" lon="2.54707">
        <ele>391.39</ele>
        <time>2014-06-01T14:49:34Z</time>
      </trkpt>
      <trkpt lat="43.34222" lon="2.5469">
        <ele>390.91</ele>
        <time>2014-06-01T14:49:53Z</time>
      </trkpt>
      <trkpt lat="43.34217" lon="2.54684">
        <ele>389.47</ele>
        <time>2014-06-01T14:50:01Z</time>
      </trkpt>
      <trkpt lat="43.34206" lon="2.54675">
        <ele>388.51</ele>
        <time>2014-06-01T14:50:18Z</time>
      </trkpt>
      <trkpt lat="43.34195" lon="2.54669">
        <ele>388.51</ele>
        <time>2014-06-01T14:50:34Z</time>
      </trkpt>
      <trkpt lat="43.34185" lon="2.54663">
        <ele>387.07</ele>
        <time>2014-06-01T14:50:51Z</time>
      </trkpt>
      <trkpt lat="43.34173" lon="2.54657">
        <ele>386.11</ele>
        <time>2014-06-01T14:51:08Z</time>
      </trkpt>
      <trkpt lat="43.34165" lon="2.54643">
        <ele>386.59</ele>
        <time>2014-06-01T14:51:25Z</time>
      </trkpt>
      <trkpt lat="43.34157" lon="2.54637">
        <ele>385.15</ele>
        <time>2014-06-01T14:51:42Z</time>
      </trkpt>
      <trkpt lat="43.34146" lon="2.54631">
        <ele>383.7</ele>
        <time>2014-06-01T14:51:56Z</time>
      </trkpt>
      <trkpt lat="43.34134" lon="2.54626">
        <ele>381.78</ele>
        <time>2014-06-01T14:52:13Z</time>
      </trkpt>
      <trkpt lat="43.34121" lon="2.54621">
        <ele>380.82</ele>
        <time>2014-06-01T14:52:29Z</time>
      </trkpt>
      <trkpt lat="43.34106" lon="2.54614">
        <ele>378.9</ele>
        <time>2014-06-01T14:52:46Z</time>
      </trkpt>
      <trkpt lat="43.34087" lon="2.54608">
        <ele>376.97</ele>
        <time>2014-06-01T14:53:04Z</time>
      </trkpt>
      <trkpt lat="43.3407" lon="2.54603">
        <ele>375.05</ele>
        <time>2014-06-01T14:53:19Z</time>
      </trkpt>
      <trkpt lat="43.34065" lon="2.54602">
        <ele>375.53</ele>
        <time>2014-06-01T14:53:24Z</time>
      </trkpt>
      <trkpt lat="43.34057" lon="2.54596">
        <ele>374.57</ele>
        <time>2014-06-01T14:53:40Z</time>
      </trkpt>
      <trkpt lat="43.34064" lon="2.54597">
        <ele>375.53</ele>
        <time>2014-06-01T14:53:54Z</time>
      </trkpt>
      <trkpt lat="43.34065" lon="2.54596">
        <ele>375.53</ele>
        <time>2014-06-01T14:54:07Z</time>
      </trkpt>
      <trkpt lat="43.34064" lon="2.54595">
        <ele>376.49</ele>
        <time>2014-06-01T14:54:23Z</time>
      </trkpt>
      <trkpt lat="43.3407" lon="2.5459">
        <ele>376.49</ele>
        <time>2014-06-01T14:54:36Z</time>
      </trkpt>
      <trkpt lat="43.34068" lon="2.54584">
        <ele>376.49</ele>
        <time>2014-06-01T14:54:53Z</time>
      </trkpt>
      <trkpt lat="43.34066" lon="2.54587">
        <ele>376.01</ele>
        <time>2014-06-01T14:55:01Z</time>
      </trkpt>
      <trkpt lat="43.34067" lon="2.54588">
        <ele>376.01</ele>
        <time>2014-06-01T14:55:29Z</time>
      </trkpt>
      <trkpt lat="43.34072" lon="2.5459">
        <ele>376.49</ele>
        <time>2014-06-01T14:55:59Z</time>
      </trkpt>
      <trkpt lat="43.3407" lon="2.54589">
        <ele>377.45</ele>
        <time>2014-06-01T14:56:13Z</time>
      </trkpt>
      <trkpt lat="43.34068" lon="2.54589">
        <ele>376.01</ele>
        <time>2014-06-01T14:56:18Z</time>
      </trkpt>
      <trkpt lat="43.3407" lon="2.5459">
        <ele>376.49</ele>
        <time>2014-06-01T14:56:21Z</time>
      </trkpt>
      <trkpt lat="43.34069" lon="2.54598">
        <ele>376.49</ele>
        <time>2014-06-01T14:56:26Z</time>
      </trkpt>
      <trkpt lat="43.34061" lon="2.54602">
        <ele>375.53</ele>
        <time>2014-06-01T14:56:34Z</time>
      </trkpt>
      <trkpt lat="43.34044" lon="2.54598">
        <ele>374.09</ele>
        <time>2014-06-01T14:56:50Z</time>
      </trkpt>
      <trkpt lat="43.34028" lon="2.546">
        <ele>373.61</ele>
        <time>2014-06-01T14:57:05Z</time>
      </trkpt>
      <trkpt lat="43.34008" lon="2.54601">
        <ele>370.73</ele>
        <time>2014-06-01T14:57:20Z</time>
      </trkpt>
      <trkpt lat="43.33987" lon="2.54607">
        <ele>368.32</ele>
        <time>2014-06-01T14:57:37Z</time>
      </trkpt>
      <trkpt lat="43.33972" lon="2.54615">
        <ele>364.96</ele>
        <time>2014-06-01T14:57:50Z</time>
      </trkpt>
      <trkpt lat="43.33954" lon="2.54615">
        <ele>363.52</ele>
        <time>2014-06-01T14:58:05Z</time>
      </trkpt>
      <trkpt lat="43.33941" lon="2.54612">
        <ele>362.07</ele>
        <time>2014-06-01T14:58:19Z</time>
      </trkpt>
      <trkpt lat="43.33939" lon="2.54612">
        <ele>361.59</ele>
        <time>2014-06-01T14:58:21Z</time>
      </trkpt>
      <trkpt lat="43.33931" lon="2.54611">
        <ele>360.63</ele>
        <time>2014-06-01T14:58:29Z</time>
      </trkpt>
      <trkpt lat="43.33928" lon="2.5461">
        <ele>360.15</ele>
        <time>2014-06-01T14:58:32Z</time>
      </trkpt>
      <trkpt lat="43.33913" lon="2.54607">
        <ele>358.23</ele>
        <time>2014-06-01T14:58:46Z</time>
      </trkpt>
      <trkpt lat="43.33907" lon="2.54606">
        <ele>357.27</ele>
        <time>2014-06-01T14:58:52Z</time>
      </trkpt>
      <trkpt lat="43.33898" lon="2.54608">
        <ele>355.83</ele>
        <time>2014-06-01T14:59:02Z</time>
      </trkpt>
      <trkpt lat="43.33883" lon="2.54613">
        <ele>352.94</ele>
        <time>2014-06-01T14:59:18Z</time>
      </trkpt>
      <trkpt lat="43.33868" lon="2.54624">
        <ele>351.02</ele>
        <time>2014-06-01T14:59:34Z</time>
      </trkpt>
      <trkpt lat="43.33858" lon="2.54637">
        <ele>349.58</ele>
        <time>2014-06-01T14:59:50Z</time>
      </trkpt>
      <trkpt lat="43.33857" lon="2.54631">
        <ele>347.65</ele>
        <time>2014-06-01T15:00:10Z</time>
      </trkpt>
      <trkpt lat="43.33857" lon="2.54627">
        <ele>348.62</ele>
        <time>2014-06-01T15:00:38Z</time>
      </trkpt>
      <trkpt lat="43.33856" lon="2.54631">
        <ele>350.06</ele>
        <time>2014-06-01T15:00:50Z</time>
      </trkpt>
      <trkpt lat="43.33844" lon="2.54638">
        <ele>349.1</ele>
        <time>2014-06-01T15:01:08Z</time>
      </trkpt>
      <trkpt lat="43.33843" lon="2.54641">
        <ele>347.65</ele>
        <time>2014-06-01T15:01:29Z</time>
      </trkpt>
      <trkpt lat="43.33844" lon="2.54638">
        <ele>348.13</ele>
        <time>2014-06-01T15:02:05Z</time>
      </trkpt>
      <trkpt lat="43.33847" lon="2.54646">
        <ele>348.62</ele>
        <time>2014-06-01T15:02:24Z</time>
      </trkpt>
      <trkpt lat="43.33843" lon="2.54652">
        <ele>348.13</ele>
        <time>2014-06-01T15:02:40Z</time>
      </trkpt>
      <trkpt lat="43.33835" lon="2.54655">
        <ele>346.21</ele>
        <time>2014-06-01T15:02:58Z</time>
      </trkpt>
      <trkpt lat="43.33833" lon="2.54657">
        <ele>345.73</ele>
        <time>2014-06-01T15:03:01Z</time>
      </trkpt>
      <trkpt lat="43.33823" lon="2.54663">
        <ele>345.25</ele>
        <time>2014-06-01T15:03:12Z</time>
      </trkpt>
      <trkpt lat="43.33815" lon="2.54664">
        <ele>343.81</ele>
        <time>2014-06-01T15:03:28Z</time>
      </trkpt>
      <trkpt lat="43.33806" lon="2.54666">
        <ele>341.89</ele>
        <time>2014-06-01T15:03:44Z</time>
      </trkpt>
      <trkpt lat="43.33797" lon="2.54668">
        <ele>340.92</ele>
        <time>2014-06-01T15:03:55Z</time>
      </trkpt>
      <trkpt lat="43.33789" lon="2.5467">
        <ele>339.96</ele>
        <time>2014-06-01T15:04:11Z</time>
      </trkpt>
      <trkpt lat="43.33781" lon="2.54672">
        <ele>338.52</ele>
        <time>2014-06-01T15:04:26Z</time>
      </trkpt>
      <trkpt lat="43.33775" lon="2.54679">
        <ele>336.6</ele>
        <time>2014-06-01T15:04:41Z</time>
      </trkpt>
      <trkpt lat="43.33768" lon="2.54678">
        <ele>335.16</ele>
        <time>2014-06-01T15:04:55Z</time>
      </trkpt>
      <trkpt lat="43.3376" lon="2.54678">
        <ele>334.2</ele>
        <time>2014-06-01T15:05:08Z</time>
      </trkpt>
      <trkpt lat="43.33749" lon="2.54678">
        <ele>333.23</ele>
        <time>2014-06-01T15:05:25Z</time>
      </trkpt>
      <trkpt lat="43.33743" lon="2.54677">
        <ele>332.27</ele>
        <time>2014-06-01T15:05:39Z</time>
      </trkpt>
      <trkpt lat="43.33738" lon="2.54675">
        <ele>331.31</ele>
        <time>2014-06-01T15:05:56Z</time>
      </trkpt>
      <trkpt lat="43.3373" lon="2.54677">
        <ele>329.87</ele>
        <time>2014-06-01T15:06:04Z</time>
      </trkpt>
      <trkpt lat="43.33727" lon="2.54682">
        <ele>328.91</ele>
        <time>2014-06-01T15:06:09Z</time>
      </trkpt>
      <trkpt lat="43.33714" lon="2.5468">
        <ele>325.54</ele>
        <time>2014-06-01T15:06:25Z</time>
      </trkpt>
      <trkpt lat="43.33715" lon="2.54681">
        <ele>326.99</ele>
        <time>2014-06-01T15:06:37Z</time>
      </trkpt>
      <trkpt lat="43.33709" lon="2.5468">
        <ele>326.5</ele>
        <time>2014-06-01T15:06:50Z</time>
      </trkpt>
      <trkpt lat="43.33709" lon="2.54676">
        <ele>326.5</ele>
        <time>2014-06-01T15:07:05Z</time>
      </trkpt>
      <trkpt lat="43.33711" lon="2.5468">
        <ele>326.5</ele>
        <time>2014-06-01T15:07:11Z</time>
      </trkpt>
      <trkpt lat="43.33705" lon="2.54686">
        <ele>324.1</ele>
        <time>2014-06-01T15:07:19Z</time>
      </trkpt>
      <trkpt lat="43.33699" lon="2.54683">
        <ele>323.62</ele>
        <time>2014-06-01T15:07:28Z</time>
      </trkpt>
      <trkpt lat="43.337" lon="2.5468">
        <ele>324.58</ele>
        <time>2014-06-01T15:07:34Z</time>
      </trkpt>
      <trkpt lat="43.33698" lon="2.54681">
        <ele>324.58</ele>
        <time>2014-06-01T15:07:37Z</time>
      </trkpt>
      <trkpt lat="43.33695" lon="2.54682">
        <ele>324.1</ele>
        <time>2014-06-01T15:07:56Z</time>
      </trkpt>
      <trkpt lat="43.33692" lon="2.5467">
        <ele>324.1</ele>
        <time>2014-06-01T15:08:10Z</time>
      </trkpt>
      <trkpt lat="43.33701" lon="2.54666">
        <ele>324.58</ele>
        <time>2014-06-01T15:08:25Z</time>
      </trkpt>
      <trkpt lat="43.33702" lon="2.54665">
        <ele>325.06</ele>
        <time>2014-06-01T15:08:45Z</time>
      </trkpt>
      <trkpt lat="43.33698" lon="2.54666">
        <ele>324.58</ele>
        <time>2014-06-01T15:08:50Z</time>
      </trkpt>
      <trkpt lat="43.33691" lon="2.54669">
        <ele>323.62</ele>
        <time>2014-06-01T15:09:06Z</time>
      </trkpt>
      <trkpt lat="43.3369" lon="2.54674">
        <ele>323.14</ele>
        <time>2014-06-01T15:09:22Z</time>
      </trkpt>
      <trkpt lat="43.33691" lon="2.5468">
        <ele>323.62</ele>
        <time>2014-06-01T15:09:38Z</time>
      </trkpt>
      <trkpt lat="43.3369" lon="2.54683">
        <ele>323.62</ele>
        <time>2014-06-01T15:09:44Z</time>
      </trkpt>
      <trkpt lat="43.3369" lon="2.54681">
        <ele>323.62</ele>
        <time>2014-06-01T15:09:58Z</time>
      </trkpt>
      <trkpt lat="43.33689" lon="2.5468">
        <ele>324.1</ele>
        <time>2014-06-01T15:10:14Z</time>
      </trkpt>
      <trkpt lat="43.3369" lon="2.54677">
        <ele>324.1</ele>
        <time>2014-06-01T15:10:30Z</time>
      </trkpt>
      <trkpt lat="43.33691" lon="2.54678">
        <ele>323.14</ele>
        <time>2014-06-01T15:10:48Z</time>
      </trkpt>
      <trkpt lat="43.33691" lon="2.54679">
        <ele>323.62</ele>
        <time>2014-06-01T15:11:15Z</time>
      </trkpt>
      <trkpt lat="43.33689" lon="2.54684">
        <ele>323.62</ele>
        <time>2014-06-01T15:11:45Z</time>
      </trkpt>
      <trkpt lat="43.33688" lon="2.54672">
        <ele>324.58</ele>
        <time>2014-06-01T15:12:00Z</time>
      </trkpt>
      <trkpt lat="43.33688" lon="2.5466">
        <ele>324.58</ele>
        <time>2014-06-01T15:12:11Z</time>
      </trkpt>
      <trkpt lat="43.33687" lon="2.54652">
        <ele>324.1</ele>
        <time>2014-06-01T15:12:29Z</time>
      </trkpt>
      <trkpt lat="43.33686" lon="2.54646">
        <ele>323.62</ele>
        <time>2014-06-01T15:12:34Z</time>
      </trkpt>
      <trkpt lat="43.33675" lon="2.54637">
        <ele>320.26</ele>
        <time>2014-06-01T15:12:50Z</time>
      </trkpt>
      <trkpt lat="43.33675" lon="2.54636">
        <ele>320.26</ele>
        <time>2014-06-01T15:12:51Z</time>
      </trkpt>
      <trkpt lat="43.33674" lon="2.54633">
        <ele>320.26</ele>
        <time>2014-06-01T15:12:53Z</time>
      </trkpt>
      <trkpt lat="43.33671" lon="2.54629">
        <ele>320.74</ele>
        <time>2014-06-01T15:13:00Z</time>
      </trkpt>
      <trkpt lat="43.33667" lon="2.54617">
        <ele>317.37</ele>
        <time>2014-06-01T15:13:15Z</time>
      </trkpt>
      <trkpt lat="43.33664" lon="2.54613">
        <ele>317.37</ele>
        <time>2014-06-01T15:13:29Z</time>
      </trkpt>
      <trkpt lat="43.33662" lon="2.54618">
        <ele>317.85</ele>
        <time>2014-06-01T15:13:38Z</time>
      </trkpt>
      <trkpt lat="43.33665" lon="2.5463">
        <ele>315.45</ele>
        <time>2014-06-01T15:13:52Z</time>
      </trkpt>
      <trkpt lat="43.33665" lon="2.54629">
        <ele>316.41</ele>
        <time>2014-06-01T15:14:02Z</time>
      </trkpt>
      <trkpt lat="43.33664" lon="2.54639">
        <ele>314.01</ele>
        <time>2014-06-01T15:14:15Z</time>
      </trkpt>
      <trkpt lat="43.33665" lon="2.54652">
        <ele>312.09</ele>
        <time>2014-06-01T15:14:27Z</time>
      </trkpt>
      <trkpt lat="43.33666" lon="2.54655">
        <ele>311.6</ele>
        <time>2014-06-01T15:14:40Z</time>
      </trkpt>
      <trkpt lat="43.33667" lon="2.54668">
        <ele>309.68</ele>
        <time>2014-06-01T15:14:52Z</time>
      </trkpt>
      <trkpt lat="43.3367" lon="2.54675">
        <ele>309.2</ele>
        <time>2014-06-01T15:15:09Z</time>
      </trkpt>
      <trkpt lat="43.3367" lon="2.54683">
        <ele>308.24</ele>
        <time>2014-06-01T15:15:21Z</time>
      </trkpt>
      <trkpt lat="43.33671" lon="2.54684">
        <ele>308.24</ele>
        <time>2014-06-01T15:15:26Z</time>
      </trkpt>
      <trkpt lat="43.33672" lon="2.5469">
        <ele>307.28</ele>
        <time>2014-06-01T15:15:33Z</time>
      </trkpt>
      <trkpt lat="43.33674" lon="2.54698">
        <ele>306.8</ele>
        <time>2014-06-01T15:15:42Z</time>
      </trkpt>
      <trkpt lat="43.33674" lon="2.54701">
        <ele>306.32</ele>
        <time>2014-06-01T15:15:46Z</time>
      </trkpt>
      <trkpt lat="43.33677" lon="2.54709">
        <ele>305.84</ele>
        <time>2014-06-01T15:15:59Z</time>
      </trkpt>
      <trkpt lat="43.33678" lon="2.54714">
        <ele>305.84</ele>
        <time>2014-06-01T15:16:05Z</time>
      </trkpt>
      <trkpt lat="43.3368" lon="2.54728">
        <ele>304.88</ele>
        <time>2014-06-01T15:16:14Z</time>
      </trkpt>
      <trkpt lat="43.33682" lon="2.54734">
        <ele>303.91</ele>
        <time>2014-06-01T15:16:22Z</time>
      </trkpt>
      <trkpt lat="43.33681" lon="2.54745">
        <ele>302.95</ele>
        <time>2014-06-01T15:16:31Z</time>
      </trkpt>
      <trkpt lat="43.33679" lon="2.54755">
        <ele>301.99</ele>
        <time>2014-06-01T15:16:41Z</time>
      </trkpt>
      <trkpt lat="43.33677" lon="2.54762">
        <ele>301.03</ele>
        <time>2014-06-01T15:16:50Z</time>
      </trkpt>
      <trkpt lat="43.33678" lon="2.5477">
        <ele>300.55</ele>
        <time>2014-06-01T15:16:58Z</time>
      </trkpt>
      <trkpt lat="43.33676" lon="2.54774">
        <ele>300.07</ele>
        <time>2014-06-01T15:17:05Z</time>
      </trkpt>
      <trkpt lat="43.33679" lon="2.54777">
        <ele>299.11</ele>
        <time>2014-06-01T15:17:19Z</time>
      </trkpt>
      <trkpt lat="43.33677" lon="2.54786">
        <ele>298.15</ele>
        <time>2014-06-01T15:17:37Z</time>
      </trkpt>
      <trkpt lat="43.33676" lon="2.54796">
        <ele>295.74</ele>
        <time>2014-06-01T15:17:48Z</time>
      </trkpt>
      <trkpt lat="43.33671" lon="2.548">
        <ele>295.74</ele>
        <time>2014-06-01T15:18:00Z</time>
      </trkpt>
      <trkpt lat="43.33671" lon="2.54804">
        <ele>294.78</ele>
        <time>2014-06-01T15:18:03Z</time>
      </trkpt>
      <trkpt lat="43.33669" lon="2.54808">
        <ele>294.3</ele>
        <time>2014-06-01T15:18:16Z</time>
      </trkpt>
      <trkpt lat="43.33667" lon="2.54813">
        <ele>294.3</ele>
        <time>2014-06-01T15:18:20Z</time>
      </trkpt>
      <trkpt lat="43.33663" lon="2.54819">
        <ele>293.34</ele>
        <time>2014-06-01T15:18:31Z</time>
      </trkpt>
      <trkpt lat="43.33662" lon="2.5482">
        <ele>293.34</ele>
        <time>2014-06-01T15:18:42Z</time>
      </trkpt>
      <trkpt lat="43.33662" lon="2.54834">
        <ele>291.42</ele>
        <time>2014-06-01T15:18:53Z</time>
      </trkpt>
      <trkpt lat="43.33664" lon="2.54845">
        <ele>289.49</ele>
        <time>2014-06-01T15:19:03Z</time>
      </trkpt>
      <trkpt lat="43.33666" lon="2.54853">
        <ele>289.49</ele>
        <time>2014-06-01T15:19:12Z</time>
      </trkpt>
      <trkpt lat="43.33667" lon="2.54862">
        <ele>288.05</ele>
        <time>2014-06-01T15:19:24Z</time>
      </trkpt>
      <trkpt lat="43.33667" lon="2.54865">
        <ele>286.61</ele>
        <time>2014-06-01T15:19:34Z</time>
      </trkpt>
      <trkpt lat="43.33671" lon="2.54869">
        <ele>285.65</ele>
        <time>2014-06-01T15:19:42Z</time>
      </trkpt>
      <trkpt lat="43.33671" lon="2.54873">
        <ele>284.21</ele>
        <time>2014-06-01T15:19:47Z</time>
      </trkpt>
      <trkpt lat="43.33667" lon="2.54878">
        <ele>283.73</ele>
        <time>2014-06-01T15:19:54Z</time>
      </trkpt>
      <trkpt lat="43.33668" lon="2.54884">
        <ele>283.25</ele>
        <time>2014-06-01T15:19:59Z</time>
      </trkpt>
      <trkpt lat="43.33666" lon="2.54893">
        <ele>281.32</ele>
        <time>2014-06-01T15:20:10Z</time>
      </trkpt>
      <trkpt lat="43.33667" lon="2.54892">
        <ele>281.32</ele>
        <time>2014-06-01T15:20:23Z</time>
      </trkpt>
      <trkpt lat="43.33666" lon="2.54889">
        <ele>280.84</ele>
        <time>2014-06-01T15:20:47Z</time>
      </trkpt>
      <trkpt lat="43.33665" lon="2.5489">
        <ele>281.32</ele>
        <time>2014-06-01T15:20:56Z</time>
      </trkpt>
      <trkpt lat="43.33661" lon="2.54893">
        <ele>280.36</ele>
        <time>2014-06-01T15:21:03Z</time>
      </trkpt>
      <trkpt lat="43.33657" lon="2.54898">
        <ele>279.4</ele>
        <time>2014-06-01T15:21:09Z</time>
      </trkpt>
      <trkpt lat="43.33656" lon="2.54899">
        <ele>278.92</ele>
        <time>2014-06-01T15:21:12Z</time>
      </trkpt>
      <trkpt lat="43.3365" lon="2.54903">
        <ele>277.48</ele>
        <time>2014-06-01T15:21:21Z</time>
      </trkpt>
      <trkpt lat="43.33647" lon="2.54912">
        <ele>276.04</ele>
        <time>2014-06-01T15:21:29Z</time>
      </trkpt>
      <trkpt lat="43.3364" lon="2.54909">
        <ele>274.59</ele>
        <time>2014-06-01T15:21:37Z</time>
      </trkpt>
      <trkpt lat="43.33638" lon="2.54912">
        <ele>274.11</ele>
        <time>2014-06-01T15:21:42Z</time>
      </trkpt>
      <trkpt lat="43.33635" lon="2.54908">
        <ele>273.63</ele>
        <time>2014-06-01T15:21:51Z</time>
      </trkpt>
      <trkpt lat="43.33636" lon="2.5491">
        <ele>273.63</ele>
        <time>2014-06-01T15:22:03Z</time>
      </trkpt>
      <trkpt lat="43.3363" lon="2.54911">
        <ele>272.19</ele>
        <time>2014-06-01T15:22:10Z</time>
      </trkpt>
      <trkpt lat="43.33622" lon="2.54909">
        <ele>271.23</ele>
        <time>2014-06-01T15:22:19Z</time>
      </trkpt>
      <trkpt lat="43.3362" lon="2.54909">
        <ele>270.75</ele>
        <time>2014-06-01T15:22:23Z</time>
      </trkpt>
      <trkpt lat="43.33616" lon="2.54908">
        <ele>271.23</ele>
        <time>2014-06-01T15:22:43Z</time>
      </trkpt>
      <trkpt lat="43.33616" lon="2.54906">
        <ele>270.27</ele>
        <time>2014-06-01T15:23:04Z</time>
      </trkpt>
      <trkpt lat="43.33608" lon="2.549">
        <ele>268.83</ele>
        <time>2014-06-01T15:23:14Z</time>
      </trkpt>
      <trkpt lat="43.33608" lon="2.549">
        <ele>268.83</ele>
        <time>2014-06-01T15:23:16Z</time>
      </trkpt>
      <trkpt lat="43.33599" lon="2.54891">
        <ele>267.86</ele>
        <time>2014-06-01T15:23:29Z</time>
      </trkpt>
      <trkpt lat="43.33593" lon="2.54885">
        <ele>267.38</ele>
        <time>2014-06-01T15:23:44Z</time>
      </trkpt>
      <trkpt lat="43.3359" lon="2.54884">
        <ele>266.9</ele>
        <time>2014-06-01T15:23:56Z</time>
      </trkpt>
      <trkpt lat="43.33586" lon="2.54884">
        <ele>266.9</ele>
        <time>2014-06-01T15:24:03Z</time>
      </trkpt>
      <trkpt lat="43.33575" lon="2.54877">
        <ele>265.94</ele>
        <time>2014-06-01T15:24:19Z</time>
      </trkpt>
      <trkpt lat="43.33577" lon="2.54876">
        <ele>266.42</ele>
        <time>2014-06-01T15:24:36Z</time>
      </trkpt>
      <trkpt lat="43.33579" lon="2.54871">
        <ele>265.46</ele>
        <time>2014-06-01T15:24:49Z</time>
      </trkpt>
      <trkpt lat="43.33579" lon="2.54874">
        <ele>264.98</ele>
        <time>2014-06-01T15:25:12Z</time>
      </trkpt>
      <trkpt lat="43.33577" lon="2.54876">
        <ele>264.98</ele>
        <time>2014-06-01T15:25:24Z</time>
      </trkpt>
      <trkpt lat="43.33572" lon="2.54879">
        <ele>264.02</ele>
        <time>2014-06-01T15:25:30Z</time>
      </trkpt>
      <trkpt lat="43.33566" lon="2.54875">
        <ele>265.46</ele>
        <time>2014-06-01T15:25:37Z</time>
      </trkpt>
      <trkpt lat="43.33561" lon="2.54872">
        <ele>264.98</ele>
        <time>2014-06-01T15:25:48Z</time>
      </trkpt>
      <trkpt lat="43.33561" lon="2.54877">
        <ele>264.98</ele>
        <time>2014-06-01T15:26:02Z</time>
      </trkpt>
      <trkpt lat="43.33561" lon="2.5487">
        <ele>264.5</ele>
        <time>2014-06-01T15:26:15Z</time>
      </trkpt>
      <trkpt lat="43.33558" lon="2.54866">
        <ele>264.5</ele>
        <time>2014-06-01T15:26:19Z</time>
      </trkpt>
      <trkpt lat="43.33553" lon="2.54863">
        <ele>264.5</ele>
        <time>2014-06-01T15:26:25Z</time>
      </trkpt>
      <trkpt lat="43.3355" lon="2.5486">
        <ele>264.02</ele>
        <time>2014-06-01T15:26:28Z</time>
      </trkpt>
      <trkpt lat="43.33546" lon="2.54857">
        <ele>264.5</ele>
        <time>2014-06-01T15:26:34Z</time>
      </trkpt>
      <trkpt lat="43.33537" lon="2.54851">
        <ele>264.5</ele>
        <time>2014-06-01T15:26:44Z</time>
      </trkpt>
      <trkpt lat="43.33531" lon="2.54847">
        <ele>264.02</ele>
        <time>2014-06-01T15:26:52Z</time>
      </trkpt>
      <trkpt lat="43.33523" lon="2.54842">
        <ele>264.5</ele>
        <time>2014-06-01T15:27:04Z</time>
      </trkpt>
      <trkpt lat="43.33514" lon="2.54841">
        <ele>264.98</ele>
        <time>2014-06-01T15:27:15Z</time>
      </trkpt>
      <trkpt lat="43.33504" lon="2.54838">
        <ele>265.46</ele>
        <time>2014-06-01T15:27:25Z</time>
      </trkpt>
      <trkpt lat="43.33503" lon="2.54838">
        <ele>265.46</ele>
        <time>2014-06-01T15:27:26Z</time>
      </trkpt>
      <trkpt lat="43.33493" lon="2.54837">
        <ele>264.98</ele>
        <time>2014-06-01T15:27:38Z</time>
      </trkpt>
      <trkpt lat="43.33483" lon="2.54834">
        <ele>265.94</ele>
        <time>2014-06-01T15:27:47Z</time>
      </trkpt>
      <trkpt lat="43.33472" lon="2.5483">
        <ele>265.94</ele>
        <time>2014-06-01T15:28:00Z</time>
      </trkpt>
      <trkpt lat="43.33462" lon="2.5483">
        <ele>265.46</ele>
        <time>2014-06-01T15:28:16Z</time>
      </trkpt>
      <trkpt lat="43.33451" lon="2.54834">
        <ele>265.46</ele>
        <time>2014-06-01T15:28:32Z</time>
      </trkpt>
      <trkpt lat="43.33441" lon="2.54838">
        <ele>264.5</ele>
        <time>2014-06-01T15:28:48Z</time>
      </trkpt>
      <trkpt lat="43.33429" lon="2.54848">
        <ele>263.54</ele>
        <time>2014-06-01T15:29:03Z</time>
      </trkpt>
      <trkpt lat="43.33418" lon="2.54862">
        <ele>263.54</ele>
        <time>2014-06-01T15:29:18Z</time>
      </trkpt>
      <trkpt lat="43.33413" lon="2.5487">
        <ele>263.06</ele>
        <time>2014-06-01T15:29:33Z</time>
      </trkpt>
      <trkpt lat="43.33404" lon="2.54881">
        <ele>263.06</ele>
        <time>2014-06-01T15:29:48Z</time>
      </trkpt>
      <trkpt lat="43.334" lon="2.54887">
        <ele>262.1</ele>
        <time>2014-06-01T15:30:00Z</time>
      </trkpt>
      <trkpt lat="43.3339" lon="2.54891">
        <ele>261.14</ele>
        <time>2014-06-01T15:30:13Z</time>
      </trkpt>
      <trkpt lat="43.33384" lon="2.54895">
        <ele>260.17</ele>
        <time>2014-06-01T15:30:24Z</time>
      </trkpt>
      <trkpt lat="43.33384" lon="2.54895">
        <ele>260.17</ele>
        <time>2014-06-01T15:30:25Z</time>
      </trkpt>
      <trkpt lat="43.3338" lon="2.54897">
        <ele>259.21</ele>
        <time>2014-06-01T15:30:31Z</time>
      </trkpt>
      <trkpt lat="43.33372" lon="2.549">
        <ele>257.77</ele>
        <time>2014-06-01T15:30:43Z</time>
      </trkpt>
      <trkpt lat="43.33362" lon="2.54904">
        <ele>256.81</ele>
        <time>2014-06-01T15:30:55Z</time>
      </trkpt>
      <trkpt lat="43.33355" lon="2.54905">
        <ele>254.89</ele>
        <time>2014-06-01T15:31:03Z</time>
      </trkpt>
      <trkpt lat="43.33349" lon="2.54903">
        <ele>253.44</ele>
        <time>2014-06-01T15:31:09Z</time>
      </trkpt>
      <trkpt lat="43.33347" lon="2.54903">
        <ele>253.44</ele>
        <time>2014-06-01T15:31:15Z</time>
      </trkpt>
      <trkpt lat="43.33344" lon="2.54904">
        <ele>252</ele>
        <time>2014-06-01T15:31:19Z</time>
      </trkpt>
      <trkpt lat="43.33341" lon="2.54904">
        <ele>251.52</ele>
        <time>2014-06-01T15:31:24Z</time>
      </trkpt>
      <trkpt lat="43.33337" lon="2.54904">
        <ele>251.04</ele>
        <time>2014-06-01T15:31:30Z</time>
      </trkpt>
      <trkpt lat="43.33333" lon="2.54903">
        <ele>250.56</ele>
        <time>2014-06-01T15:31:36Z</time>
      </trkpt>
      <trkpt lat="43.33328" lon="2.54905">
        <ele>250.56</ele>
        <time>2014-06-01T15:31:44Z</time>
      </trkpt>
      <trkpt lat="43.33325" lon="2.54908">
        <ele>250.08</ele>
        <time>2014-06-01T15:31:49Z</time>
      </trkpt>
      <trkpt lat="43.33321" lon="2.54906">
        <ele>249.12</ele>
        <time>2014-06-01T15:31:54Z</time>
      </trkpt>
      <trkpt lat="43.33312" lon="2.5491">
        <ele>248.64</ele>
        <time>2014-06-01T15:32:05Z</time>
      </trkpt>
      <trkpt lat="43.33311" lon="2.5491">
        <ele>248.16</ele>
        <time>2014-06-01T15:32:06Z</time>
      </trkpt>
      <trkpt lat="43.33309" lon="2.54911">
        <ele>248.16</ele>
        <time>2014-06-01T15:32:10Z</time>
      </trkpt>
      <trkpt lat="43.33302" lon="2.54911">
        <ele>247.2</ele>
        <time>2014-06-01T15:32:23Z</time>
      </trkpt>
      <trkpt lat="43.33294" lon="2.5491">
        <ele>247.2</ele>
        <time>2014-06-01T15:32:32Z</time>
      </trkpt>
      <trkpt lat="43.33288" lon="2.5491">
        <ele>247.2</ele>
        <time>2014-06-01T15:32:40Z</time>
      </trkpt>
      <trkpt lat="43.3328" lon="2.5491">
        <ele>247.2</ele>
        <time>2014-06-01T15:32:51Z</time>
      </trkpt>
      <trkpt lat="43.33277" lon="2.5491">
        <ele>246.72</ele>
        <time>2014-06-01T15:32:55Z</time>
      </trkpt>
      <trkpt lat="43.33274" lon="2.54906">
        <ele>245.75</ele>
        <time>2014-06-01T15:33:05Z</time>
      </trkpt>
      <trkpt lat="43.33274" lon="2.54905">
        <ele>245.27</ele>
        <time>2014-06-01T15:33:08Z</time>
      </trkpt>
      <trkpt lat="43.33275" lon="2.54902">
        <ele>244.31</ele>
        <time>2014-06-01T15:33:13Z</time>
      </trkpt>
      <trkpt lat="43.33276" lon="2.54895">
        <ele>243.83</ele>
        <time>2014-06-01T15:33:22Z</time>
      </trkpt>
      <trkpt lat="43.33278" lon="2.54883">
        <ele>241.91</ele>
        <time>2014-06-01T15:33:34Z</time>
      </trkpt>
      <trkpt lat="43.33279" lon="2.54882">
        <ele>241.43</ele>
        <time>2014-06-01T15:33:37Z</time>
      </trkpt>
      <trkpt lat="43.33281" lon="2.54881">
        <ele>240.95</ele>
        <time>2014-06-01T15:33:42Z</time>
      </trkpt>
      <trkpt lat="43.33287" lon="2.5488">
        <ele>240.47</ele>
        <time>2014-06-01T15:33:48Z</time>
      </trkpt>
      <trkpt lat="43.33289" lon="2.54875">
        <ele>239.51</ele>
        <time>2014-06-01T15:33:53Z</time>
      </trkpt>
      <trkpt lat="43.33287" lon="2.54865">
        <ele>238.54</ele>
        <time>2014-06-01T15:34:04Z</time>
      </trkpt>
      <trkpt lat="43.33289" lon="2.54854">
        <ele>238.54</ele>
        <time>2014-06-01T15:34:16Z</time>
      </trkpt>
      <trkpt lat="43.33289" lon="2.54853">
        <ele>238.54</ele>
        <time>2014-06-01T15:34:17Z</time>
      </trkpt>
      <trkpt lat="43.33293" lon="2.54849">
        <ele>238.54</ele>
        <time>2014-06-01T15:34:21Z</time>
      </trkpt>
      <trkpt lat="43.33294" lon="2.54844">
        <ele>238.06</ele>
        <time>2014-06-01T15:34:27Z</time>
      </trkpt>
      <trkpt lat="43.33292" lon="2.54838">
        <ele>237.1</ele>
        <time>2014-06-01T15:34:33Z</time>
      </trkpt>
      <trkpt lat="43.33298" lon="2.54832">
        <ele>237.1</ele>
        <time>2014-06-01T15:34:43Z</time>
      </trkpt>
      <trkpt lat="43.333" lon="2.54829">
        <ele>237.1</ele>
        <time>2014-06-01T15:34:47Z</time>
      </trkpt>
      <trkpt lat="43.33304" lon="2.54819">
        <ele>235.66</ele>
        <time>2014-06-01T15:34:59Z</time>
      </trkpt>
      <trkpt lat="43.33306" lon="2.54813">
        <ele>236.14</ele>
        <time>2014-06-01T15:35:04Z</time>
      </trkpt>
      <trkpt lat="43.33308" lon="2.54809">
        <ele>236.14</ele>
        <time>2014-06-01T15:35:09Z</time>
      </trkpt>
      <trkpt lat="43.33313" lon="2.54806">
        <ele>235.66</ele>
        <time>2014-06-01T15:35:15Z</time>
      </trkpt>
      <trkpt lat="43.33321" lon="2.54801">
        <ele>234.22</ele>
        <time>2014-06-01T15:35:26Z</time>
      </trkpt>
      <trkpt lat="43.33326" lon="2.54796">
        <ele>233.74</ele>
        <time>2014-06-01T15:35:34Z</time>
      </trkpt>
      <trkpt lat="43.33331" lon="2.5479">
        <ele>232.78</ele>
        <time>2014-06-01T15:35:45Z</time>
      </trkpt>
      <trkpt lat="43.33338" lon="2.54784">
        <ele>232.78</ele>
        <time>2014-06-01T15:35:55Z</time>
      </trkpt>
      <trkpt lat="43.33342" lon="2.54779">
        <ele>232.78</ele>
        <time>2014-06-01T15:36:02Z</time>
      </trkpt>
      <trkpt lat="43.33345" lon="2.54775">
        <ele>233.26</ele>
        <time>2014-06-01T15:36:08Z</time>
      </trkpt>
      <trkpt lat="43.33347" lon="2.54772">
        <ele>233.26</ele>
        <time>2014-06-01T15:36:12Z</time>
      </trkpt>
      <trkpt lat="43.33353" lon="2.54769">
        <ele>232.78</ele>
        <time>2014-06-01T15:36:22Z</time>
      </trkpt>
      <trkpt lat="43.33357" lon="2.54766">
        <ele>231.81</ele>
        <time>2014-06-01T15:36:27Z</time>
      </trkpt>
      <trkpt lat="43.33366" lon="2.54754">
        <ele>231.81</ele>
        <time>2014-06-01T15:36:39Z</time>
      </trkpt>
      <trkpt lat="43.33369" lon="2.54752">
        <ele>232.3</ele>
        <time>2014-06-01T15:36:42Z</time>
      </trkpt>
      <trkpt lat="43.33374" lon="2.54747">
        <ele>230.85</ele>
        <time>2014-06-01T15:36:51Z</time>
      </trkpt>
      <trkpt lat="43.33376" lon="2.54742">
        <ele>230.85</ele>
        <time>2014-06-01T15:36:57Z</time>
      </trkpt>
      <trkpt lat="43.3338" lon="2.54723">
        <ele>230.85</ele>
        <time>2014-06-01T15:37:12Z</time>
      </trkpt>
      <trkpt lat="43.33381" lon="2.54719">
        <ele>230.37</ele>
        <time>2014-06-01T15:37:15Z</time>
      </trkpt>
      <trkpt lat="43.33386" lon="2.54702">
        <ele>229.41</ele>
        <time>2014-06-01T15:37:32Z</time>
      </trkpt>
      <trkpt lat="43.33394" lon="2.54684">
        <ele>228.93</ele>
        <time>2014-06-01T15:37:52Z</time>
      </trkpt>
      <trkpt lat="43.33404" lon="2.54672">
        <ele>227.97</ele>
        <time>2014-06-01T15:38:09Z</time>
      </trkpt>
      <trkpt lat="43.33407" lon="2.54664">
        <ele>227.49</ele>
        <time>2014-06-01T15:38:24Z</time>
      </trkpt>
      <trkpt lat="43.33414" lon="2.54661">
        <ele>226.53</ele>
        <time>2014-06-01T15:38:35Z</time>
      </trkpt>
      <trkpt lat="43.33416" lon="2.54659">
        <ele>226.05</ele>
        <time>2014-06-01T15:38:43Z</time>
      </trkpt>
      <trkpt lat="43.33424" lon="2.54654">
        <ele>226.53</ele>
        <time>2014-06-01T15:38:52Z</time>
      </trkpt>
      <trkpt lat="43.33424" lon="2.54654">
        <ele>226.05</ele>
        <time>2014-06-01T15:38:54Z</time>
      </trkpt>
      <trkpt lat="43.33429" lon="2.54653">
        <ele>226.05</ele>
        <time>2014-06-01T15:38:59Z</time>
      </trkpt>
      <trkpt lat="43.33439" lon="2.54651">
        <ele>225.57</ele>
        <time>2014-06-01T15:39:09Z</time>
      </trkpt>
      <trkpt lat="43.3344" lon="2.54651">
        <ele>226.53</ele>
        <time>2014-06-01T15:39:10Z</time>
      </trkpt>
      <trkpt lat="43.33442" lon="2.54651">
        <ele>226.05</ele>
        <time>2014-06-01T15:39:14Z</time>
      </trkpt>
      <trkpt lat="43.33454" lon="2.54651">
        <ele>225.57</ele>
        <time>2014-06-01T15:39:28Z</time>
      </trkpt>
      <trkpt lat="43.3347" lon="2.54652">
        <ele>225.57</ele>
        <time>2014-06-01T15:39:47Z</time>
      </trkpt>
      <trkpt lat="43.33485" lon="2.54655">
        <ele>227.01</ele>
        <time>2014-06-01T15:40:01Z</time>
      </trkpt>
      <trkpt lat="43.33495" lon="2.54663">
        <ele>227.97</ele>
        <time>2014-06-01T15:40:16Z</time>
      </trkpt>
      <trkpt lat="43.33508" lon="2.54665">
        <ele>228.45</ele>
        <time>2014-06-01T15:40:33Z</time>
      </trkpt>
      <trkpt lat="43.33513" lon="2.54658">
        <ele>227.01</ele>
        <time>2014-06-01T15:40:45Z</time>
      </trkpt>
      <trkpt lat="43.33512" lon="2.54638">
        <ele>225.57</ele>
        <time>2014-06-01T15:41:07Z</time>
      </trkpt>
      <trkpt lat="43.33506" lon="2.54628">
        <ele>223.64</ele>
        <time>2014-06-01T15:41:19Z</time>
      </trkpt>
      <trkpt lat="43.33501" lon="2.54614">
        <ele>222.68</ele>
        <time>2014-06-01T15:41:29Z</time>
      </trkpt>
      <trkpt lat="43.33496" lon="2.54601">
        <ele>221.24</ele>
        <time>2014-06-01T15:41:41Z</time>
      </trkpt>
      <trkpt lat="43.33496" lon="2.54599">
        <ele>221.24</ele>
        <time>2014-06-01T15:41:43Z</time>
      </trkpt>
      <trkpt lat="43.33494" lon="2.54595">
        <ele>220.76</ele>
        <time>2014-06-01T15:41:49Z</time>
      </trkpt>
      <trkpt lat="43.33492" lon="2.54591">
        <ele>219.32</ele>
        <time>2014-06-01T15:41:58Z</time>
      </trkpt>
      <trkpt lat="43.33496" lon="2.54586">
        <ele>219.32</ele>
        <time>2014-06-01T15:42:06Z</time>
      </trkpt>
      <trkpt lat="43.33497" lon="2.54575">
        <ele>219.32</ele>
        <time>2014-06-01T15:42:15Z</time>
      </trkpt>
      <trkpt lat="43.33497" lon="2.54574">
        <ele>219.32</ele>
        <time>2014-06-01T15:42:16Z</time>
      </trkpt>
      <trkpt lat="43.33498" lon="2.54565">
        <ele>217.88</ele>
        <time>2014-06-01T15:42:25Z</time>
      </trkpt>
      <trkpt lat="43.33499" lon="2.54559">
        <ele>217.4</ele>
        <time>2014-06-01T15:42:31Z</time>
      </trkpt>
      <trkpt lat="43.33499" lon="2.54553">
        <ele>216.91</ele>
        <time>2014-06-01T15:42:36Z</time>
      </trkpt>
      <trkpt lat="43.335" lon="2.54546">
        <ele>216.43</ele>
        <time>2014-06-01T15:42:42Z</time>
      </trkpt>
      <trkpt lat="43.33499" lon="2.54542">
        <ele>216.43</ele>
        <time>2014-06-01T15:42:46Z</time>
      </trkpt>
      <trkpt lat="43.33492" lon="2.54536">
        <ele>214.99</ele>
        <time>2014-06-01T15:42:56Z</time>
      </trkpt>
      <trkpt lat="43.33486" lon="2.54531">
        <ele>214.99</ele>
        <time>2014-06-01T15:43:07Z</time>
      </trkpt>
      <trkpt lat="43.3348" lon="2.54526">
        <ele>214.51</ele>
        <time>2014-06-01T15:43:18Z</time>
      </trkpt>
      <trkpt lat="43.33476" lon="2.54523">
        <ele>214.03</ele>
        <time>2014-06-01T15:43:24Z</time>
      </trkpt>
      <trkpt lat="43.33461" lon="2.54509">
        <ele>212.59</ele>
        <time>2014-06-01T15:43:40Z</time>
      </trkpt>
      <trkpt lat="43.33457" lon="2.54504">
        <ele>211.63</ele>
        <time>2014-06-01T15:43:50Z</time>
      </trkpt>
      <trkpt lat="43.33458" lon="2.54508">
        <ele>210.67</ele>
        <time>2014-06-01T15:44:06Z</time>
      </trkpt>
      <trkpt lat="43.33458" lon="2.5451">
        <ele>211.15</ele>
        <time>2014-06-01T15:44:13Z</time>
      </trkpt>
      <trkpt lat="43.33456" lon="2.54517">
        <ele>212.11</ele>
        <time>2014-06-01T15:44:22Z</time>
      </trkpt>
      <trkpt lat="43.33438" lon="2.54533">
        <ele>213.07</ele>
        <time>2014-06-01T15:44:37Z</time>
      </trkpt>
      <trkpt lat="43.33432" lon="2.54533">
        <ele>214.03</ele>
        <time>2014-06-01T15:44:47Z</time>
      </trkpt>
      <trkpt lat="43.33427" lon="2.5453">
        <ele>215.95</ele>
        <time>2014-06-01T15:44:55Z</time>
      </trkpt>
      <trkpt lat="43.33423" lon="2.5451">
        <ele>217.4</ele>
        <time>2014-06-01T15:45:09Z</time>
      </trkpt>
      <trkpt lat="43.33419" lon="2.54493">
        <ele>218.36</ele>
        <time>2014-06-01T15:45:24Z</time>
      </trkpt>
      <trkpt lat="43.33415" lon="2.54488">
        <ele>219.32</ele>
        <time>2014-06-01T15:45:38Z</time>
      </trkpt>
      <trkpt lat="43.33414" lon="2.54487">
        <ele>218.84</ele>
        <time>2014-06-01T15:46:12Z</time>
      </trkpt>
      <trkpt lat="43.33416" lon="2.54488">
        <ele>218.84</ele>
        <time>2014-06-01T15:46:35Z</time>
      </trkpt>
      <trkpt lat="43.33415" lon="2.54489">
        <ele>218.84</ele>
        <time>2014-06-01T15:47:05Z</time>
      </trkpt>
      <trkpt lat="43.33413" lon="2.54487">
        <ele>218.36</ele>
        <time>2014-06-01T15:47:34Z</time>
      </trkpt>
      <trkpt lat="43.33416" lon="2.54489">
        <ele>217.88</ele>
        <time>2014-06-01T15:47:55Z</time>
      </trkpt>
      <trkpt lat="43.33418" lon="2.54489">
        <ele>217.4</ele>
        <time>2014-06-01T15:48:22Z</time>
      </trkpt>
      <trkpt lat="43.33419" lon="2.54489">
        <ele>218.36</ele>
        <time>2014-06-01T15:48:49Z</time>
      </trkpt>
      <trkpt lat="43.33415" lon="2.5449">
        <ele>217.4</ele>
        <time>2014-06-01T15:49:25Z</time>
      </trkpt>
      <trkpt lat="43.33414" lon="2.54489">
        <ele>217.88</ele>
        <time>2014-06-01T15:49:33Z</time>
      </trkpt>
      <trkpt lat="43.33416" lon="2.54487">
        <ele>218.36</ele>
        <time>2014-06-01T15:49:35Z</time>
      </trkpt>
      <trkpt lat="43.33419" lon="2.54479">
        <ele>218.84</ele>
        <time>2014-06-01T15:49:40Z</time>
      </trkpt>
      <trkpt lat="43.33422" lon="2.5446">
        <ele>220.76</ele>
        <time>2014-06-01T15:49:55Z</time>
      </trkpt>
      <trkpt lat="43.33417" lon="2.54438">
        <ele>222.68</ele>
        <time>2014-06-01T15:50:10Z</time>
      </trkpt>
      <trkpt lat="43.33416" lon="2.54416">
        <ele>224.12</ele>
        <time>2014-06-01T15:50:26Z</time>
      </trkpt>
      <trkpt lat="43.33414" lon="2.54411">
        <ele>224.61</ele>
        <time>2014-06-01T15:50:31Z</time>
      </trkpt>
      <trkpt lat="43.33409" lon="2.54394">
        <ele>227.01</ele>
        <time>2014-06-01T15:50:45Z</time>
      </trkpt>
      <trkpt lat="43.33406" lon="2.54389">
        <ele>227.01</ele>
        <time>2014-06-01T15:50:49Z</time>
      </trkpt>
      <trkpt lat="43.33406" lon="2.54376">
        <ele>229.41</ele>
        <time>2014-06-01T15:51:03Z</time>
      </trkpt>
      <trkpt lat="43.33405" lon="2.54375">
        <ele>229.41</ele>
        <time>2014-06-01T15:51:22Z</time>
      </trkpt>
      <trkpt lat="43.33403" lon="2.54376">
        <ele>228.93</ele>
        <time>2014-06-01T15:51:32Z</time>
      </trkpt>
      <trkpt lat="43.33404" lon="2.54376">
        <ele>229.41</ele>
        <time>2014-06-01T15:51:51Z</time>
      </trkpt>
      <trkpt lat="43.33406" lon="2.54375">
        <ele>228.93</ele>
        <time>2014-06-01T15:52:13Z</time>
      </trkpt>
      <trkpt lat="43.33409" lon="2.54372">
        <ele>229.41</ele>
        <time>2014-06-01T15:52:24Z</time>
      </trkpt>
      <trkpt lat="43.33396" lon="2.54359">
        <ele>230.37</ele>
        <time>2014-06-01T15:52:39Z</time>
      </trkpt>
      <trkpt lat="43.33386" lon="2.54338">
        <ele>233.26</ele>
        <time>2014-06-01T15:52:57Z</time>
      </trkpt>
      <trkpt lat="43.33386" lon="2.54334">
        <ele>234.22</ele>
        <time>2014-06-01T15:53:00Z</time>
      </trkpt>
      <trkpt lat="43.33382" lon="2.54322">
        <ele>235.66</ele>
        <time>2014-06-01T15:53:09Z</time>
      </trkpt>
      <trkpt lat="43.33381" lon="2.54317">
        <ele>236.62</ele>
        <time>2014-06-01T15:53:13Z</time>
      </trkpt>
      <trkpt lat="43.33379" lon="2.54311">
        <ele>238.06</ele>
        <time>2014-06-01T15:53:18Z</time>
      </trkpt>
      <trkpt lat="43.33377" lon="2.54306">
        <ele>238.54</ele>
        <time>2014-06-01T15:53:22Z</time>
      </trkpt>
      <trkpt lat="43.33375" lon="2.543">
        <ele>239.02</ele>
        <time>2014-06-01T15:53:27Z</time>
      </trkpt>
      <trkpt lat="43.33374" lon="2.54297">
        <ele>239.51</ele>
        <time>2014-06-01T15:53:29Z</time>
      </trkpt>
      <trkpt lat="43.33372" lon="2.54293">
        <ele>239.99</ele>
        <time>2014-06-01T15:53:32Z</time>
      </trkpt>
      <trkpt lat="43.33368" lon="2.54281">
        <ele>240.95</ele>
        <time>2014-06-01T15:53:42Z</time>
      </trkpt>
      <trkpt lat="43.33362" lon="2.54267">
        <ele>242.87</ele>
        <time>2014-06-01T15:53:52Z</time>
      </trkpt>
      <trkpt lat="43.33357" lon="2.54256">
        <ele>244.31</ele>
        <time>2014-06-01T15:54:02Z</time>
      </trkpt>
      <trkpt lat="43.33353" lon="2.54248">
        <ele>245.75</ele>
        <time>2014-06-01T15:54:13Z</time>
      </trkpt>
      <trkpt lat="43.33353" lon="2.54247">
        <ele>245.75</ele>
        <time>2014-06-01T15:54:14Z</time>
      </trkpt>
      <trkpt lat="43.33349" lon="2.54235">
        <ele>247.2</ele>
        <time>2014-06-01T15:54:28Z</time>
      </trkpt>
      <trkpt lat="43.33343" lon="2.54227">
        <ele>248.16</ele>
        <time>2014-06-01T15:54:39Z</time>
      </trkpt>
      <trkpt lat="43.33339" lon="2.5422">
        <ele>248.64</ele>
        <time>2014-06-01T15:54:50Z</time>
      </trkpt>
      <trkpt lat="43.33332" lon="2.54213">
        <ele>250.56</ele>
        <time>2014-06-01T15:55:00Z</time>
      </trkpt>
      <trkpt lat="43.33325" lon="2.54203">
        <ele>251.52</ele>
        <time>2014-06-01T15:55:12Z</time>
      </trkpt>
      <trkpt lat="43.33317" lon="2.54194">
        <ele>252.48</ele>
        <time>2014-06-01T15:55:24Z</time>
      </trkpt>
      <trkpt lat="43.33317" lon="2.54193">
        <ele>252.48</ele>
        <time>2014-06-01T15:55:25Z</time>
      </trkpt>
      <trkpt lat="43.33316" lon="2.5419">
        <ele>253.44</ele>
        <time>2014-06-01T15:55:28Z</time>
      </trkpt>
      <trkpt lat="43.33314" lon="2.54187">
        <ele>253.44</ele>
        <time>2014-06-01T15:55:31Z</time>
      </trkpt>
      <trkpt lat="43.33311" lon="2.54179">
        <ele>252.48</ele>
        <time>2014-06-01T15:55:39Z</time>
      </trkpt>
      <trkpt lat="43.33308" lon="2.54177">
        <ele>253.44</ele>
        <time>2014-06-01T15:55:42Z</time>
      </trkpt>
      <trkpt lat="43.33308" lon="2.54173">
        <ele>253.93</ele>
        <time>2014-06-01T15:55:46Z</time>
      </trkpt>
      <trkpt lat="43.33304" lon="2.5416">
        <ele>253.44</ele>
        <time>2014-06-01T15:55:56Z</time>
      </trkpt>
      <trkpt lat="43.33302" lon="2.54149">
        <ele>253.44</ele>
        <time>2014-06-01T15:56:05Z</time>
      </trkpt>
      <trkpt lat="43.333" lon="2.54146">
        <ele>254.41</ele>
        <time>2014-06-01T15:56:09Z</time>
      </trkpt>
      <trkpt lat="43.33299" lon="2.54141">
        <ele>252.96</ele>
        <time>2014-06-01T15:56:13Z</time>
      </trkpt>
      <trkpt lat="43.33297" lon="2.54135">
        <ele>252.96</ele>
        <time>2014-06-01T15:56:18Z</time>
      </trkpt>
      <trkpt lat="43.33294" lon="2.54129">
        <ele>252.96</ele>
        <time>2014-06-01T15:56:24Z</time>
      </trkpt>
      <trkpt lat="43.33293" lon="2.54122">
        <ele>252.48</ele>
        <time>2014-06-01T15:56:29Z</time>
      </trkpt>
      <trkpt lat="43.33292" lon="2.54112">
        <ele>251.52</ele>
        <time>2014-06-01T15:56:38Z</time>
      </trkpt>
      <trkpt lat="43.33293" lon="2.54111">
        <ele>251.52</ele>
        <time>2014-06-01T15:56:39Z</time>
      </trkpt>
      <trkpt lat="43.33292" lon="2.54098">
        <ele>251.52</ele>
        <time>2014-06-01T15:56:48Z</time>
      </trkpt>
      <trkpt lat="43.33292" lon="2.54097">
        <ele>251.52</ele>
        <time>2014-06-01T15:56:50Z</time>
      </trkpt>
      <trkpt lat="43.3329" lon="2.5409">
        <ele>251.04</ele>
        <time>2014-06-01T15:56:55Z</time>
      </trkpt>
      <trkpt lat="43.3329" lon="2.54083">
        <ele>251.52</ele>
        <time>2014-06-01T15:57:01Z</time>
      </trkpt>
      <trkpt lat="43.33289" lon="2.54077">
        <ele>251.04</ele>
        <time>2014-06-01T15:57:06Z</time>
      </trkpt>
      <trkpt lat="43.33289" lon="2.54071">
        <ele>250.08</ele>
        <time>2014-06-01T15:57:10Z</time>
      </trkpt>
      <trkpt lat="43.33287" lon="2.54058">
        <ele>251.04</ele>
        <time>2014-06-01T15:57:19Z</time>
      </trkpt>
      <trkpt lat="43.33287" lon="2.54052">
        <ele>250.56</ele>
        <time>2014-06-01T15:57:25Z</time>
      </trkpt>
      <trkpt lat="43.33284" lon="2.54046">
        <ele>250.56</ele>
        <time>2014-06-01T15:57:30Z</time>
      </trkpt>
      <trkpt lat="43.33283" lon="2.54039">
        <ele>250.56</ele>
        <time>2014-06-01T15:57:35Z</time>
      </trkpt>
      <trkpt lat="43.33281" lon="2.54033">
        <ele>250.56</ele>
        <time>2014-06-01T15:57:39Z</time>
      </trkpt>
      <trkpt lat="43.33278" lon="2.54028">
        <ele>250.56</ele>
        <time>2014-06-01T15:57:44Z</time>
      </trkpt>
      <trkpt lat="43.33276" lon="2.54022">
        <ele>250.56</ele>
        <time>2014-06-01T15:57:49Z</time>
      </trkpt>
      <trkpt lat="43.33274" lon="2.54016">
        <ele>250.08</ele>
        <time>2014-06-01T15:57:54Z</time>
      </trkpt>
      <trkpt lat="43.33269" lon="2.54004">
        <ele>249.6</ele>
        <time>2014-06-01T15:58:03Z</time>
      </trkpt>
      <trkpt lat="43.33269" lon="2.54004">
        <ele>250.08</ele>
        <time>2014-06-01T15:58:04Z</time>
      </trkpt>
      <trkpt lat="43.33267" lon="2.53998">
        <ele>250.08</ele>
        <time>2014-06-01T15:58:09Z</time>
      </trkpt>
      <trkpt lat="43.33264" lon="2.53992">
        <ele>250.56</ele>
        <time>2014-06-01T15:58:15Z</time>
      </trkpt>
      <trkpt lat="43.33262" lon="2.53984">
        <ele>249.6</ele>
        <time>2014-06-01T15:58:21Z</time>
      </trkpt>
      <trkpt lat="43.33262" lon="2.53979">
        <ele>250.08</ele>
        <time>2014-06-01T15:58:25Z</time>
      </trkpt>
      <trkpt lat="43.3326" lon="2.53973">
        <ele>250.08</ele>
        <time>2014-06-01T15:58:29Z</time>
      </trkpt>
      <trkpt lat="43.33259" lon="2.53972">
        <ele>250.08</ele>
        <time>2014-06-01T15:58:31Z</time>
      </trkpt>
      <trkpt lat="43.33258" lon="2.53968">
        <ele>249.12</ele>
        <time>2014-06-01T15:58:34Z</time>
      </trkpt>
      <trkpt lat="43.33256" lon="2.53961">
        <ele>248.64</ele>
        <time>2014-06-01T15:58:39Z</time>
      </trkpt>
      <trkpt lat="43.33256" lon="2.53958">
        <ele>249.12</ele>
        <time>2014-06-01T15:58:45Z</time>
      </trkpt>
      <trkpt lat="43.33251" lon="2.53946">
        <ele>250.56</ele>
        <time>2014-06-01T15:58:55Z</time>
      </trkpt>
      <trkpt lat="43.33247" lon="2.53935">
        <ele>251.52</ele>
        <time>2014-06-01T15:59:04Z</time>
      </trkpt>
      <trkpt lat="43.33246" lon="2.53935">
        <ele>252</ele>
        <time>2014-06-01T15:59:05Z</time>
      </trkpt>
      <trkpt lat="43.33244" lon="2.53932">
        <ele>252</ele>
        <time>2014-06-01T15:59:08Z</time>
      </trkpt>
      <trkpt lat="43.33238" lon="2.53922">
        <ele>252.96</ele>
        <time>2014-06-01T15:59:18Z</time>
      </trkpt>
      <trkpt lat="43.33237" lon="2.53922">
        <ele>252.96</ele>
        <time>2014-06-01T15:59:19Z</time>
      </trkpt>
      <trkpt lat="43.33235" lon="2.53919">
        <ele>252.96</ele>
        <time>2014-06-01T15:59:23Z</time>
      </trkpt>
      <trkpt lat="43.3323" lon="2.53913">
        <ele>252.96</ele>
        <time>2014-06-01T15:59:30Z</time>
      </trkpt>
      <trkpt lat="43.33228" lon="2.53908">
        <ele>252.96</ele>
        <time>2014-06-01T15:59:34Z</time>
      </trkpt>
      <trkpt lat="43.33221" lon="2.53901">
        <ele>254.89</ele>
        <time>2014-06-01T15:59:44Z</time>
      </trkpt>
      <trkpt lat="43.33219" lon="2.53898">
        <ele>255.37</ele>
        <time>2014-06-01T15:59:47Z</time>
      </trkpt>
      <trkpt lat="43.33218" lon="2.53895">
        <ele>254.89</ele>
        <time>2014-06-01T15:59:49Z</time>
      </trkpt>
      <trkpt lat="43.33217" lon="2.53891">
        <ele>255.37</ele>
        <time>2014-06-01T15:59:53Z</time>
      </trkpt>
      <trkpt lat="43.33216" lon="2.53889">
        <ele>255.37</ele>
        <time>2014-06-01T15:59:55Z</time>
      </trkpt>
      <trkpt lat="43.33213" lon="2.53876">
        <ele>257.29</ele>
        <time>2014-06-01T16:00:06Z</time>
      </trkpt>
      <trkpt lat="43.33211" lon="2.53872">
        <ele>257.77</ele>
        <time>2014-06-01T16:00:10Z</time>
      </trkpt>
      <trkpt lat="43.33209" lon="2.53861">
        <ele>258.73</ele>
        <time>2014-06-01T16:00:21Z</time>
      </trkpt>
      <trkpt lat="43.33208" lon="2.5386">
        <ele>258.73</ele>
        <time>2014-06-01T16:00:22Z</time>
      </trkpt>
      <trkpt lat="43.33208" lon="2.53856">
        <ele>259.21</ele>
        <time>2014-06-01T16:00:25Z</time>
      </trkpt>
      <trkpt lat="43.33208" lon="2.53853">
        <ele>259.69</ele>
        <time>2014-06-01T16:00:28Z</time>
      </trkpt>
      <trkpt lat="43.33206" lon="2.5385">
        <ele>260.17</ele>
        <time>2014-06-01T16:00:31Z</time>
      </trkpt>
      <trkpt lat="43.33204" lon="2.53847">
        <ele>260.17</ele>
        <time>2014-06-01T16:00:34Z</time>
      </trkpt>
      <trkpt lat="43.33202" lon="2.53837">
        <ele>260.17</ele>
        <time>2014-06-01T16:00:46Z</time>
      </trkpt>
      <trkpt lat="43.33199" lon="2.53832">
        <ele>261.14</ele>
        <time>2014-06-01T16:01:01Z</time>
      </trkpt>
      <trkpt lat="43.33197" lon="2.53831">
        <ele>260.17</ele>
        <time>2014-06-01T16:01:10Z</time>
      </trkpt>
      <trkpt lat="43.33192" lon="2.53817">
        <ele>258.73</ele>
        <time>2014-06-01T16:01:22Z</time>
      </trkpt>
      <trkpt lat="43.33186" lon="2.53801">
        <ele>256.81</ele>
        <time>2014-06-01T16:01:34Z</time>
      </trkpt>
      <trkpt lat="43.33181" lon="2.53788">
        <ele>255.37</ele>
        <time>2014-06-01T16:01:50Z</time>
      </trkpt>
      <trkpt lat="43.33177" lon="2.53779">
        <ele>253.44</ele>
        <time>2014-06-01T16:02:09Z</time>
      </trkpt>
      <trkpt lat="43.33168" lon="2.53756">
        <ele>250.56</ele>
        <time>2014-06-01T16:02:30Z</time>
      </trkpt>
      <trkpt lat="43.33159" lon="2.53734">
        <ele>251.04</ele>
        <time>2014-06-01T16:02:52Z</time>
      </trkpt>
      <trkpt lat="43.33156" lon="2.53724">
        <ele>249.6</ele>
        <time>2014-06-01T16:03:01Z</time>
      </trkpt>
      <trkpt lat="43.3315" lon="2.53714">
        <ele>249.12</ele>
        <time>2014-06-01T16:03:12Z</time>
      </trkpt>
      <trkpt lat="43.3315" lon="2.53714">
        <ele>249.12</ele>
        <time>2014-06-01T16:03:13Z</time>
      </trkpt>
      <trkpt lat="43.33147" lon="2.53708">
        <ele>248.64</ele>
        <time>2014-06-01T16:03:18Z</time>
      </trkpt>
      <trkpt lat="43.33143" lon="2.53704">
        <ele>247.68</ele>
        <time>2014-06-01T16:03:24Z</time>
      </trkpt>
      <trkpt lat="43.33141" lon="2.537">
        <ele>247.2</ele>
        <time>2014-06-01T16:03:29Z</time>
      </trkpt>
      <trkpt lat="43.33138" lon="2.53695">
        <ele>247.2</ele>
        <time>2014-06-01T16:03:35Z</time>
      </trkpt>
      <trkpt lat="43.33133" lon="2.53685">
        <ele>246.23</ele>
        <time>2014-06-01T16:03:45Z</time>
      </trkpt>
      <trkpt lat="43.33129" lon="2.5368">
        <ele>245.75</ele>
        <time>2014-06-01T16:03:50Z</time>
      </trkpt>
      <trkpt lat="43.33125" lon="2.53675">
        <ele>245.27</ele>
        <time>2014-06-01T16:03:56Z</time>
      </trkpt>
      <trkpt lat="43.33122" lon="2.53671">
        <ele>244.79</ele>
        <time>2014-06-01T16:04:01Z</time>
      </trkpt>
      <trkpt lat="43.3312" lon="2.53668">
        <ele>244.31</ele>
        <time>2014-06-01T16:04:06Z</time>
      </trkpt>
      <trkpt lat="43.33117" lon="2.53665">
        <ele>243.83</ele>
        <time>2014-06-01T16:04:11Z</time>
      </trkpt>
      <trkpt lat="43.33114" lon="2.53662">
        <ele>243.35</ele>
        <time>2014-06-01T16:04:16Z</time>
      </trkpt>
      <trkpt lat="43.33111" lon="2.53657">
        <ele>242.87</ele>
        <time>2014-06-01T16:04:22Z</time>
      </trkpt>
      <trkpt lat="43.33106" lon="2.53655">
        <ele>241.91</ele>
        <time>2014-06-01T16:04:28Z</time>
      </trkpt>
      <trkpt lat="43.331" lon="2.53647">
        <ele>239.99</ele>
        <time>2014-06-01T16:04:38Z</time>
      </trkpt>
      <trkpt lat="43.33099" lon="2.53645">
        <ele>239.99</ele>
        <time>2014-06-01T16:04:41Z</time>
      </trkpt>
      <trkpt lat="43.33094" lon="2.5364">
        <ele>240.47</ele>
        <time>2014-06-01T16:04:53Z</time>
      </trkpt>
      <trkpt lat="43.33092" lon="2.53635">
        <ele>240.47</ele>
        <time>2014-06-01T16:04:57Z</time>
      </trkpt>
      <trkpt lat="43.33087" lon="2.53633">
        <ele>239.99</ele>
        <time>2014-06-01T16:05:04Z</time>
      </trkpt>
      <trkpt lat="43.33086" lon="2.53627">
        <ele>239.02</ele>
        <time>2014-06-01T16:05:10Z</time>
      </trkpt>
      <trkpt lat="43.33083" lon="2.53624">
        <ele>238.54</ele>
        <time>2014-06-01T16:05:15Z</time>
      </trkpt>
      <trkpt lat="43.33079" lon="2.53616">
        <ele>238.06</ele>
        <time>2014-06-01T16:05:25Z</time>
      </trkpt>
      <trkpt lat="43.33077" lon="2.53613">
        <ele>237.58</ele>
        <time>2014-06-01T16:05:34Z</time>
      </trkpt>
      <trkpt lat="43.33077" lon="2.53607">
        <ele>236.62</ele>
        <time>2014-06-01T16:05:46Z</time>
      </trkpt>
      <trkpt lat="43.33074" lon="2.53604">
        <ele>236.14</ele>
        <time>2014-06-01T16:05:58Z</time>
      </trkpt>
      <trkpt lat="43.33073" lon="2.53603">
        <ele>236.14</ele>
        <time>2014-06-01T16:06:01Z</time>
      </trkpt>
      <trkpt lat="43.3307" lon="2.536">
        <ele>235.18</ele>
        <time>2014-06-01T16:06:06Z</time>
      </trkpt>
      <trkpt lat="43.33064" lon="2.53593">
        <ele>234.22</ele>
        <time>2014-06-01T16:06:17Z</time>
      </trkpt>
      <trkpt lat="43.33063" lon="2.5359">
        <ele>233.74</ele>
        <time>2014-06-01T16:06:21Z</time>
      </trkpt>
      <trkpt lat="43.33056" lon="2.53583">
        <ele>232.78</ele>
        <time>2014-06-01T16:06:31Z</time>
      </trkpt>
      <trkpt lat="43.33052" lon="2.53579">
        <ele>231.33</ele>
        <time>2014-06-01T16:06:41Z</time>
      </trkpt>
      <trkpt lat="43.3305" lon="2.53578">
        <ele>230.85</ele>
        <time>2014-06-01T16:06:48Z</time>
      </trkpt>
      <trkpt lat="43.33047" lon="2.53576">
        <ele>230.37</ele>
        <time>2014-06-01T16:06:53Z</time>
      </trkpt>
      <trkpt lat="43.33045" lon="2.53571">
        <ele>229.89</ele>
        <time>2014-06-01T16:06:58Z</time>
      </trkpt>
      <trkpt lat="43.33041" lon="2.5357">
        <ele>229.89</ele>
        <time>2014-06-01T16:07:03Z</time>
      </trkpt>
      <trkpt lat="43.33039" lon="2.53567">
        <ele>228.45</ele>
        <time>2014-06-01T16:07:16Z</time>
      </trkpt>
      <trkpt lat="43.3304" lon="2.53563">
        <ele>228.93</ele>
        <time>2014-06-01T16:07:20Z</time>
      </trkpt>
      <trkpt lat="43.33036" lon="2.53559">
        <ele>227.01</ele>
        <time>2014-06-01T16:07:26Z</time>
      </trkpt>
      <trkpt lat="43.33034" lon="2.53556">
        <ele>226.53</ele>
        <time>2014-06-01T16:07:30Z</time>
      </trkpt>
      <trkpt lat="43.33033" lon="2.5355">
        <ele>226.05</ele>
        <time>2014-06-01T16:07:35Z</time>
      </trkpt>
      <trkpt lat="43.3303" lon="2.53545">
        <ele>225.09</ele>
        <time>2014-06-01T16:07:40Z</time>
      </trkpt>
      <trkpt lat="43.33029" lon="2.53542">
        <ele>224.61</ele>
        <time>2014-06-01T16:07:44Z</time>
      </trkpt>
      <trkpt lat="43.33027" lon="2.53538">
        <ele>225.57</ele>
        <time>2014-06-01T16:07:49Z</time>
      </trkpt>
      <trkpt lat="43.33025" lon="2.53537">
        <ele>224.61</ele>
        <time>2014-06-01T16:08:00Z</time>
      </trkpt>
      <trkpt lat="43.33025" lon="2.53536">
        <ele>224.12</ele>
        <time>2014-06-01T16:08:06Z</time>
      </trkpt>
      <trkpt lat="43.33025" lon="2.53532">
        <ele>224.12</ele>
        <time>2014-06-01T16:08:10Z</time>
      </trkpt>
      <trkpt lat="43.33022" lon="2.53528">
        <ele>224.61</ele>
        <time>2014-06-01T16:08:15Z</time>
      </trkpt>
      <trkpt lat="43.33018" lon="2.53524">
        <ele>223.16</ele>
        <time>2014-06-01T16:08:22Z</time>
      </trkpt>
      <trkpt lat="43.33016" lon="2.53522">
        <ele>222.68</ele>
        <time>2014-06-01T16:08:26Z</time>
      </trkpt>
      <trkpt lat="43.33014" lon="2.53518">
        <ele>222.2</ele>
        <time>2014-06-01T16:08:29Z</time>
      </trkpt>
      <trkpt lat="43.33012" lon="2.53512">
        <ele>222.2</ele>
        <time>2014-06-01T16:08:40Z</time>
      </trkpt>
      <trkpt lat="43.33012" lon="2.53512">
        <ele>222.68</ele>
        <time>2014-06-01T16:08:42Z</time>
      </trkpt>
      <trkpt lat="43.33005" lon="2.53506">
        <ele>222.2</ele>
        <time>2014-06-01T16:08:51Z</time>
      </trkpt>
      <trkpt lat="43.33002" lon="2.53504">
        <ele>221.72</ele>
        <time>2014-06-01T16:08:59Z</time>
      </trkpt>
      <trkpt lat="43.32999" lon="2.535">
        <ele>221.72</ele>
        <time>2014-06-01T16:09:05Z</time>
      </trkpt>
      <trkpt lat="43.32996" lon="2.53498">
        <ele>221.72</ele>
        <time>2014-06-01T16:09:09Z</time>
      </trkpt>
      <trkpt lat="43.32991" lon="2.53493">
        <ele>221.24</ele>
        <time>2014-06-01T16:09:17Z</time>
      </trkpt>
      <trkpt lat="43.32986" lon="2.53489">
        <ele>221.24</ele>
        <time>2014-06-01T16:09:29Z</time>
      </trkpt>
      <trkpt lat="43.32981" lon="2.53486">
        <ele>220.76</ele>
        <time>2014-06-01T16:09:34Z</time>
      </trkpt>
      <trkpt lat="43.32978" lon="2.53483">
        <ele>220.28</ele>
        <time>2014-06-01T16:09:38Z</time>
      </trkpt>
      <trkpt lat="43.32973" lon="2.53478">
        <ele>219.32</ele>
        <time>2014-06-01T16:09:44Z</time>
      </trkpt>
      <trkpt lat="43.3297" lon="2.53475">
        <ele>219.32</ele>
        <time>2014-06-01T16:09:49Z</time>
      </trkpt>
      <trkpt lat="43.32967" lon="2.53473">
        <ele>219.32</ele>
        <time>2014-06-01T16:09:53Z</time>
      </trkpt>
      <trkpt lat="43.32963" lon="2.5347">
        <ele>219.32</ele>
        <time>2014-06-01T16:09:58Z</time>
      </trkpt>
      <trkpt lat="43.3296" lon="2.53466">
        <ele>218.84</ele>
        <time>2014-06-01T16:10:03Z</time>
      </trkpt>
      <trkpt lat="43.32956" lon="2.53464">
        <ele>218.84</ele>
        <time>2014-06-01T16:10:08Z</time>
      </trkpt>
      <trkpt lat="43.32953" lon="2.53462">
        <ele>218.84</ele>
        <time>2014-06-01T16:10:12Z</time>
      </trkpt>
      <trkpt lat="43.3295" lon="2.53459">
        <ele>218.36</ele>
        <time>2014-06-01T16:10:17Z</time>
      </trkpt>
      <trkpt lat="43.32943" lon="2.53454">
        <ele>217.4</ele>
        <time>2014-06-01T16:10:26Z</time>
      </trkpt>
      <trkpt lat="43.3294" lon="2.53453">
        <ele>217.4</ele>
        <time>2014-06-01T16:10:30Z</time>
      </trkpt>
      <trkpt lat="43.32936" lon="2.53452">
        <ele>217.4</ele>
        <time>2014-06-01T16:10:34Z</time>
      </trkpt>
      <trkpt lat="43.32929" lon="2.53449">
        <ele>217.4</ele>
        <time>2014-06-01T16:10:42Z</time>
      </trkpt>
      <trkpt lat="43.32922" lon="2.53447">
        <ele>217.88</ele>
        <time>2014-06-01T16:10:51Z</time>
      </trkpt>
      <trkpt lat="43.32919" lon="2.53446">
        <ele>218.36</ele>
        <time>2014-06-01T16:10:54Z</time>
      </trkpt>
      <trkpt lat="43.32915" lon="2.53445">
        <ele>217.4</ele>
        <time>2014-06-01T16:10:58Z</time>
      </trkpt>
      <trkpt lat="43.32911" lon="2.53442">
        <ele>217.4</ele>
        <time>2014-06-01T16:11:02Z</time>
      </trkpt>
      <trkpt lat="43.32909" lon="2.5344">
        <ele>217.4</ele>
        <time>2014-06-01T16:11:07Z</time>
      </trkpt>
      <trkpt lat="43.32906" lon="2.53437">
        <ele>217.4</ele>
        <time>2014-06-01T16:11:11Z</time>
      </trkpt>
      <trkpt lat="43.32904" lon="2.53434">
        <ele>217.88</ele>
        <time>2014-06-01T16:11:15Z</time>
      </trkpt>
      <trkpt lat="43.32898" lon="2.53427">
        <ele>218.36</ele>
        <time>2014-06-01T16:11:24Z</time>
      </trkpt>
      <trkpt lat="43.32896" lon="2.53422">
        <ele>218.84</ele>
        <time>2014-06-01T16:11:28Z</time>
      </trkpt>
      <trkpt lat="43.32893" lon="2.53416">
        <ele>218.84</ele>
        <time>2014-06-01T16:11:35Z</time>
      </trkpt>
      <trkpt lat="43.32891" lon="2.53413">
        <ele>219.32</ele>
        <time>2014-06-01T16:11:39Z</time>
      </trkpt>
      <trkpt lat="43.32887" lon="2.53404">
        <ele>218.84</ele>
        <time>2014-06-01T16:11:47Z</time>
      </trkpt>
      <trkpt lat="43.32886" lon="2.534">
        <ele>218.84</ele>
        <time>2014-06-01T16:11:51Z</time>
      </trkpt>
      <trkpt lat="43.32885" lon="2.53396">
        <ele>218.84</ele>
        <time>2014-06-01T16:11:55Z</time>
      </trkpt>
      <trkpt lat="43.32883" lon="2.5339">
        <ele>218.84</ele>
        <time>2014-06-01T16:12:00Z</time>
      </trkpt>
      <trkpt lat="43.32882" lon="2.53387">
        <ele>218.84</ele>
        <time>2014-06-01T16:12:03Z</time>
      </trkpt>
      <trkpt lat="43.3288" lon="2.53382">
        <ele>219.32</ele>
        <time>2014-06-01T16:12:07Z</time>
      </trkpt>
      <trkpt lat="43.32879" lon="2.53378">
        <ele>219.32</ele>
        <time>2014-06-01T16:12:11Z</time>
      </trkpt>
      <trkpt lat="43.32878" lon="2.53375">
        <ele>219.32</ele>
        <time>2014-06-01T16:12:14Z</time>
      </trkpt>
      <trkpt lat="43.32877" lon="2.5337">
        <ele>219.32</ele>
        <time>2014-06-01T16:12:18Z</time>
      </trkpt>
      <trkpt lat="43.32876" lon="2.53364">
        <ele>219.32</ele>
        <time>2014-06-01T16:12:25Z</time>
      </trkpt>
      <trkpt lat="43.32872" lon="2.53353">
        <ele>219.8</ele>
        <time>2014-06-01T16:12:35Z</time>
      </trkpt>
      <trkpt lat="43.32872" lon="2.53351">
        <ele>220.28</ele>
        <time>2014-06-01T16:12:37Z</time>
      </trkpt>
      <trkpt lat="43.32872" lon="2.53347">
        <ele>220.28</ele>
        <time>2014-06-01T16:12:40Z</time>
      </trkpt>
      <trkpt lat="43.32871" lon="2.53342">
        <ele>220.28</ele>
        <time>2014-06-01T16:12:44Z</time>
      </trkpt>
      <trkpt lat="43.3287" lon="2.53337">
        <ele>220.28</ele>
        <time>2014-06-01T16:12:48Z</time>
      </trkpt>
      <trkpt lat="43.3287" lon="2.53333">
        <ele>220.76</ele>
        <time>2014-06-01T16:12:52Z</time>
      </trkpt>
      <trkpt lat="43.32867" lon="2.53326">
        <ele>220.76</ele>
        <time>2014-06-01T16:12:59Z</time>
      </trkpt>
      <trkpt lat="43.32866" lon="2.53322">
        <ele>221.24</ele>
        <time>2014-06-01T16:13:03Z</time>
      </trkpt>
      <trkpt lat="43.32865" lon="2.53318">
        <ele>221.72</ele>
        <time>2014-06-01T16:13:06Z</time>
      </trkpt>
      <trkpt lat="43.32864" lon="2.53314">
        <ele>221.24</ele>
        <time>2014-06-01T16:13:09Z</time>
      </trkpt>
      <trkpt lat="43.32863" lon="2.53311">
        <ele>221.72</ele>
        <time>2014-06-01T16:13:12Z</time>
      </trkpt>
      <trkpt lat="43.32864" lon="2.53307">
        <ele>221.72</ele>
        <time>2014-06-01T16:13:16Z</time>
      </trkpt>
      <trkpt lat="43.32863" lon="2.53303">
        <ele>221.72</ele>
        <time>2014-06-01T16:13:20Z</time>
      </trkpt>
      <trkpt lat="43.32863" lon="2.53288">
        <ele>221.72</ele>
        <time>2014-06-01T16:13:31Z</time>
      </trkpt>
      <trkpt lat="43.32862" lon="2.53285">
        <ele>221.24</ele>
        <time>2014-06-01T16:13:34Z</time>
      </trkpt>
      <trkpt lat="43.32862" lon="2.53275">
        <ele>220.28</ele>
        <time>2014-06-01T16:13:44Z</time>
      </trkpt>
      <trkpt lat="43.32863" lon="2.53261">
        <ele>220.76</ele>
        <time>2014-06-01T16:13:53Z</time>
      </trkpt>
      <trkpt lat="43.32863" lon="2.53251">
        <ele>219.32</ele>
        <time>2014-06-01T16:14:02Z</time>
      </trkpt>
      <trkpt lat="43.32862" lon="2.53238">
        <ele>216.91</ele>
        <time>2014-06-01T16:14:17Z</time>
      </trkpt>
      <trkpt lat="43.32858" lon="2.53231">
        <ele>214.99</ele>
        <time>2014-06-01T16:14:26Z</time>
      </trkpt>
      <trkpt lat="43.32851" lon="2.53219">
        <ele>214.99</ele>
        <time>2014-06-01T16:14:40Z</time>
      </trkpt>
      <trkpt lat="43.32846" lon="2.53199">
        <ele>213.07</ele>
        <time>2014-06-01T16:15:01Z</time>
      </trkpt>
      <trkpt lat="43.32841" lon="2.53182">
        <ele>212.59</ele>
        <time>2014-06-01T16:15:18Z</time>
      </trkpt>
      <trkpt lat="43.32832" lon="2.53167">
        <ele>212.11</ele>
        <time>2014-06-01T16:15:32Z</time>
      </trkpt>
      <trkpt lat="43.3283" lon="2.53162">
        <ele>212.59</ele>
        <time>2014-06-01T16:15:36Z</time>
      </trkpt>
      <trkpt lat="43.32825" lon="2.53157">
        <ele>212.11</ele>
        <time>2014-06-01T16:15:45Z</time>
      </trkpt>
      <trkpt lat="43.32818" lon="2.53152">
        <ele>212.59</ele>
        <time>2014-06-01T16:15:54Z</time>
      </trkpt>
      <trkpt lat="43.32815" lon="2.5315">
        <ele>213.07</ele>
        <time>2014-06-01T16:15:58Z</time>
      </trkpt>
      <trkpt lat="43.32812" lon="2.53145">
        <ele>213.07</ele>
        <time>2014-06-01T16:16:02Z</time>
      </trkpt>
      <trkpt lat="43.3281" lon="2.53142">
        <ele>213.55</ele>
        <time>2014-06-01T16:16:06Z</time>
      </trkpt>
      <trkpt lat="43.32804" lon="2.53134">
        <ele>213.55</ele>
        <time>2014-06-01T16:16:14Z</time>
      </trkpt>
      <trkpt lat="43.32802" lon="2.53129">
        <ele>214.03</ele>
        <time>2014-06-01T16:16:18Z</time>
      </trkpt>
      <trkpt lat="43.32799" lon="2.53126">
        <ele>214.03</ele>
        <time>2014-06-01T16:16:22Z</time>
      </trkpt>
      <trkpt lat="43.32798" lon="2.53122">
        <ele>213.55</ele>
        <time>2014-06-01T16:16:26Z</time>
      </trkpt>
      <trkpt lat="43.32796" lon="2.5312">
        <ele>214.03</ele>
        <time>2014-06-01T16:16:29Z</time>
      </trkpt>
      <trkpt lat="43.32795" lon="2.53116">
        <ele>214.03</ele>
        <time>2014-06-01T16:16:33Z</time>
      </trkpt>
      <trkpt lat="43.32792" lon="2.53111">
        <ele>213.55</ele>
        <time>2014-06-01T16:16:39Z</time>
      </trkpt>
      <trkpt lat="43.3279" lon="2.53106">
        <ele>214.03</ele>
        <time>2014-06-01T16:16:44Z</time>
      </trkpt>
      <trkpt lat="43.32784" lon="2.53098">
        <ele>213.55</ele>
        <time>2014-06-01T16:16:54Z</time>
      </trkpt>
      <trkpt lat="43.32782" lon="2.53091">
        <ele>213.55</ele>
        <time>2014-06-01T16:16:59Z</time>
      </trkpt>
      <trkpt lat="43.32781" lon="2.53085">
        <ele>213.07</ele>
        <time>2014-06-01T16:17:04Z</time>
      </trkpt>
      <trkpt lat="43.32775" lon="2.53073">
        <ele>214.99</ele>
        <time>2014-06-01T16:17:13Z</time>
      </trkpt>
      <trkpt lat="43.32775" lon="2.53072">
        <ele>214.03</ele>
        <time>2014-06-01T16:17:14Z</time>
      </trkpt>
      <trkpt lat="43.32773" lon="2.53065">
        <ele>211.63</ele>
        <time>2014-06-01T16:17:20Z</time>
      </trkpt>
      <trkpt lat="43.32769" lon="2.53059">
        <ele>211.63</ele>
        <time>2014-06-01T16:17:25Z</time>
      </trkpt>
      <trkpt lat="43.32768" lon="2.53055">
        <ele>211.63</ele>
        <time>2014-06-01T16:17:28Z</time>
      </trkpt>
      <trkpt lat="43.32765" lon="2.53049">
        <ele>211.63</ele>
        <time>2014-06-01T16:17:33Z</time>
      </trkpt>
      <trkpt lat="43.3276" lon="2.53047">
        <ele>211.63</ele>
        <time>2014-06-01T16:17:40Z</time>
      </trkpt>
      <trkpt lat="43.32758" lon="2.53035">
        <ele>212.11</ele>
        <time>2014-06-01T16:17:52Z</time>
      </trkpt>
      <trkpt lat="43.32758" lon="2.53031">
        <ele>212.11</ele>
        <time>2014-06-01T16:17:56Z</time>
      </trkpt>
      <trkpt lat="43.32757" lon="2.53025">
        <ele>211.63</ele>
        <time>2014-06-01T16:18:01Z</time>
      </trkpt>
      <trkpt lat="43.32757" lon="2.53023">
        <ele>211.63</ele>
        <time>2014-06-01T16:18:13Z</time>
      </trkpt>
      <trkpt lat="43.32757" lon="2.53027">
        <ele>212.11</ele>
        <time>2014-06-01T16:18:26Z</time>
      </trkpt>
      <trkpt lat="43.32756" lon="2.53023">
        <ele>212.59</ele>
        <time>2014-06-01T16:18:45Z</time>
      </trkpt>
      <trkpt lat="43.32754" lon="2.53024">
        <ele>212.11</ele>
        <time>2014-06-01T16:18:52Z</time>
      </trkpt>
      <trkpt lat="43.32754" lon="2.53019">
        <ele>212.11</ele>
        <time>2014-06-01T16:19:05Z</time>
      </trkpt>
      <trkpt lat="43.32753" lon="2.53002">
        <ele>212.11</ele>
        <time>2014-06-01T16:19:24Z</time>
      </trkpt>
      <trkpt lat="43.32751" lon="2.52999">
        <ele>211.63</ele>
        <time>2014-06-01T16:19:41Z</time>
      </trkpt>
      <trkpt lat="43.32748" lon="2.53">
        <ele>212.11</ele>
        <time>2014-06-01T16:19:45Z</time>
      </trkpt>
      <trkpt lat="43.32737" lon="2.53002">
        <ele>210.67</ele>
        <time>2014-06-01T16:19:56Z</time>
      </trkpt>
      <trkpt lat="43.32732" lon="2.53006">
        <ele>209.7</ele>
        <time>2014-06-01T16:20:03Z</time>
      </trkpt>
      <trkpt lat="43.32724" lon="2.53009">
        <ele>209.22</ele>
        <time>2014-06-01T16:20:13Z</time>
      </trkpt>
      <trkpt lat="43.32724" lon="2.53009">
        <ele>209.22</ele>
        <time>2014-06-01T16:20:14Z</time>
      </trkpt>
      <trkpt lat="43.3272" lon="2.5301">
        <ele>207.78</ele>
        <time>2014-06-01T16:20:23Z</time>
      </trkpt>
      <trkpt lat="43.32716" lon="2.5301">
        <ele>207.3</ele>
        <time>2014-06-01T16:20:30Z</time>
      </trkpt>
      <trkpt lat="43.32713" lon="2.53017">
        <ele>207.78</ele>
        <time>2014-06-01T16:20:42Z</time>
      </trkpt>
      <trkpt lat="43.32705" lon="2.53017">
        <ele>206.82</ele>
        <time>2014-06-01T16:20:51Z</time>
      </trkpt>
      <trkpt lat="43.32698" lon="2.53022">
        <ele>205.86</ele>
        <time>2014-06-01T16:21:02Z</time>
      </trkpt>
      <trkpt lat="43.32687" lon="2.53026">
        <ele>205.38</ele>
        <time>2014-06-01T16:21:19Z</time>
      </trkpt>
      <trkpt lat="43.32676" lon="2.53031">
        <ele>203.46</ele>
        <time>2014-06-01T16:21:36Z</time>
      </trkpt>
      <trkpt lat="43.32672" lon="2.53027">
        <ele>203.94</ele>
        <time>2014-06-01T16:21:44Z</time>
      </trkpt>
      <trkpt lat="43.32668" lon="2.53038">
        <ele>204.42</ele>
        <time>2014-06-01T16:21:54Z</time>
      </trkpt>
      <trkpt lat="43.32665" lon="2.53042">
        <ele>202.98</ele>
        <time>2014-06-01T16:22:05Z</time>
      </trkpt>
      <trkpt lat="43.32666" lon="2.53039">
        <ele>203.46</ele>
        <time>2014-06-01T16:22:14Z</time>
      </trkpt>
      <trkpt lat="43.32668" lon="2.53035">
        <ele>202.98</ele>
        <time>2014-06-01T16:22:19Z</time>
      </trkpt>
      <trkpt lat="43.32669" lon="2.5302">
        <ele>202.98</ele>
        <time>2014-06-01T16:22:31Z</time>
      </trkpt>
      <trkpt lat="43.32666" lon="2.5301">
        <ele>203.94</ele>
        <time>2014-06-01T16:22:36Z</time>
      </trkpt>
      <trkpt lat="43.32667" lon="2.52992">
        <ele>205.38</ele>
        <time>2014-06-01T16:22:48Z</time>
      </trkpt>
      <trkpt lat="43.32671" lon="2.52978">
        <ele>205.86</ele>
        <time>2014-06-01T16:23:00Z</time>
      </trkpt>
      <trkpt lat="43.32675" lon="2.52965">
        <ele>207.3</ele>
        <time>2014-06-01T16:23:09Z</time>
      </trkpt>
      <trkpt lat="43.3268" lon="2.52948">
        <ele>207.3</ele>
        <time>2014-06-01T16:23:22Z</time>
      </trkpt>
      <trkpt lat="43.32683" lon="2.52934">
        <ele>207.3</ele>
        <time>2014-06-01T16:23:32Z</time>
      </trkpt>
      <trkpt lat="43.32686" lon="2.52927">
        <ele>206.34</ele>
        <time>2014-06-01T16:23:38Z</time>
      </trkpt>
      <trkpt lat="43.32689" lon="2.52921">
        <ele>206.34</ele>
        <time>2014-06-01T16:23:43Z</time>
      </trkpt>
      <trkpt lat="43.32688" lon="2.52916">
        <ele>205.86</ele>
        <time>2014-06-01T16:23:48Z</time>
      </trkpt>
      <trkpt lat="43.32687" lon="2.52906">
        <ele>205.38</ele>
        <time>2014-06-01T16:23:56Z</time>
      </trkpt>
      <trkpt lat="43.32688" lon="2.52901">
        <ele>204.9</ele>
        <time>2014-06-01T16:24:01Z</time>
      </trkpt>
      <trkpt lat="43.32693" lon="2.52893">
        <ele>204.42</ele>
        <time>2014-06-01T16:24:10Z</time>
      </trkpt>
      <trkpt lat="43.32693" lon="2.52888">
        <ele>204.9</ele>
        <time>2014-06-01T16:24:15Z</time>
      </trkpt>
      <trkpt lat="43.32701" lon="2.52884">
        <ele>204.42</ele>
        <time>2014-06-01T16:24:23Z</time>
      </trkpt>
      <trkpt lat="43.32704" lon="2.52881">
        <ele>204.42</ele>
        <time>2014-06-01T16:24:26Z</time>
      </trkpt>
      <trkpt lat="43.32709" lon="2.52878">
        <ele>203.94</ele>
        <time>2014-06-01T16:24:30Z</time>
      </trkpt>
      <trkpt lat="43.32709" lon="2.52874">
        <ele>203.94</ele>
        <time>2014-06-01T16:24:34Z</time>
      </trkpt>
      <trkpt lat="43.32708" lon="2.52863">
        <ele>202.49</ele>
        <time>2014-06-01T16:24:45Z</time>
      </trkpt>
      <trkpt lat="43.32708" lon="2.52856">
        <ele>202.98</ele>
        <time>2014-06-01T16:25:03Z</time>
      </trkpt>
      <trkpt lat="43.32708" lon="2.52855">
        <ele>202.49</ele>
        <time>2014-06-01T16:25:05Z</time>
      </trkpt>
      <trkpt lat="43.32709" lon="2.52847">
        <ele>202.49</ele>
        <time>2014-06-01T16:25:19Z</time>
      </trkpt>
      <trkpt lat="43.3271" lon="2.52834">
        <ele>202.49</ele>
        <time>2014-06-01T16:25:32Z</time>
      </trkpt>
      <trkpt lat="43.3271" lon="2.5282">
        <ele>200.57</ele>
        <time>2014-06-01T16:25:46Z</time>
      </trkpt>
      <trkpt lat="43.32707" lon="2.52818">
        <ele>200.57</ele>
        <time>2014-06-01T16:25:59Z</time>
      </trkpt>
      <trkpt lat="43.32706" lon="2.52818">
        <ele>200.09</ele>
        <time>2014-06-01T16:26:05Z</time>
      </trkpt>
      <trkpt lat="43.32704" lon="2.52817">
        <ele>200.09</ele>
        <time>2014-06-01T16:26:08Z</time>
      </trkpt>
      <trkpt lat="43.32703" lon="2.52814">
        <ele>200.09</ele>
        <time>2014-06-01T16:26:19Z</time>
      </trkpt>
      <trkpt lat="43.32703" lon="2.52808">
        <ele>198.17</ele>
        <time>2014-06-01T16:26:35Z</time>
      </trkpt>
      <trkpt lat="43.32698" lon="2.52798">
        <ele>197.69</ele>
        <time>2014-06-01T16:26:51Z</time>
      </trkpt>
      <trkpt lat="43.32697" lon="2.52792">
        <ele>197.21</ele>
        <time>2014-06-01T16:27:11Z</time>
      </trkpt>
      <trkpt lat="43.32687" lon="2.52783">
        <ele>196.73</ele>
        <time>2014-06-01T16:27:26Z</time>
      </trkpt>
      <trkpt lat="43.32685" lon="2.52785">
        <ele>198.17</ele>
        <time>2014-06-01T16:27:40Z</time>
      </trkpt>
      <trkpt lat="43.32681" lon="2.52787">
        <ele>197.69</ele>
        <time>2014-06-01T16:27:49Z</time>
      </trkpt>
      <trkpt lat="43.3267" lon="2.52785">
        <ele>197.21</ele>
        <time>2014-06-01T16:28:03Z</time>
      </trkpt>
      <trkpt lat="43.32662" lon="2.5278">
        <ele>196.25</ele>
        <time>2014-06-01T16:28:16Z</time>
      </trkpt>
      <trkpt lat="43.3266" lon="2.52773">
        <ele>196.25</ele>
        <time>2014-06-01T16:28:21Z</time>
      </trkpt>
      <trkpt lat="43.32657" lon="2.52769">
        <ele>195.77</ele>
        <time>2014-06-01T16:28:26Z</time>
      </trkpt>
      <trkpt lat="43.32654" lon="2.52765">
        <ele>195.28</ele>
        <time>2014-06-01T16:28:31Z</time>
      </trkpt>
      <trkpt lat="43.32649" lon="2.52757">
        <ele>192.88</ele>
        <time>2014-06-01T16:28:43Z</time>
      </trkpt>
      <trkpt lat="43.32647" lon="2.52756">
        <ele>192.4</ele>
        <time>2014-06-01T16:29:00Z</time>
      </trkpt>
      <trkpt lat="43.3264" lon="2.52754">
        <ele>192.4</ele>
        <time>2014-06-01T16:29:13Z</time>
      </trkpt>
      <trkpt lat="43.32643" lon="2.5274">
        <ele>190.96</ele>
        <time>2014-06-01T16:29:27Z</time>
      </trkpt>
      <trkpt lat="43.32644" lon="2.52739">
        <ele>190.48</ele>
        <time>2014-06-01T16:29:35Z</time>
      </trkpt>
      <trkpt lat="43.32642" lon="2.52734">
        <ele>190.48</ele>
        <time>2014-06-01T16:29:40Z</time>
      </trkpt>
      <trkpt lat="43.32638" lon="2.52721">
        <ele>188.56</ele>
        <time>2014-06-01T16:29:53Z</time>
      </trkpt>
      <trkpt lat="43.32638" lon="2.5272">
        <ele>188.08</ele>
        <time>2014-06-01T16:29:54Z</time>
      </trkpt>
      <trkpt lat="43.32635" lon="2.52716">
        <ele>187.59</ele>
        <time>2014-06-01T16:30:07Z</time>
      </trkpt>
      <trkpt lat="43.32642" lon="2.52715">
        <ele>188.56</ele>
        <time>2014-06-01T16:30:30Z</time>
      </trkpt>
      <trkpt lat="43.32636" lon="2.52712">
        <ele>188.08</ele>
        <time>2014-06-01T16:30:45Z</time>
      </trkpt>
      <trkpt lat="43.32635" lon="2.52712">
        <ele>188.08</ele>
        <time>2014-06-01T16:30:47Z</time>
      </trkpt>
      <trkpt lat="43.32633" lon="2.52704">
        <ele>187.59</ele>
        <time>2014-06-01T16:30:56Z</time>
      </trkpt>
      <trkpt lat="43.32632" lon="2.52704">
        <ele>187.11</ele>
        <time>2014-06-01T16:30:57Z</time>
      </trkpt>
      <trkpt lat="43.32627" lon="2.527">
        <ele>186.63</ele>
        <time>2014-06-01T16:31:02Z</time>
      </trkpt>
      <trkpt lat="43.32625" lon="2.52697">
        <ele>186.15</ele>
        <time>2014-06-01T16:31:07Z</time>
      </trkpt>
      <trkpt lat="43.32622" lon="2.52695">
        <ele>186.63</ele>
        <time>2014-06-01T16:31:21Z</time>
      </trkpt>
      <trkpt lat="43.32622" lon="2.52696">
        <ele>186.15</ele>
        <time>2014-06-01T16:31:23Z</time>
      </trkpt>
      <trkpt lat="43.32626" lon="2.52698">
        <ele>187.59</ele>
        <time>2014-06-01T16:31:39Z</time>
      </trkpt>
      <trkpt lat="43.32636" lon="2.52708">
        <ele>187.11</ele>
        <time>2014-06-01T16:32:10Z</time>
      </trkpt>
      <trkpt lat="43.32641" lon="2.52712">
        <ele>187.59</ele>
        <time>2014-06-01T16:32:35Z</time>
      </trkpt>
      <trkpt lat="43.32636" lon="2.5271">
        <ele>186.63</ele>
        <time>2014-06-01T16:33:02Z</time>
      </trkpt>
      <trkpt lat="43.3264" lon="2.52717">
        <ele>187.11</ele>
        <time>2014-06-01T16:33:15Z</time>
      </trkpt>
      <trkpt lat="43.32636" lon="2.52713">
        <ele>187.59</ele>
        <time>2014-06-01T16:33:21Z</time>
      </trkpt>
      <trkpt lat="43.3264" lon="2.52714">
        <ele>187.59</ele>
        <time>2014-06-01T16:33:48Z</time>
      </trkpt>
      <trkpt lat="43.32625" lon="2.52702">
        <ele>187.59</ele>
        <time>2014-06-01T16:34:14Z</time>
      </trkpt>
      <trkpt lat="43.3262" lon="2.52705">
        <ele>187.59</ele>
        <time>2014-06-01T16:34:48Z</time>
      </trkpt>
      <trkpt lat="43.32625" lon="2.52709">
        <ele>188.56</ele>
        <time>2014-06-01T16:35:23Z</time>
      </trkpt>
      <trkpt lat="43.32618" lon="2.52696">
        <ele>188.08</ele>
        <time>2014-06-01T16:35:41Z</time>
      </trkpt>
      <trkpt lat="43.32613" lon="2.52681">
        <ele>187.11</ele>
        <time>2014-06-01T16:35:57Z</time>
      </trkpt>
      <trkpt lat="43.32597" lon="2.52673">
        <ele>187.11</ele>
        <time>2014-06-01T16:36:17Z</time>
      </trkpt>
      <trkpt lat="43.32585" lon="2.52658">
        <ele>188.08</ele>
        <time>2014-06-01T16:36:31Z</time>
      </trkpt>
      <trkpt lat="43.32578" lon="2.5266">
        <ele>188.08</ele>
        <time>2014-06-01T16:36:42Z</time>
      </trkpt>
      <trkpt lat="43.3258" lon="2.52659">
        <ele>187.59</ele>
        <time>2014-06-01T16:36:54Z</time>
      </trkpt>
      <trkpt lat="43.3258" lon="2.52651">
        <ele>187.59</ele>
        <time>2014-06-01T16:37:04Z</time>
      </trkpt>
      <trkpt lat="43.32582" lon="2.52644">
        <ele>187.11</ele>
        <time>2014-06-01T16:37:16Z</time>
      </trkpt>
      <trkpt lat="43.32589" lon="2.52626">
        <ele>188.08</ele>
        <time>2014-06-01T16:37:31Z</time>
      </trkpt>
      <trkpt lat="43.3259" lon="2.52625">
        <ele>188.08</ele>
        <time>2014-06-01T16:37:33Z</time>
      </trkpt>
      <trkpt lat="43.32593" lon="2.52626">
        <ele>187.11</ele>
        <time>2014-06-01T16:37:38Z</time>
      </trkpt>
      <trkpt lat="43.32603" lon="2.52626">
        <ele>187.59</ele>
        <time>2014-06-01T16:37:49Z</time>
      </trkpt>
      <trkpt lat="43.32612" lon="2.52624">
        <ele>188.56</ele>
        <time>2014-06-01T16:38:00Z</time>
      </trkpt>
      <trkpt lat="43.32619" lon="2.52622">
        <ele>189.52</ele>
        <time>2014-06-01T16:38:09Z</time>
      </trkpt>
      <trkpt lat="43.32627" lon="2.52612">
        <ele>190.96</ele>
        <time>2014-06-01T16:38:22Z</time>
      </trkpt>
      <trkpt lat="43.32625" lon="2.526">
        <ele>191.44</ele>
        <time>2014-06-01T16:38:30Z</time>
      </trkpt>
      <trkpt lat="43.32626" lon="2.52587">
        <ele>192.4</ele>
        <time>2014-06-01T16:38:41Z</time>
      </trkpt>
      <trkpt lat="43.32629" lon="2.5258">
        <ele>192.88</ele>
        <time>2014-06-01T16:38:50Z</time>
      </trkpt>
      <trkpt lat="43.32626" lon="2.52569">
        <ele>191.44</ele>
        <time>2014-06-01T16:38:59Z</time>
      </trkpt>
      <trkpt lat="43.32623" lon="2.52561">
        <ele>191.44</ele>
        <time>2014-06-01T16:39:05Z</time>
      </trkpt>
      <trkpt lat="43.32624" lon="2.52557">
        <ele>191.44</ele>
        <time>2014-06-01T16:39:09Z</time>
      </trkpt>
      <trkpt lat="43.32626" lon="2.52551">
        <ele>190.96</ele>
        <time>2014-06-01T16:39:16Z</time>
      </trkpt>
      <trkpt lat="43.32622" lon="2.52547">
        <ele>190.96</ele>
        <time>2014-06-01T16:39:20Z</time>
      </trkpt>
      <trkpt lat="43.32617" lon="2.52536">
        <ele>191.44</ele>
        <time>2014-06-01T16:39:32Z</time>
      </trkpt>
      <trkpt lat="43.32617" lon="2.52524">
        <ele>190.96</ele>
        <time>2014-06-01T16:39:43Z</time>
      </trkpt>
      <trkpt lat="43.32616" lon="2.5251">
        <ele>191.44</ele>
        <time>2014-06-01T16:39:55Z</time>
      </trkpt>
      <trkpt lat="43.32609" lon="2.52503">
        <ele>191.92</ele>
        <time>2014-06-01T16:40:06Z</time>
      </trkpt>
      <trkpt lat="43.32607" lon="2.52498">
        <ele>191.92</ele>
        <time>2014-06-01T16:40:11Z</time>
      </trkpt>
      <trkpt lat="43.32606" lon="2.52493">
        <ele>191.92</ele>
        <time>2014-06-01T16:40:15Z</time>
      </trkpt>
      <trkpt lat="43.32605" lon="2.52486">
        <ele>191.44</ele>
        <time>2014-06-01T16:40:21Z</time>
      </trkpt>
      <trkpt lat="43.326" lon="2.52484">
        <ele>191.44</ele>
        <time>2014-06-01T16:40:25Z</time>
      </trkpt>
      <trkpt lat="43.32596" lon="2.52483">
        <ele>190.96</ele>
        <time>2014-06-01T16:40:29Z</time>
      </trkpt>
      <trkpt lat="43.32594" lon="2.52488">
        <ele>190.96</ele>
        <time>2014-06-01T16:40:38Z</time>
      </trkpt>
      <trkpt lat="43.32591" lon="2.52482">
        <ele>190.96</ele>
        <time>2014-06-01T16:40:48Z</time>
      </trkpt>
      <trkpt lat="43.32581" lon="2.52479">
        <ele>190.48</ele>
        <time>2014-06-01T16:40:56Z</time>
      </trkpt>
      <trkpt lat="43.32567" lon="2.52484">
        <ele>190</ele>
        <time>2014-06-01T16:41:07Z</time>
      </trkpt>
      <trkpt lat="43.32557" lon="2.52484">
        <ele>190</ele>
        <time>2014-06-01T16:41:15Z</time>
      </trkpt>
      <trkpt lat="43.32556" lon="2.52482">
        <ele>190</ele>
        <time>2014-06-01T16:41:19Z</time>
      </trkpt>
      <trkpt lat="43.32552" lon="2.52482">
        <ele>190</ele>
        <time>2014-06-01T16:41:24Z</time>
      </trkpt>
      <trkpt lat="43.32542" lon="2.52484">
        <ele>189.52</ele>
        <time>2014-06-01T16:41:34Z</time>
      </trkpt>
      <trkpt lat="43.32538" lon="2.52485">
        <ele>188.56</ele>
        <time>2014-06-01T16:41:40Z</time>
      </trkpt>
      <trkpt lat="43.32532" lon="2.52486">
        <ele>189.04</ele>
        <time>2014-06-01T16:41:45Z</time>
      </trkpt>
      <trkpt lat="43.32528" lon="2.5249">
        <ele>189.04</ele>
        <time>2014-06-01T16:41:50Z</time>
      </trkpt>
      <trkpt lat="43.32518" lon="2.52497">
        <ele>188.56</ele>
        <time>2014-06-01T16:41:59Z</time>
      </trkpt>
      <trkpt lat="43.32514" lon="2.525">
        <ele>189.04</ele>
        <time>2014-06-01T16:42:04Z</time>
      </trkpt>
      <trkpt lat="43.32506" lon="2.52506">
        <ele>189.04</ele>
        <time>2014-06-01T16:42:13Z</time>
      </trkpt>
      <trkpt lat="43.32498" lon="2.5251">
        <ele>189.52</ele>
        <time>2014-06-01T16:42:24Z</time>
      </trkpt>
      <trkpt lat="43.32495" lon="2.52507">
        <ele>189.52</ele>
        <time>2014-06-01T16:42:28Z</time>
      </trkpt>
      <trkpt lat="43.32493" lon="2.52504">
        <ele>189.52</ele>
        <time>2014-06-01T16:42:31Z</time>
      </trkpt>
      <trkpt lat="43.3249" lon="2.52501">
        <ele>190</ele>
        <time>2014-06-01T16:42:35Z</time>
      </trkpt>
      <trkpt lat="43.32485" lon="2.52496">
        <ele>190.48</ele>
        <time>2014-06-01T16:42:42Z</time>
      </trkpt>
      <trkpt lat="43.32476" lon="2.52492">
        <ele>191.44</ele>
        <time>2014-06-01T16:42:54Z</time>
      </trkpt>
      <trkpt lat="43.32475" lon="2.52491">
        <ele>191.44</ele>
        <time>2014-06-01T16:42:55Z</time>
      </trkpt>
      <trkpt lat="43.32472" lon="2.52491">
        <ele>191.92</ele>
        <time>2014-06-01T16:42:59Z</time>
      </trkpt>
      <trkpt lat="43.32465" lon="2.52497">
        <ele>192.4</ele>
        <time>2014-06-01T16:43:09Z</time>
      </trkpt>
      <trkpt lat="43.32458" lon="2.525">
        <ele>192.4</ele>
        <time>2014-06-01T16:43:21Z</time>
      </trkpt>
      <trkpt lat="43.32455" lon="2.52502">
        <ele>193.84</ele>
        <time>2014-06-01T16:43:25Z</time>
      </trkpt>
      <trkpt lat="43.32449" lon="2.52504">
        <ele>192.88</ele>
        <time>2014-06-01T16:43:31Z</time>
      </trkpt>
      <trkpt lat="43.32441" lon="2.52507">
        <ele>194.32</ele>
        <time>2014-06-01T16:43:41Z</time>
      </trkpt>
      <trkpt lat="43.32439" lon="2.5251">
        <ele>194.32</ele>
        <time>2014-06-01T16:43:45Z</time>
      </trkpt>
      <trkpt lat="43.32435" lon="2.52513">
        <ele>194.32</ele>
        <time>2014-06-01T16:43:50Z</time>
      </trkpt>
      <trkpt lat="43.32422" lon="2.52527">
        <ele>194.8</ele>
        <time>2014-06-01T16:44:04Z</time>
      </trkpt>
      <trkpt lat="43.32406" lon="2.52543">
        <ele>193.84</ele>
        <time>2014-06-01T16:44:25Z</time>
      </trkpt>
      <trkpt lat="43.32396" lon="2.52559">
        <ele>193.84</ele>
        <time>2014-06-01T16:44:40Z</time>
      </trkpt>
      <trkpt lat="43.32396" lon="2.5256">
        <ele>194.32</ele>
        <time>2014-06-01T16:44:41Z</time>
      </trkpt>
      <trkpt lat="43.32392" lon="2.52567">
        <ele>193.84</ele>
        <time>2014-06-01T16:44:46Z</time>
      </trkpt>
      <trkpt lat="43.32389" lon="2.52573">
        <ele>193.36</ele>
        <time>2014-06-01T16:44:51Z</time>
      </trkpt>
      <trkpt lat="43.32383" lon="2.52584">
        <ele>192.88</ele>
        <time>2014-06-01T16:45:00Z</time>
      </trkpt>
      <trkpt lat="43.32378" lon="2.52595">
        <ele>193.36</ele>
        <time>2014-06-01T16:45:10Z</time>
      </trkpt>
      <trkpt lat="43.32375" lon="2.52604">
        <ele>193.36</ele>
        <time>2014-06-01T16:45:18Z</time>
      </trkpt>
      <trkpt lat="43.32374" lon="2.52608">
        <ele>193.36</ele>
        <time>2014-06-01T16:45:22Z</time>
      </trkpt>
      <trkpt lat="43.32377" lon="2.52622">
        <ele>193.36</ele>
        <time>2014-06-01T16:45:32Z</time>
      </trkpt>
      <trkpt lat="43.32376" lon="2.52627">
        <ele>193.36</ele>
        <time>2014-06-01T16:45:36Z</time>
      </trkpt>
      <trkpt lat="43.32374" lon="2.52631">
        <ele>193.36</ele>
        <time>2014-06-01T16:45:41Z</time>
      </trkpt>
      <trkpt lat="43.32375" lon="2.52637">
        <ele>192.88</ele>
        <time>2014-06-01T16:45:45Z</time>
      </trkpt>
      <trkpt lat="43.32375" lon="2.52647">
        <ele>192.4</ele>
        <time>2014-06-01T16:45:53Z</time>
      </trkpt>
      <trkpt lat="43.32375" lon="2.52648">
        <ele>192.88</ele>
        <time>2014-06-01T16:45:55Z</time>
      </trkpt>
      <trkpt lat="43.32375" lon="2.52658">
        <ele>192.4</ele>
        <time>2014-06-01T16:46:03Z</time>
      </trkpt>
      <trkpt lat="43.32378" lon="2.52668">
        <ele>192.4</ele>
        <time>2014-06-01T16:46:12Z</time>
      </trkpt>
      <trkpt lat="43.32378" lon="2.52669">
        <ele>191.92</ele>
        <time>2014-06-01T16:46:13Z</time>
      </trkpt>
      <trkpt lat="43.3238" lon="2.52674">
        <ele>192.4</ele>
        <time>2014-06-01T16:46:17Z</time>
      </trkpt>
      <trkpt lat="43.32381" lon="2.52679">
        <ele>191.92</ele>
        <time>2014-06-01T16:46:22Z</time>
      </trkpt>
      <trkpt lat="43.32382" lon="2.52684">
        <ele>191.44</ele>
        <time>2014-06-01T16:46:26Z</time>
      </trkpt>
      <trkpt lat="43.32383" lon="2.52687">
        <ele>191.44</ele>
        <time>2014-06-01T16:46:29Z</time>
      </trkpt>
      <trkpt lat="43.32387" lon="2.52695">
        <ele>190.96</ele>
        <time>2014-06-01T16:46:37Z</time>
      </trkpt>
      <trkpt lat="43.3238" lon="2.527">
        <ele>191.44</ele>
        <time>2014-06-01T16:46:54Z</time>
      </trkpt>
      <trkpt lat="43.32383" lon="2.52697">
        <ele>190.96</ele>
        <time>2014-06-01T16:47:18Z</time>
      </trkpt>
      <trkpt lat="43.32379" lon="2.52704">
        <ele>190.96</ele>
        <time>2014-06-01T16:47:43Z</time>
      </trkpt>
      <trkpt lat="43.32377" lon="2.52701">
        <ele>190.48</ele>
        <time>2014-06-01T16:48:15Z</time>
      </trkpt>
      <trkpt lat="43.32378" lon="2.52701">
        <ele>190.48</ele>
        <time>2014-06-01T16:48:51Z</time>
      </trkpt>
    </trkseg>
  </trk>
</gpx>